[[{"header":{"parameterUnit":"m.s-1","parameterCategory":1,"la1":31.0,"la2":29.5877,"lo1":-88.7671,"lo2":-86.6584,"dy":0.0162,"dx":0.0185,"nx":115,"ny":88,"refTime":"2026-04-02T12:00:00:Z","depth":0,"parameterNumber":2,"parameterNumberName":"U-component_of_WINDS"},"data":[0.0,0.0,0.0,0.0,0.0,0.0,0.0,0.0,0.0,0.0,0.0,0.0,0.0,0.0,0.0,0.0,0.0,0.0,0.0,0.0,0.0,0.0,0.0,0.0,0.0,0.0,0.0,0.0,0.0,0.0,0.0,0.0,0.0,0.0,0.0,0.0,0.0,0.0,0.0,0.0,0.0,0.0,0.0,0.0,0.0,0.0,0.0,0.0,0.0,0.0,0.0,0.0,0.0,0.0,0.0,0.0,0.0,0.0,0.0,0.0,0.0,0.0,0.0,0.0,0.0,0.0,0.0,0.0,0.0,0.0,0.0,0.0,0.0,0.0,0.0,0.0,0.0,0.0,0.0,0.0,0.0,0.0,0.0,0.0,0.0,0.0,0.0,0.0,0.0,0.0,0.0,0.0,0.0,0.0,0.0,0.0,0.0,0.0,0.0,0.0,0.0,0.0,0.0,0.0,0.0,0.0,0.0,0.0,0.0,0.0,0.0,0.0,0.0,0.0,0.0,0.0,0.0,0.0,0.0,0.0,0.0,0.0,0.0,0.0,0.0,0.0,0.0,0.0,0.0,0.0,0.0,0.0,0.0,0.0,0.0,0.0,0.0,0.0,0.0,0.0,0.0,0.0,0.0,0.0,0.0,0.0,0.0,0.0,0.0,0.0,0.0,0.0,0.0,0.0,0.0,0.0,0.0,0.0,0.0,0.0,0.0,0.0,0.0,0.0,0.0,0.0,0.0,0.0,0.0,0.0,0.0,0.0,0.0,0.0,0.0,0.0,0.0,0.0,0.0,0.0,0.0,0.0,0.0,0.0,0.0,0.0,0.0,0.0,0.0,0.0,0.0,0.0,0.0,0.0,0.0,0.0,0.0,0.0,0.0,0.0,0.0,0.0,0.0,0.0,0.0,0.0,0.0,0.0,0.0,0.0,0.0,0.0,0.0,0.0,0.0,0.0,0.0,0.0,0.0,0.0,0.0,0.0,0.0,0.0,0.0,0.0,0.0,0.0,0.0,0.0,0.0,0.0,0.0,0.0,0.0,0.0,0.0,0.0,0.0,0.0,0.0,0.0,0.0,0.0,0.0,0.0,0.0,0.0,0.0,0.0,0.0,0.0,0.0,0.0,0.0,0.0,0.0,0.0,0.0,0.0,0.0,0.0,0.0,0.0,0.0,0.0,0.0,0.0,0.0,0.0,0.0,0.0,0.0,0.0,0.0,0.0,0.0,0.0,0.0,0.0,0.0,0.0,0.0,0.0,0.0,0.0,0.0,0.0,0.0,0.0,0.0,0.0,0.0,0.0,0.0,0.0,0.0,0.0,0.0,0.0,0.0,0.0,0.0,0.0,0.0,0.0,0.0,0.0,0.0,0.0,0.0,0.0,0.0,0.0,0.0,0.0,0.0,0.0,0.0,0.0,0.0,0.0,0.0,0.0,0.0,0.0,0.0,0.0,0.0,0.0,0.0,0.0,0.0,0.0,0.0,0.0,0.0,0.0,0.0,0.0,0.0,0.0,0.0,0.0,0.0,0.0,0.0,0.0,0.0,0.0,0.0,0.0,0.0,0.0,0.0,0.0,0.0,0.0,0.0,0.0,0.0,0.0,0.0,0.0,0.0,0.0,0.0,0.0,0.0,0.0,0.0,0.0,0.0,0.0,0.0,0.0,0.0,0.0,0.0,0.0,0.0,0.0,0.0,0.0,0.0,0.0,0.0,0.0,0.0,0.0,0.0,0.0,0.0,0.0,0.0,0.0,0.0,0.0,0.0,0.0,0.0,0.0,0.0,0.0,0.0,0.0,0.0,0.0,0.0,0.0,0.0,0.0,0.0,0.0,0.0,0.0,0.0,0.0,0.0,0.0,0.0,0.0,0.0,0.0,0.0,0.0,0.0,0.0,0.0,0.0,0.0,0.0,0.0,0.0,0.0,0.0,0.0,0.0,0.0,0.0,0.0,0.0,0.0,0.0,0.0,0.0,0.0,0.0,0.0,0.0,0.0,0.0,0.0,0.0,0.0,0.0,0.0,0.0,0.0,0.0,0.0,0.0,0.0,0.0,0.0,0.0,0.0,0.0,0.0,0.0,0.0,0.0,0.0,0.0,0.0,0.0,0.0,0.0,0.0,0.0,0.0,0.0,0.0,0.0,0.0,0.0,0.0,0.0,0.0,0.0,0.0,0.0,0.0,0.0,0.0,0.0,0.0,0.0,0.0,0.0,0.0,0.0,0.0,0.0,0.0,0.0,0.0,0.0,0.0,0.0,0.0,0.0,0.0,0.0,0.0,0.0,0.0,0.0,0.0,0.0,0.0,0.0,0.0,0.0,0.0,0.0,0.0,0.0,0.0,0.0,0.0,0.0,0.0,0.0,0.0,0.0,0.0,0.0,0.0,0.0,0.0,0.0,0.0,0.0,0.0,0.0,0.0,0.0,0.0,0.0,0.0,0.0,0.0,0.0,0.0,0.0,0.0,0.0,0.0,0.0,0.0,0.0,0.0,0.0,0.0,0.0,0.0,0.0,0.0,0.0,0.0,0.0,0.0,0.0,0.0,0.0,0.0,0.0,0.0,0.0,0.0,0.0,0.0,0.0,0.0,0.0,0.0,0.0,0.0,0.0,0.0,0.0,0.0,0.0,0.0,0.0,0.0,0.0,0.0,0.0,0.0,0.0,0.0,0.0,0.0,0.0,0.0,0.0,0.0,0.0,0.0,0.0,0.0,0.0,0.0,0.0,0.0,0.0,0.0,0.0,0.0,0.0,0.0,0.0,0.0,0.0,0.0,0.0,0.0,0.0,0.0,0.0,0.0,0.0,0.0,0.0,0.0,0.0,0.0,0.0,0.0,0.0,0.0,0.0,0.0,0.0,0.0,0.0,0.0,0.0,0.0,0.0,0.0,0.0,0.0,0.0,0.0,0.0,0.0,0.0,0.0,0.0,0.0,0.0,0.0,0.0,0.0,0.0,0.0,0.0,0.0,0.0,0.0,0.0,0.0,0.0,0.0,0.0,0.0,0.0,0.0,0.0,0.0,0.0,0.0,0.0,0.0,0.0,0.0,0.0,0.0,0.0,0.0,0.0,0.0,0.0,0.0,0.0,0.0,0.0,0.0,0.0,0.0,0.0,0.0,0.0,0.0,0.0,0.0,0.0,0.0,0.0,0.0,0.0,0.0,0.0,0.0,0.0,0.0,0.0,0.0,0.0,0.0,0.0,0.0,0.0,0.0,0.0,0.0,0.0,0.0,0.0,0.0,0.0,0.0,0.0,0.0,0.0,0.0,0.0,0.0,0.0,0.0,0.0,0.0,0.0,0.0,0.0,0.0,0.0,0.0,0.0,0.0,0.0,0.0,0.0,0.0,0.0,0.0,0.0,0.0,0.0,0.0,0.0,0.0,0.0,0.0,0.0,0.0,0.0,0.0,0.0,0.0,0.0,0.0,0.0,0.0,0.0,0.0,0.0,0.0,0.0,0.0,0.0,0.0,0.0,0.0,0.0,0.0,0.0,0.0,0.0,0.0,0.0,0.0,0.0,0.0,0.0,0.0,0.0,0.0,0.0,0.0,0.0,0.0,0.0,0.0,0.0,0.0,0.0,0.0,0.0,0.0,0.0,0.0,0.0,0.0,0.0,0.0,0.0,0.0,0.0,0.0,0.0,0.0,0.0,0.0,0.0,0.0,0.0,0.0,0.0,0.0,0.0,0.0,0.0,0.0,0.0,0.0,0.0,0.0,0.0,0.0,0.0,0.0,0.0,0.0,0.0,0.0,0.0,0.0,0.0,0.0,0.0,0.0,0.0,0.0,0.0,0.0,0.0,0.0,0.0,0.0,0.0,0.0,0.0,0.0,0.0,0.0,0.0,0.0,0.0,0.0,0.0,0.0,0.0,0.0,0.0,0.0,0.0,0.0,0.0,0.0,0.0,0.0,0.0,0.0,0.0,0.0,0.0,0.0,0.0,0.0,0.0,0.0,0.0,0.0,0.0,0.0,0.0,0.0,0.0,0.0,0.0,0.0,0.0,0.0,0.0,0.0,0.0,0.0,0.0,0.0,0.0,0.0,0.0,0.0,0.0,0.0,0.0,0.0,0.0,0.0,0.0,0.0,0.0,0.0,0.0,0.0,0.0,0.0,0.0,0.0,0.0,0.0,0.0,0.0,0.0,0.0,0.0,0.0,0.0,0.0,0.0,0.0,0.0,0.0,0.0,0.0,0.0,0.0,0.0,0.0,0.0,0.0,0.0,0.0,0.0,0.0,0.0,0.0,0.0,0.0,0.0,0.0,0.0,4.777,0.0,0.0,0.0,0.0,0.0,0.0,0.0,0.0,0.0,0.0,0.0,0.0,0.0,0.0,0.0,0.0,0.0,0.0,0.0,0.0,0.0,0.0,0.0,0.0,0.0,0.0,0.0,0.0,0.0,0.0,0.0,0.0,0.0,0.0,0.0,0.0,0.0,0.0,0.0,0.0,0.0,0.0,0.0,0.0,0.0,0.0,0.0,0.0,0.0,0.0,0.0,0.0,0.0,0.0,0.0,0.0,0.0,0.0,0.0,0.0,0.0,0.0,0.0,0.0,0.0,0.0,0.0,0.0,0.0,0.0,0.0,0.0,0.0,0.0,0.0,0.0,0.0,0.0,0.0,0.0,0.0,0.0,0.0,0.0,0.0,0.0,0.0,0.0,0.0,0.0,0.0,0.0,0.0,0.0,0.0,0.0,0.0,0.0,0.0,0.0,0.0,0.0,0.0,0.0,0.0,0.0,0.0,0.0,0.0,0.0,4.8844,4.9198,4.9174,4.8729,4.7805,0.0,0.0,0.0,0.0,0.0,0.0,0.0,0.0,0.0,0.0,0.0,0.0,0.0,0.0,0.0,0.0,0.0,0.0,0.0,0.0,0.0,0.0,0.0,0.0,0.0,0.0,0.0,0.0,0.0,0.0,0.0,0.0,0.0,0.0,0.0,0.0,0.0,0.0,0.0,0.0,0.0,0.0,0.0,0.0,0.0,0.0,0.0,0.0,0.0,0.0,0.0,0.0,0.0,0.0,0.0,0.0,0.0,0.0,0.0,0.0,0.0,0.0,0.0,0.0,0.0,0.0,0.0,0.0,0.0,0.0,0.0,0.0,0.0,0.0,0.0,0.0,0.0,0.0,0.0,0.0,0.0,0.0,0.0,0.0,0.0,0.0,0.0,0.0,0.0,0.0,0.0,0.0,0.0,0.0,0.0,0.0,0.0,0.0,0.0,0.0,0.0,0.0,0.0,0.0,0.0,0.0,0.0,0.0,0.0,0.0,0.0,0.0,4.9632,4.9129,4.7706,0.0,0.0,0.0,0.0,0.0,0.0,0.0,0.0,0.0,0.0,0.0,0.0,0.0,0.0,0.0,0.0,0.0,0.0,0.0,0.0,0.0,0.0,0.0,0.0,0.0,0.0,0.0,0.0,0.0,0.0,0.0,0.0,0.0,0.0,0.0,0.0,0.0,0.0,0.0,0.0,0.0,0.0,0.0,0.0,0.0,0.0,0.0,0.0,0.0,0.0,0.0,0.0,0.0,0.0,0.0,0.0,0.0,0.0,0.0,0.0,0.0,0.0,0.0,0.0,0.0,0.0,0.0,0.0,0.0,0.0,0.0,0.0,0.0,0.0,0.0,0.0,0.0,0.0,0.0,0.0,0.0,0.0,0.0,0.0,0.0,0.0,0.0,0.0,0.0,0.0,0.0,0.0,0.0,0.0,0.0,0.0,0.0,0.0,0.0,0.0,0.0,0.0,0.0,0.0,0.0,0.0,0.0,0.0,0.0,0.0,4.9727,5.0018,5.0264,0.0,4.7621,0.0,0.0,0.0,0.0,0.0,0.0,0.0,0.0,0.0,0.0,0.0,0.0,0.0,0.0,0.0,0.0,0.0,0.0,0.0,0.0,0.0,0.0,0.0,0.0,0.0,0.0,0.0,0.0,0.0,0.0,0.0,0.0,0.0,0.0,0.0,0.0,0.0,0.0,0.0,0.0,0.0,0.0,0.0,0.0,0.0,0.0,0.0,0.0,0.0,0.0,0.0,0.0,0.0,0.0,0.0,0.0,0.0,0.0,0.0,0.0,0.0,0.0,0.0,0.0,0.0,0.0,0.0,0.0,0.0,0.0,0.0,0.0,0.0,0.0,0.0,0.0,0.0,0.0,0.0,0.0,0.0,0.0,0.0,0.0,0.0,0.0,0.0,0.0,0.0,0.0,0.0,0.0,0.0,0.0,0.0,0.0,0.0,0.0,0.0,0.0,0.0,0.0,0.0,0.0,0.0,0.0,0.0,0.0,0.0,0.0,5.0657,5.1279,4.9772,4.8386,0.0,0.0,0.0,0.0,0.0,0.0,0.0,0.0,0.0,0.0,0.0,0.0,0.0,0.0,0.0,0.0,0.0,0.0,0.0,0.0,0.0,0.0,0.0,0.0,0.0,0.0,0.0,0.0,0.0,0.0,0.0,0.0,0.0,0.0,0.0,0.0,0.0,0.0,0.0,0.0,0.0,0.0,0.0,0.0,0.0,0.0,0.0,0.0,0.0,0.0,0.0,0.0,0.0,0.0,0.0,0.0,0.0,0.0,0.0,0.0,0.0,0.0,0.0,0.0,0.0,0.0,0.0,0.0,0.0,0.0,0.0,0.0,0.0,0.0,0.0,0.0,0.0,0.0,0.0,0.0,0.0,0.0,0.0,0.0,0.0,0.0,0.0,0.0,0.0,0.0,0.0,0.0,0.0,0.0,0.0,0.0,0.0,0.0,0.0,0.0,0.0,0.0,0.0,0.0,0.0,0.0,0.0,0.0,0.0,0.0,5.0607,5.0748,5.1122,4.8944,4.735,4.6696,0.0,0.0,0.0,0.0,0.0,0.0,0.0,0.0,0.0,0.0,0.0,0.0,0.0,0.0,0.0,0.0,0.0,0.0,0.0,0.0,0.0,0.0,0.0,0.0,0.0,0.0,0.0,0.0,0.0,0.0,0.0,0.0,0.0,0.0,0.0,0.0,0.0,0.0,0.0,0.0,0.0,0.0,0.0,0.0,0.0,0.0,0.0,0.0,0.0,0.0,0.0,0.0,0.0,0.0,0.0,0.0,0.0,0.0,0.0,0.0,0.0,0.0,0.0,0.0,0.0,0.0,0.0,0.0,0.0,0.0,0.0,0.0,0.0,0.0,0.0,0.0,0.0,0.0,0.0,0.0,0.0,0.0,0.0,0.0,0.0,0.0,0.0,0.0,0.0,0.0,0.0,0.0,0.0,0.0,0.0,0.0,0.0,0.0,0.0,0.0,0.0,0.0,0.0,0.0,0.0,0.0,0.0,0.0,0.0,5.0135,4.9589,4.9199,4.7829,4.6737,0.0,0.0,0.0,0.0,0.0,0.0,0.0,0.0,0.0,0.0,0.0,0.0,0.0,0.0,0.0,0.0,0.0,0.0,0.0,0.0,0.0,0.0,0.0,0.0,0.0,0.0,0.0,0.0,0.0,0.0,0.0,0.0,0.0,0.0,0.0,0.0,0.0,0.0,0.0,0.0,0.0,0.0,0.0,0.0,0.0,0.0,0.0,0.0,0.0,0.0,0.0,0.0,0.0,0.0,0.0,0.0,0.0,0.0,0.0,0.0,0.0,0.0,0.0,0.0,0.0,0.0,0.0,0.0,0.0,0.0,0.0,0.0,0.0,0.0,0.0,0.0,0.0,0.0,0.0,0.0,0.0,0.0,0.0,0.0,0.0,0.0,0.0,0.0,0.0,0.0,0.0,0.0,0.0,0.0,0.0,0.0,0.0,0.0,0.0,0.0,0.0,0.0,0.0,0.0,0.0,0.0,0.0,0.0,0.0,5.0829,5.1352,5.0859,4.9262,4.8378,4.7277,0.0,0.0,0.0,0.0,0.0,0.0,0.0,0.0,0.0,0.0,0.0,0.0,0.0,0.0,0.0,0.0,0.0,0.0,0.0,0.0,0.0,0.0,0.0,0.0,0.0,0.0,0.0,0.0,0.0,0.0,0.0,0.0,0.0,0.0,0.0,0.0,0.0,0.0,0.0,0.0,0.0,0.0,0.0,0.0,0.0,0.0,0.0,0.0,0.0,0.0,0.0,0.0,0.0,0.0,0.0,0.0,0.0,0.0,0.0,0.0,0.0,0.0,0.0,0.0,0.0,0.0,0.0,0.0,0.0,0.0,0.0,0.0,0.0,0.0,0.0,0.0,0.0,0.0,0.0,0.0,0.0,0.0,0.0,0.0,0.0,0.0,0.0,0.0,0.0,0.0,0.0,0.0,0.0,0.0,0.0,0.0,0.0,0.0,0.0,0.0,0.0,0.0,0.0,0.0,0.0,0.0,0.0,0.0,0.0,5.0243,0.0,5.1257,0.0,4.8631,4.7679,0.0,0.0,0.0,0.0,0.0,0.0,0.0,0.0,0.0,0.0,0.0,0.0,0.0,0.0,0.0,0.0,0.0,0.0,0.0,0.0,0.0,0.0,0.0,0.0,0.0,0.0,0.0,0.0,0.0,0.0,0.0,0.0,0.0,0.0,0.0,0.0,0.0,0.0,0.0,0.0,0.0,0.0,0.0,0.0,0.0,0.0,0.0,0.0,0.0,0.0,0.0,0.0,0.0,0.0,0.0,0.0,0.0,0.0,0.0,0.0,0.0,0.0,0.0,0.0,0.0,0.0,0.0,0.0,0.0,0.0,0.0,0.0,0.0,0.0,0.0,0.0,0.0,0.0,0.0,0.0,0.0,0.0,0.0,0.0,0.0,0.0,0.0,0.0,0.0,0.0,0.0,0.0,0.0,0.0,0.0,0.0,0.0,0.0,0.0,0.0,0.0,0.0,0.0,0.0,0.0,0.0,0.0,0.0,4.8527,4.8898,5.0736,5.07,4.8363,4.8587,4.7813,0.0,0.0,0.0,0.0,0.0,0.0,0.0,0.0,0.0,0.0,0.0,0.0,0.0,0.0,0.0,0.0,0.0,0.0,0.0,0.0,0.0,0.0,0.0,0.0,0.0,0.0,0.0,0.0,0.0,0.0,0.0,0.0,0.0,0.0,0.0,0.0,0.0,0.0,0.0,0.0,0.0,0.0,0.0,0.0,0.0,0.0,0.0,0.0,0.0,0.0,0.0,0.0,0.0,0.0,0.0,0.0,0.0,0.0,0.0,0.0,0.0,0.0,0.0,0.0,0.0,0.0,0.0,0.0,0.0,0.0,0.0,0.0,0.0,0.0,0.0,0.0,0.0,0.0,0.0,0.0,0.0,0.0,0.0,0.0,0.0,0.0,0.0,0.0,0.0,0.0,0.0,0.0,0.0,0.0,0.0,0.0,0.0,0.0,0.0,0.0,0.0,0.0,0.0,0.0,0.0,0.0,0.0,0.0,0.0,5.0477,5.2308,5.2502,5.0778,5.0428,4.9129,0.0,0.0,0.0,0.0,0.0,0.0,0.0,0.0,0.0,0.0,0.0,0.0,0.0,0.0,0.0,0.0,0.0,0.0,0.0,0.0,0.0,0.0,0.0,0.0,0.0,0.0,0.0,0.0,0.0,0.0,0.0,0.0,0.0,0.0,0.0,0.0,0.0,0.0,0.0,0.0,0.0,0.0,0.0,0.0,0.0,0.0,0.0,0.0,0.0,0.0,0.0,0.0,0.0,0.0,0.0,0.0,0.0,0.0,0.0,0.0,0.0,0.0,0.0,0.0,0.0,0.0,0.0,0.0,0.0,0.0,0.0,0.0,0.0,0.0,0.0,0.0,0.0,0.0,0.0,0.0,0.0,0.0,0.0,0.0,0.0,0.0,0.0,0.0,0.0,0.0,0.0,0.0,0.0,0.0,0.0,0.0,0.0,0.0,0.0,0.0,0.0,0.0,0.0,0.0,0.0,0.0,0.0,0.0,0.0,5.3667,5.4837,5.4528,5.2736,5.2133,5.0786,4.8564,0.0,0.0,0.0,0.0,0.0,0.0,0.0,0.0,0.0,0.0,0.0,0.0,0.0,0.0,0.0,0.0,0.0,0.0,0.0,0.0,0.0,0.0,0.0,0.0,0.0,0.0,0.0,0.0,0.0,0.0,0.0,0.0,0.0,0.0,0.0,0.0,0.0,0.0,0.0,0.0,0.0,0.0,0.0,0.0,0.0,0.0,0.0,0.0,0.0,0.0,0.0,0.0,0.0,0.0,0.0,0.0,0.0,0.0,0.0,0.0,0.0,0.0,0.0,0.0,0.0,0.0,0.0,0.0,0.0,0.0,0.0,0.0,0.0,0.0,0.0,0.0,0.0,0.0,0.0,0.0,0.0,0.0,0.0,0.0,0.0,0.0,0.0,0.0,0.0,0.0,0.0,0.0,0.0,0.0,0.0,0.0,0.0,0.0,0.0,0.0,0.0,0.0,0.0,0.0,0.0,0.0,0.0,0.0,5.7929,5.8048,5.6949,5.4649,5.3862,5.2663,0.0,0.0,0.0,0.0,0.0,0.0,0.0,0.0,0.0,0.0,0.0,0.0,0.0,0.0,0.0,0.0,0.0,0.0,0.0,0.0,0.0,0.0,0.0,0.0,0.0,0.0,0.0,0.0,0.0,0.0,0.0,0.0,0.0,0.0,0.0,0.0,0.0,0.0,0.0,0.0,0.0,0.0,0.0,0.0,0.0,0.0,0.0,0.0,0.0,0.0,0.0,0.0,0.0,0.0,0.0,0.0,0.0,0.0,0.0,0.0,0.0,0.0,0.0,0.0,0.0,0.0,0.0,0.0,0.0,0.0,0.0,0.0,0.0,0.0,0.0,0.0,0.0,0.0,0.0,0.0,0.0,0.0,0.0,0.0,0.0,0.0,0.0,0.0,0.0,0.0,0.0,0.0,0.0,0.0,0.0,0.0,0.0,0.0,0.0,0.0,0.0,0.0,0.0,0.0,0.0,0.0,0.0,0.0,0.0,5.8008,6.1645,6.1945,5.8535,5.671,5.4505,0.0,0.0,0.0,0.0,0.0,0.0,0.0,0.0,0.0,0.0,0.0,0.0,0.0,0.0,0.0,0.0,0.0,0.0,0.0,0.0,0.0,0.0,0.0,0.0,0.0,0.0,0.0,0.0,0.0,0.0,0.0,0.0,0.0,0.0,0.0,0.0,0.0,0.0,0.0,0.0,0.0,0.0,0.0,0.0,0.0,0.0,0.0,0.0,0.0,0.0,0.0,0.0,0.0,0.0,0.0,0.0,0.0,0.0,0.0,0.0,0.0,0.0,0.0,0.0,0.0,0.0,0.0,0.0,0.0,0.0,0.0,0.0,0.0,0.0,0.0,0.0,0.0,0.0,0.0,0.0,0.0,0.0,0.0,0.0,0.0,0.0,0.0,0.0,0.0,0.0,0.0,0.0,0.0,0.0,0.0,0.0,0.0,0.0,0.0,0.0,0.0,0.0,0.0,0.0,0.0,0.0,0.0,0.0,5.7237,6.0499,6.4261,6.515,6.2957,5.9906,5.6758,0.0,0.0,0.0,0.0,0.0,0.0,0.0,0.0,0.0,0.0,0.0,0.0,0.0,0.0,0.0,0.0,0.0,0.0,0.0,0.0,0.0,0.0,0.0,0.0,0.0,0.0,0.0,0.0,0.0,0.0,0.0,0.0,0.0,0.0,0.0,0.0,0.0,0.0,0.0,0.0,0.0,0.0,0.0,0.0,0.0,0.0,0.0,0.0,0.0,0.0,0.0,0.0,0.0,0.0,0.0,0.0,0.0,0.0,0.0,0.0,0.0,0.0,0.0,0.0,0.0,0.0,0.0,0.0,0.0,0.0,0.0,0.0,0.0,0.0,0.0,0.0,0.0,0.0,0.0,0.0,0.0,0.0,0.0,0.0,0.0,0.0,0.0,0.0,0.0,0.0,0.0,0.0,0.0,0.0,0.0,0.0,0.0,0.0,0.0,0.0,0.0,0.0,0.0,0.0,0.0,0.0,0.0,0.0,5.8706,6.3999,6.6024,6.7019,6.6937,6.296,5.9145,0.0,0.0,0.0,0.0,0.0,0.0,0.0,0.0,0.0,0.0,0.0,0.0,0.0,0.0,0.0,0.0,0.0,0.0,0.0,0.0,0.0,0.0,0.0,0.0,0.0,0.0,0.0,0.0,0.0,0.0,0.0,0.0,0.0,0.0,0.0,0.0,0.0,0.0,0.0,0.0,0.0,0.0,0.0,0.0,0.0,0.0,0.0,0.0,0.0,0.0,0.0,0.0,0.0,0.0,0.0,0.0,0.0,0.0,0.0,0.0,0.0,0.0,0.0,0.0,0.0,0.0,0.0,0.0,0.0,0.0,0.0,0.0,0.0,0.0,0.0,0.0,0.0,0.0,0.0,0.0,0.0,0.0,0.0,0.0,0.0,0.0,0.0,0.0,0.0,0.0,0.0,0.0,0.0,0.0,0.0,0.0,0.0,0.0,0.0,0.0,0.0,0.0,0.0,0.0,0.0,0.0,0.0,0.0,6.0896,6.4035,6.654,6.7535,6.687,6.3816,6.0639,0.0,0.0,0.0,0.0,0.0,0.0,0.0,0.0,0.0,0.0,0.0,0.0,0.0,0.0,0.0,0.0,0.0,0.0,0.0,0.0,0.0,0.0,0.0,0.0,0.0,0.0,0.0,0.0,0.0,0.0,0.0,0.0,0.0,0.0,0.0,0.0,0.0,0.0,0.0,0.0,0.0,0.0,0.0,0.0,0.0,0.0,0.0,0.0,4.9358,0.0,0.0,0.0,0.0,0.0,0.0,0.0,0.0,0.0,0.0,0.0,0.0,0.0,0.0,0.0,0.0,0.0,0.0,0.0,0.0,0.0,0.0,0.0,0.0,0.0,0.0,0.0,0.0,0.0,0.0,0.0,0.0,0.0,0.0,0.0,0.0,0.0,0.0,0.0,0.0,0.0,0.0,0.0,0.0,0.0,0.0,0.0,0.0,0.0,0.0,0.0,0.0,0.0,0.0,0.0,0.0,0.0,0.0,0.0,6.2548,6.5681,6.725,6.8158,6.8316,6.5896,6.271,0.0,0.0,0.0,0.0,0.0,0.0,0.0,0.0,0.0,0.0,0.0,0.0,0.0,0.0,0.0,0.0,0.0,0.0,0.0,0.0,0.0,0.0,0.0,0.0,0.0,0.0,0.0,0.0,0.0,0.0,0.0,0.0,0.0,0.0,0.0,0.0,0.0,0.0,0.0,0.0,0.0,0.0,0.0,0.0,0.0,0.0,0.0,0.0,0.0,0.0,0.0,0.0,0.0,0.0,0.0,0.0,0.0,0.0,0.0,0.0,0.0,0.0,0.0,0.0,0.0,0.0,0.0,0.0,0.0,0.0,0.0,0.0,0.0,0.0,0.0,0.0,0.0,0.0,0.0,0.0,0.0,0.0,0.0,0.0,0.0,0.0,0.0,0.0,0.0,0.0,0.0,0.0,0.0,0.0,0.0,0.0,0.0,0.0,0.0,0.0,0.0,0.0,0.0,0.0,0.0,0.0,0.0,6.0976,6.4133,6.77,6.8024,6.8777,7.0185,6.7562,6.4187,6.0111,0.0,0.0,0.0,0.0,0.0,0.0,0.0,0.0,0.0,0.0,0.0,0.0,0.0,0.0,0.0,0.0,0.0,0.0,0.0,0.0,0.0,0.0,0.0,0.0,0.0,0.0,0.0,0.0,0.0,0.0,0.0,0.0,0.0,0.0,0.0,0.0,0.0,0.0,4.8735,5.0279,0.0,0.0,0.0,0.0,0.0,0.0,0.0,0.0,5.0351,0.0,0.0,0.0,0.0,0.0,0.0,0.0,0.0,0.0,0.0,0.0,0.0,0.0,0.0,0.0,0.0,0.0,0.0,0.0,0.0,0.0,0.0,0.0,0.0,0.0,0.0,0.0,0.0,0.0,0.0,0.0,0.0,0.0,0.0,0.0,0.0,0.0,0.0,0.0,0.0,0.0,0.0,0.0,0.0,0.0,0.0,0.0,0.0,0.0,0.0,0.0,0.0,0.0,0.0,0.0,0.0,5.9973,6.3759,6.6659,6.8641,6.8813,6.9275,6.9975,6.589,6.2867,6.1256,0.0,0.0,0.0,0.0,0.0,0.0,0.0,0.0,0.0,0.0,0.0,0.0,0.0,0.0,0.0,0.0,0.0,0.0,0.0,0.0,0.0,0.0,0.0,0.0,0.0,0.0,0.0,0.0,0.0,0.0,0.0,0.0,0.0,0.0,0.0,0.0,0.0,0.0,0.0,5.3241,5.3936,0.0,0.0,0.0,0.0,0.0,0.0,0.0,0.0,5.1216,0.0,0.0,0.0,0.0,0.0,0.0,0.0,0.0,0.0,0.0,0.0,0.0,0.0,0.0,0.0,0.0,0.0,0.0,0.0,0.0,0.0,0.0,0.0,0.0,0.0,0.0,0.0,0.0,0.0,0.0,0.0,0.0,0.0,0.0,0.0,0.0,0.0,0.0,0.0,0.0,0.0,0.0,0.0,0.0,0.0,0.0,0.0,0.0,0.0,0.0,0.0,0.0,0.0,0.0,0.0,6.1551,6.5264,6.7914,6.9449,6.918,6.915,6.9376,6.5206,6.2089,0.0,0.0,0.0,0.0,0.0,0.0,0.0,0.0,0.0,0.0,0.0,0.0,0.0,0.0,0.0,0.0,0.0,0.0,0.0,0.0,0.0,0.0,0.0,0.0,0.0,0.0,0.0,0.0,0.0,0.0,0.0,0.0,0.0,0.0,0.0,0.0,0.0,0.0,0.0,0.0,5.4705,5.5785,5.5785,0.0,0.0,0.0,0.0,0.0,0.0,5.2757,5.2227,0.0,0.0,0.0,0.0,0.0,0.0,0.0,0.0,0.0,0.0,0.0,0.0,0.0,0.0,0.0,0.0,0.0,0.0,0.0,0.0,0.0,0.0,0.0,0.0,0.0,0.0,0.0,0.0,0.0,0.0,0.0,0.0,0.0,0.0,0.0,0.0,0.0,0.0,0.0,0.0,0.0,0.0,0.0,0.0,0.0,0.0,0.0,0.0,0.0,0.0,0.0,0.0,0.0,0.0,0.0,6.2683,6.6372,6.8795,7.0007,6.9626,6.9295,6.9082,6.5178,6.1912,0.0,0.0,0.0,0.0,0.0,0.0,0.0,0.0,0.0,0.0,0.0,0.0,0.0,0.0,0.0,0.0,0.0,0.0,0.0,0.0,0.0,0.0,0.0,0.0,0.0,0.0,0.0,0.0,0.0,0.0,0.0,0.0,0.0,0.0,0.0,0.0,0.0,0.0,0.0,0.0,0.0,5.7731,5.7747,5.5728,0.0,0.0,0.0,0.0,5.4222,5.4154,0.0,0.0,0.0,0.0,0.0,0.0,0.0,0.0,0.0,0.0,0.0,0.0,0.0,0.0,0.0,0.0,0.0,0.0,0.0,0.0,0.0,0.0,0.0,0.0,0.0,0.0,0.0,0.0,0.0,0.0,0.0,0.0,0.0,0.0,0.0,0.0,0.0,0.0,0.0,0.0,0.0,0.0,0.0,0.0,0.0,0.0,0.0,0.0,0.0,0.0,0.0,0.0,0.0,0.0,0.0,0.0,6.2762,6.743,6.9933,7.0117,7.0683,7.0683,6.9933,6.6042,6.2768,0.0,0.0,0.0,0.0,0.0,0.0,0.0,0.0,0.0,0.0,0.0,0.0,0.0,0.0,0.0,0.0,0.0,0.0,0.0,0.0,0.0,0.0,0.0,0.0,0.0,0.0,0.0,0.0,0.0,0.0,0.0,0.0,0.0,0.0,0.0,0.0,0.0,0.0,0.0,0.0,0.0,6.0316,6.0352,5.8762,5.7834,0.0,0.0,5.6885,5.8348,5.788,0.0,0.0,0.0,0.0,0.0,0.0,0.0,0.0,0.0,0.0,0.0,0.0,0.0,0.0,0.0,0.0,0.0,0.0,0.0,0.0,0.0,0.0,0.0,0.0,0.0,0.0,0.0,0.0,0.0,0.0,0.0,0.0,0.0,0.0,0.0,0.0,0.0,0.0,0.0,0.0,0.0,0.0,0.0,0.0,0.0,0.0,0.0,0.0,0.0,0.0,0.0,0.0,0.0,0.0,0.0,5.796,6.2756,6.7614,7.011,7.0117,7.0866,7.072,6.9449,6.5968,6.2695,0.0,0.0,0.0,0.0,0.0,0.0,0.0,0.0,0.0,0.0,0.0,0.0,0.0,0.0,0.0,0.0,0.0,0.0,0.0,0.0,0.0,0.0,0.0,0.0,0.0,0.0,0.0,0.0,0.0,0.0,0.0,0.0,0.0,0.0,0.0,0.0,0.0,0.0,0.0,0.0,0.0,0.0,6.1287,6.0359,0.0,0.0,0.0,5.9297,6.0428,0.0,0.0,0.0,0.0,0.0,0.0,0.0,0.0,0.0,0.0,0.0,0.0,0.0,0.0,0.0,0.0,0.0,0.0,0.0,0.0,0.0,0.0,0.0,0.0,0.0,0.0,0.0,0.0,0.0,0.0,0.0,0.0,0.0,0.0,0.0,0.0,0.0,0.0,0.0,0.0,0.0,0.0,0.0,0.0,0.0,0.0,0.0,0.0,0.0,0.0,0.0,0.0,0.0,0.0,0.0,0.0,0.0,6.3092,6.7724,7.0183,7.044,7.116,7.094,6.9516,6.6586,0.0,0.0,0.0,0.0,0.0,0.0,0.0,0.0,0.0,0.0,0.0,0.0,0.0,0.0,0.0,0.0,0.0,0.0,0.0,0.0,0.0,0.0,0.0,0.0,0.0,0.0,0.0,4.1261,0.0,0.0,0.0,0.0,0.0,0.0,0.0,0.0,0.0,0.0,0.0,0.0,0.0,0.0,6.1866,6.2655,6.2477,6.2415,0.0,0.0,6.2011,6.2753,6.3807,6.3457,0.0,0.0,0.0,0.0,0.0,0.0,0.0,0.0,0.0,0.0,0.0,0.0,0.0,0.0,0.0,0.0,0.0,0.0,0.0,0.0,0.0,0.0,0.0,0.0,0.0,0.0,0.0,0.0,0.0,0.0,0.0,0.0,0.0,0.0,0.0,0.0,0.0,0.0,0.0,0.0,0.0,0.0,0.0,0.0,0.0,0.0,0.0,0.0,0.0,0.0,0.0,0.0,0.0,0.0,0.0,6.3919,6.8017,7.0477,7.119,7.2011,7.2004,7.1123,6.8752,6.5888,0.0,0.0,0.0,0.0,0.0,0.0,0.0,0.0,0.0,0.0,0.0,0.0,0.0,0.0,0.0,0.0,0.0,0.0,0.0,0.0,0.0,0.0,0.0,0.0,0.0,0.0,0.0,0.0,0.0,0.0,0.0,0.0,0.0,0.0,0.0,0.0,0.0,0.0,0.0,0.0,0.0,6.4287,6.5207,6.5917,6.6405,0.0,6.5705,6.5443,6.6224,6.5757,6.4428,6.1867,0.0,0.0,0.0,0.0,0.0,0.0,0.0,0.0,0.0,0.0,0.0,0.0,0.0,0.0,0.0,0.0,0.0,0.0,0.0,0.0,0.0,0.0,0.0,0.0,0.0,0.0,0.0,0.0,0.0,0.0,0.0,0.0,0.0,0.0,0.0,0.0,0.0,0.0,0.0,0.0,0.0,0.0,0.0,0.0,0.0,0.0,0.0,0.0,0.0,0.0,0.0,0.0,0.0,5.9134,6.4787,6.8781,7.0984,7.1314,7.2085,7.2121,7.1307,6.9889,6.7437,0.0,0.0,0.0,0.0,0.0,0.0,0.0,0.0,0.0,0.0,0.0,0.0,0.0,0.0,0.0,0.0,0.0,0.0,0.0,0.0,0.0,0.0,0.0,0.0,0.0,0.0,0.0,0.0,4.4052,4.4024,4.5197,0.0,0.0,0.0,0.0,0.0,0.0,0.0,0.0,0.0,0.0,6.5503,6.6846,6.7795,0.0,0.0,6.8766,6.8503,6.8253,6.7977,6.6522,6.2964,5.9643,0.0,0.0,0.0,0.0,0.0,0.0,0.0,0.0,0.0,0.0,0.0,0.0,0.0,0.0,0.0,0.0,0.0,0.0,0.0,0.0,0.0,0.0,0.0,0.0,0.0,0.0,0.0,0.0,0.0,0.0,0.0,0.0,0.0,0.0,0.0,0.0,0.0,0.0,0.0,0.0,0.0,0.0,0.0,0.0,0.0,0.0,0.0,0.0,0.0,0.0,0.0,0.0,5.9716,6.5588,6.9619,7.1784,7.2011,7.2819,7.2819,7.2048,7.1248,6.8935,0.0,0.0,0.0,0.0,0.0,0.0,0.0,0.0,0.0,0.0,0.0,0.0,0.0,0.0,0.0,0.0,0.0,0.0,0.0,0.0,0.0,0.0,0.0,0.0,0.0,0.0,0.0,0.0,4.5272,4.489,4.5244,0.0,0.0,0.0,0.0,0.0,0.0,0.0,0.0,0.0,0.0,6.6338,6.7718,6.9121,7.0119,7.0381,7.0646,7.0475,6.9357,6.8776,6.7247,6.3847,0.0,0.0,0.0,0.0,0.0,0.0,0.0,0.0,0.0,0.0,0.0,0.0,0.0,0.0,0.0,0.0,0.0,0.0,0.0,0.0,0.0,0.0,0.0,0.0,0.0,0.0,0.0,4.8301,0.0,0.0,4.8186,0.0,0.0,0.0,0.0,0.0,0.0,0.0,0.0,0.0,0.0,0.0,0.0,0.0,0.0,0.0,0.0,0.0,0.0,0.0,0.0,0.0,0.0,6.0009,6.6409,7.044,7.2855,7.3604,7.4434,7.4441,7.3641,7.2863,7.0513,6.6439,0.0,0.0,0.0,0.0,0.0,0.0,0.0,0.0,0.0,0.0,0.0,0.0,0.0,0.0,0.0,0.0,0.0,0.0,0.0,0.0,0.0,0.0,0.0,0.0,0.0,0.0,4.7466,4.6953,4.6118,0.0,0.0,0.0,0.0,0.0,0.0,0.0,0.0,0.0,5.9922,6.4003,6.698,6.7825,7.0041,7.1344,7.0568,7.1149,7.1115,6.9464,6.7855,6.6178,0.0,0.0,0.0,0.0,0.0,0.0,0.0,0.0,0.0,0.0,0.0,0.0,0.0,0.0,0.0,0.0,0.0,0.0,0.0,0.0,0.0,0.0,0.0,0.0,0.0,0.0,0.0,5.2596,5.2064,0.0,0.0,0.0,0.0,0.0,0.0,0.0,0.0,0.0,0.0,0.0,6.0866,6.1667,0.0,0.0,0.0,0.0,0.0,0.0,0.0,0.0,0.0,0.0,0.0,0.0,6.0786,6.7143,7.1255,7.3421,7.3714,7.447,7.4764,7.4507,7.3186,6.9596,6.3435,0.0,0.0,0.0,0.0,0.0,0.0,0.0,0.0,0.0,0.0,0.0,0.0,0.0,0.0,0.0,0.0,0.0,0.0,0.0,0.0,0.0,0.0,0.0,0.0,0.0,4.6597,0.0,0.0,0.0,0.0,0.0,0.0,0.0,0.0,0.0,0.0,0.0,5.8911,6.1707,6.5184,6.8012,6.9383,7.1264,7.2444,0.0,0.0,0.0,0.0,0.0,0.0,0.0,0.0,0.0,0.0,0.0,0.0,0.0,0.0,6.5126,6.2915,6.2529,6.2341,6.1847,0.0,0.0,0.0,0.0,0.0,0.0,0.0,0.0,0.0,0.0,0.0,0.0,0.0,0.0,5.6004,5.5183,5.4206,0.0,0.0,0.0,0.0,0.0,0.0,0.0,0.0,6.3967,6.5632,6.6232,6.7277,6.7637,0.0,6.7674,6.4494,0.0,0.0,0.0,0.0,0.0,0.0,0.0,0.0,6.1741,6.759,7.1915,7.4111,7.4184,7.516,7.5601,7.5278,7.3223,6.9302,6.3503,5.9697,5.5579,0.0,0.0,0.0,0.0,0.0,0.0,0.0,0.0,0.0,0.0,0.0,0.0,0.0,0.0,0.0,0.0,0.0,0.0,0.0,0.0,0.0,0.0,0.0,4.7768,0.0,0.0,0.0,0.0,0.0,0.0,0.0,0.0,0.0,5.5899,5.8491,6.1245,6.3461,6.6407,6.8856,7.022,0.0,0.0,0.0,0.0,0.0,0.0,0.0,6.7587,6.7591,6.763,6.7848,6.8411,6.926,7.0063,7.0854,0.0,0.0,6.8699,6.805,6.7786,6.695,6.6984,6.6751,6.5379,6.5761,6.6292,0.0,0.0,0.0,0.0,0.0,0.0,0.0,0.0,5.9822,5.8766,0.0,5.6284,0.0,0.0,0.0,0.0,5.5983,5.9134,0.0,0.0,6.8281,7.0183,7.03,7.1762,7.2121,7.149,7.2085,7.0807,6.7547,6.2169,0.0,0.0,0.0,0.0,0.0,0.0,6.2842,6.7664,7.2452,7.4911,7.4903,7.6445,7.6885,7.5983,7.3032,6.9919,6.6703,6.3472,5.9911,5.5946,5.3492,0.0,0.0,0.0,0.0,0.0,0.0,0.0,0.0,0.0,0.0,0.0,0.0,0.0,0.0,0.0,0.0,0.0,0.0,0.0,0.0,4.9956,0.0,0.0,0.0,0.0,0.0,0.0,0.0,0.0,0.0,0.0,5.9474,6.1547,6.3648,6.5299,0.0,0.0,0.0,0.0,7.3093,7.3098,7.3098,7.2792,7.1917,7.0423,6.9926,7.1535,0.0,0.0,7.4083,7.5085,7.5318,7.4579,7.573,7.6074,7.3594,7.2979,7.2639,7.1879,7.103,7.0835,7.1455,7.0843,7.0686,6.5858,0.0,0.0,0.0,0.0,6.3727,6.5076,6.6011,6.5576,6.4923,6.4023,6.1977,0.0,0.0,0.0,0.0,0.0,0.0,6.5521,6.8421,7.0734,7.2092,7.2723,7.3736,7.4096,7.3883,7.3516,7.2606,7.1027,6.7754,6.3606,5.8694,0.0,0.0,0.0,0.0,6.3399,6.77,7.2459,7.4903,7.4903,7.6481,7.6628,7.5278,7.3817,7.1762,6.9155,6.6519,6.3472,6.0021,5.7604,0.0,0.0,0.0,0.0,0.0,0.0,0.0,0.0,0.0,0.0,0.0,0.0,0.0,0.0,0.0,0.0,0.0,0.0,0.0,5.1731,5.3088,5.3239,0.0,0.0,0.0,0.0,0.0,0.0,0.0,0.0,0.0,6.5149,6.5982,6.6869,0.0,0.0,7.2176,7.3013,7.4087,7.4779,7.4783,7.4783,0.0,7.3628,7.3089,7.3132,7.4248,7.5896,7.7458,7.8519,7.8901,7.8982,7.871,7.9054,7.8982,7.7721,7.5968,7.4783,7.4401,7.3705,7.3204,7.3395,7.3743,7.3934,7.0646,6.7497,6.694,6.6776,6.7148,6.8879,7.0263,7.1241,7.0617,6.9893,6.8995,6.6714,6.4657,6.2828,6.2225,0.0,0.0,0.0,6.8892,7.1138,7.3046,7.4184,7.4705,7.5491,7.5682,7.5344,7.4882,7.4258,7.3406,7.2011,6.9222,6.5111,0.0,0.0,6.1153,6.2732,6.5381,6.9125,7.2929,7.5058,7.5388,7.6628,7.6555,7.4977,7.4434,7.3046,7.066,6.8862,6.6733,6.4103,6.1374,5.8572,0.0,0.0,0.0,0.0,0.0,0.0,0.0,0.0,0.0,0.0,0.0,4.587,4.6351,0.0,0.0,0.0,5.049,5.2453,5.4687,5.5968,0.0,0.0,0.0,0.0,0.0,0.0,0.0,6.3067,6.5189,6.724,6.9343,7.0353,7.0881,7.0724,7.2601,7.4282,7.508,0.0,7.6078,7.6422,7.6193,7.5925,7.5725,7.542,7.5615,7.6809,7.8528,7.9861,8.0396,8.0511,8.0511,8.0511,8.0511,8.0358,7.9866,7.8261,7.6885,7.6537,7.6074,7.5802,7.615,7.6379,7.6384,7.4182,7.3508,7.1926,7.1812,7.2774,7.3687,7.4927,7.6175,7.4782,7.3732,7.2834,7.0561,6.8806,6.7531,6.7042,0.0,6.8268,7.0456,7.1916,7.2863,7.5058,7.6159,7.624,7.6959,7.6922,7.6203,7.6056,7.5616,7.4911,7.4801,7.403,7.2378,6.6616,6.3973,6.461,6.6109,6.8378,7.1336,7.3766,7.5388,7.6166,7.6922,7.6555,7.505,7.5014,7.392,7.1711,7.08,6.9676,6.8104,6.5001,6.2163,5.9777,0.0,0.0,0.0,0.0,0.0,0.0,0.0,0.0,0.0,0.0,0.0,0.0,0.0,0.0,0.0,5.2936,0.0,5.8173,5.8747,0.0,0.0,0.0,5.6898,5.9269,6.0336,6.2433,6.6493,0.0,0.0,7.2263,7.4307,7.5067,7.3662,7.4894,7.6159,7.6919,7.7033,7.7296,7.8094,7.7564,7.7296,7.7984,7.7526,7.7568,7.8987,8.0014,8.0434,8.0472,8.0511,8.0511,8.0511,8.0511,8.0511,8.0511,7.9789,7.914,7.8324,7.8099,7.829,7.8834,7.86,7.8366,7.6446,7.7167,7.7168,7.546,7.2891,7.4863,7.5958,7.632,7.6529,7.6203,7.5334,7.3559,7.2003,7.0678,7.0048,7.0646,7.2168,7.2709,7.3772,7.5249,7.5836,7.6416,7.7032,7.7208,7.7179,7.6922,7.5755,7.5087,7.4874,7.4294,7.3487,7.2488,7.1541,7.03,6.8752,6.9662,7.0837,7.2195,7.4588,7.6195,7.6988,7.7215,7.6812,7.5828,7.5799,7.5278,7.4096,7.3266,7.2386,7.1358,6.8855,6.6359,6.393,5.9612,0.0,0.0,0.0,0.0,0.0,0.0,0.0,0.0,0.0,4.9779,5.1594,0.0,5.2821,0.0,5.6523,5.8588,5.9923,6.1832,0.0,0.0,6.1711,6.2288,6.4127,6.5062,6.6499,6.8941,7.0195,7.1681,7.3895,7.536,7.6536,7.7483,7.8588,7.9402,7.9594,7.9589,7.9665,7.978,7.9665,7.9665,7.978,7.9742,7.967,8.0167,8.0396,8.0511,8.0511,8.0511,8.0511,8.0511,8.0511,8.0511,8.0511,8.0315,8.0167,7.9895,7.9441,7.9025,7.9259,7.9594,7.978,7.6936,7.7625,7.8142,7.7007,7.5023,7.7433,7.8448,7.8448,7.8521,7.8303,7.7841,7.6694,7.5716,7.4986,7.4693,7.5103,7.6016,7.6131,7.67,7.7599,7.7714,7.7965,7.8398,7.8398,7.8031,7.7244,7.6041,7.5241,7.4911,7.4434,7.4184,7.414,7.4918,7.4617,7.3333,7.2709,7.2929,7.4111,7.5792,7.6848,7.7289,7.7318,7.6738,7.5608,7.5572,7.5021,7.3883,7.3413,7.2973,7.2459,7.0176,6.7974,6.5882,6.1887,5.7824,0.0,0.0,0.0,0.0,0.0,0.0,0.0,0.0,0.0,0.0,0.0,5.6523,5.8112,5.9826,6.1465,6.3082,6.5167,6.6262,6.5895,6.5884,6.6254,6.7183,6.8009,6.9194,7.0998,7.1882,7.3261,7.5585,7.6452,7.7475,7.9253,8.0082,8.0511,8.0511,8.0511,8.0511,8.0511,8.0511,8.0511,8.0511,8.0511,8.0511,8.0511,8.0511,8.0511,8.0511,8.0511,8.0511,8.0511,8.0511,8.0511,8.0511,8.0511,8.0511,8.0434,8.0128,7.9861,7.9861,8.02,8.032,7.6838,7.6975,7.7317,7.7591,7.7937,7.9914,8.0767,8.075,8.0144,7.9819,7.971,7.9099,7.8778,7.8703,7.8719,7.8702,7.8696,7.8776,7.889,7.9048,7.9309,7.9535,7.9661,7.9735,7.8964,7.7472,7.6526,7.5755,7.5058,7.4984,7.5315,7.6093,7.6922,7.7318,7.7208,7.5204,7.4845,7.624,7.6966,7.7318,7.7318,7.7208,7.6481,7.5124,7.4867,7.4103,7.2716,7.2452,7.2378,7.2415,7.022,6.8268,6.6806,6.3692,6.0205,0.0,5.5464,0.0,0.0,0.0,0.0,0.0,0.0,0.0,0.0,5.9049,6.0591,6.2114,6.2946,6.434,6.6579,6.8164,6.9045,6.9038,6.9045,6.9112,6.9339,7.0,7.1084,7.2805,7.3333,7.4553,7.6902,7.7357,7.8003,7.9565,8.0189,8.0454,8.0487,8.0497,8.0511,8.0511,8.0511,8.0511,8.0511,8.0511,8.0511,8.0511,8.0511,8.0511,8.0511,8.0511,8.0511,8.0511,8.0511,8.0511,8.0511,8.0511,8.0511,8.0511,8.0472,8.0434,8.0434,8.0472,8.0511,7.8264,7.8763,7.8478,7.8643,7.9109,7.8998,7.9,7.9181,7.9629,7.9486,7.8868,7.81,7.7485,7.7003,7.6551,7.6197,7.5848,7.5402,7.5679,7.664,7.7286,7.806,7.8846,7.9486,7.9294,7.8295,7.6827,7.6019,7.5865,7.5197,7.5315,7.6093,7.6885,7.7318,7.7289,0.0,0.0,0.0,7.7208,7.7318,7.7281,7.6673,7.6166,7.5873,7.4588,0.0,7.3457,7.2232,7.1821,7.2378,7.0176,0.0,0.0,0.0,0.0,0.0,0.0,0.0,0.0,0.0,0.0,0.0,6.3546,6.3503,6.1875,6.3166,6.4561,6.5491,6.6299,6.721,6.8348,6.9309,6.9853,6.9889,6.9889,7.0367,7.1615,7.1982,7.2737,7.4395,7.4809,7.5472,7.6961,7.7523,7.8183,7.9467,8.0013,8.0285,8.0449,8.0492,8.0506,8.0511,8.0511,8.0511,8.0511,8.0511,8.0511,8.0511,8.0511,8.0511,8.0511,8.0511,8.0511,8.0511,8.0511,8.0511,8.0511,8.0511,8.0511,8.0511,8.0511,8.0511,8.0511,8.0511,8.0511,7.8586,7.8933,7.8466,7.8506,0.0,7.8113,7.7858,7.8019,7.8786,7.8887,7.8523,7.8124,7.7427,7.6522,7.6128,7.5513,7.4692,7.4357,7.4727,7.571,7.7074,7.818,7.9058,8.0392,8.0359,7.9147,7.7936,7.7084,7.6673,7.6298,7.6298,7.6702,7.7517,7.7729,7.7326,7.7318,7.7318,7.7318,7.7318,7.7318,7.7281,7.6885,7.6306,7.5498,7.4735,0.0,0.0,0.0,0.0,0.0,0.0,0.0,0.0,0.0,0.0,6.3533,6.3019,6.2469,6.1777,6.3472,6.4984,6.5828,6.737,6.757,6.5949,6.6953,6.8017,6.8818,6.9963,7.0814,7.1248,7.2018,7.2452,7.2496,7.2452,7.2826,7.3553,7.4037,7.4617,7.5389,7.5647,7.6124,7.7238,7.7703,7.842,7.9528,8.0575,8.1202,8.1289,8.0869,8.0511,8.0511,8.0511,8.0511,8.0511,8.0511,8.0511,8.0511,8.0511,8.0511,8.0511,8.0511,8.0511,8.0511,8.0511,8.0511,8.0511,8.0511,8.0511,8.0511,8.0511,8.0511,8.0511,8.0511,8.0511,7.8754,7.8913,7.8353,7.8244,7.8385,7.7652,7.7262,7.7181,7.7888,0.0,0.0,7.8178,7.7519,7.6328,7.6106,7.5319,7.4136,7.3991,7.4421,7.5268,7.7186,7.8524,7.9421,8.1203,8.131,7.9952,7.9137,7.8411,7.7729,7.7619,7.7546,7.7582,7.8259,7.8177,7.7355,7.7318,7.7318,7.7318,7.7318,7.7318,7.7281,7.7179,7.6445,7.5131,7.4837,7.4067,7.2753,7.2569,7.2569,7.2672,7.1931,7.1277,7.0741,6.9963,6.8935,6.7687,6.7577,6.7357,6.6836,6.8017,6.8795,6.8985,7.0183,7.055,6.9619,7.0146,7.0917,7.1857,7.3112,7.3891,7.3927,7.447,7.4903,7.4903,7.4903,7.4903,7.5094,7.5689,7.6056,7.6269,7.6321,7.6646,7.7496,7.8045,7.8684,7.9809,8.1132,8.2287,8.2325,8.1688,8.1122,8.1122,8.116,8.1007,8.0969,8.1046,8.0931,8.1084,8.1046,8.0926,8.0931,8.0931,8.0931,8.1084,8.0969,8.1007,8.0969,8.1046,8.0926,8.0931,8.0931,8.0931,8.0931,8.0931,8.0893,7.9958,7.9916,7.9229,7.8961,7.893,7.8196,7.753,7.6957,7.7262,7.7366,7.7377,7.7366,7.6775,7.5704,7.5334,7.4534,7.343,7.3128,7.349,7.4454,7.6271,7.766,7.8804,8.0574,8.115,8.0548,7.9759,7.9408,7.936,7.8772,7.8405,7.8442,7.8552,7.8185,7.7362,7.7318,7.7318,7.7318,7.7318,7.7318,7.7281,7.6628,7.6195,7.5909,7.4588,7.3788,7.3531,7.2863,7.2826,7.3457,7.2745,7.2606,7.3127,7.2422,7.1901,7.1688,7.1644,7.1908,7.2429,7.2723,7.3164,7.381,7.4103,7.359,7.2158,7.2085,7.2782,7.4213,7.4617,7.4727,7.4764,7.4903,7.5014,7.4977,7.494,7.5168,7.5873,7.613,7.6533,7.7113,7.7142,7.7293,7.7828,7.8587,7.9438,8.0227,8.1603,8.2389,8.2901,8.2774,8.265,8.2655,8.2655,8.2655,8.2459,8.2612,8.2502,8.2655,8.2536,8.2459,8.2421,8.2426,8.2464,8.2612,8.2459,8.2498,8.2536,8.2655,8.2502,8.2459,8.2459,8.2498,8.2464,8.2459,8.2115,8.0209,8.0107,7.9418,7.9114,7.9012,7.7874,7.721,7.6862,7.6512,7.6369,7.638,7.6369,7.5732,7.4627,7.4306,7.3522,7.2364,7.2532,7.3063,7.4024,7.6085,7.7464,7.8332,8.0359,8.1111,8.0714,8.0804,8.0837,8.0919,8.0678,8.0359,7.991,7.9478,7.9037,7.8699,7.8662,7.8662,7.8626,7.7766,7.7318,7.7318,7.6959,7.6533,7.6085,7.5359,7.4771,7.436,7.3993,7.3957,7.4331,7.4001,7.4001,7.4324,7.3986,7.381,7.381,7.381,7.3957,7.4331,7.4331,7.4507,7.4867,7.4903,7.4793,7.4478,7.4441,7.4764,7.5506,7.5931,7.6225,7.6188,7.6188,7.6188,7.6188,7.6592,7.7047,7.7414,7.7863,7.8266,7.8589,7.8662,7.8756,7.8956,7.9941,8.0762,8.1422,8.2653,8.3791,8.4258,8.4327,8.4026,8.3224,8.2999,8.2999,8.3037,8.2994,8.2994,8.2994,8.2994,8.2994,8.2994,8.3037,8.3037,8.2994,8.3033,8.2994,8.3033,8.2999,8.2994,8.2994,8.2994,8.2994,8.2994,8.2994,8.2689,8.0209,8.0141,7.9587,7.935,7.9215,7.7964,7.7299,7.7096,7.6499,7.6115,7.5946,7.5777,7.5117,7.4105,7.3952,7.3316,7.2444,7.2909,7.3466,7.411,7.6292,7.7421,7.7833,7.9828,8.0696,8.0584,8.1241,8.1587,8.1717,8.1885,8.159,8.0854,8.0095,7.9716,7.9753,7.9756,7.9756,7.9651,7.8453,7.7837,7.7876,7.7876,7.759,7.6974,7.6754,7.635,7.5792,7.5572,7.5454,7.5454,7.5454,7.5454,7.5417,7.5454,7.5454,7.5454,7.5454,7.5454,7.5454,7.5454,7.5454,7.5454,7.5645,7.6012,7.657,7.6827,7.6754,7.6526,7.6893,7.7244,7.7208,7.7244,7.7318,7.7355,7.8067,7.8442,7.8626,7.9331,7.9816,7.9816,7.9816,7.9814,8.0201,8.1074,8.1949,8.276,8.4045,8.5029,8.5365,8.5451,8.4865,8.4054,8.3567,8.3644,8.3572,8.3649,8.3644,8.3567,8.3606,8.372,8.372,8.3644,8.3611,8.3682,8.3644,8.372,8.3606,8.3644,8.3682,8.3759,8.3759,8.3682,8.372,8.372,8.3376,8.0209,8.0209,8.0107,8.0107,7.9972,7.9181,7.8483,7.7921,7.7819,7.7379,7.6758,7.6014,7.5467,7.4954,7.5094,7.4819,7.4333,7.5237,7.5381,7.5068,7.6656,7.735,7.724,7.8471,7.9336,7.985,8.0361,8.0848,8.1164,8.133,8.1112,8.0454,7.9816,7.9613,7.9592,7.9729,7.9737,7.9548,7.9357,7.9392,7.9543,7.9551,7.9551,7.9486,7.8707,7.8332,7.8112,7.7509,7.7061,7.7061,7.7024,7.7069,7.7032,7.7061,7.7069,7.7032,7.7061,7.7098,7.7061,7.7061,7.7024,7.7134,7.7729,7.8141,7.8288,7.8956,7.8772,7.764,7.7273,7.7428,7.7318,7.7399,7.7472,7.7582,7.8251,7.8589,7.8809,7.9339,7.9816,7.9816,8.0,7.9889,8.0389,8.1244,8.2336,8.3633,8.4291,8.4856,8.516,8.533,8.5401,8.5209,8.5239,8.5162,8.5129,8.5244,8.5053,8.5124,8.5201,8.5091,8.4976,8.5053,8.5239,8.4785,8.5053,8.501,8.5086,8.5282,8.5167,8.49,8.4976,8.5167,8.5239,8.5124,8.4632,8.0209,8.0209,8.0209,8.0209,8.0107,7.9418,7.8945,7.8619,7.8179,7.7819,7.7548,7.721,7.6966,7.6767,7.6853,7.6778,7.6635,7.7444,7.7684,7.7446,7.8132,7.8197,7.7892,7.8674,7.911,7.922,8.0146,8.0843,8.1172,8.1477,8.167,8.1718,8.1108,8.0798,8.0889,8.0873,8.0873,8.0898,8.0798,8.0781,8.0747,8.004,7.9628,7.9591,7.943,7.9074,7.8633,7.8259,7.7847,7.7355,7.7318,7.7318,7.7318,7.7318,7.7318,7.7318,7.7318,7.7318,7.7318,7.7318,7.7318,7.7318,7.801,7.8432,7.8432,7.904,7.9113,7.8617,7.8639,7.8772,7.8765,7.8772,7.8772,7.8883,7.9543,7.9976,8.0049,8.0726,8.1203,8.1248,8.1203,8.1291,8.1559,8.2171,8.2992,8.3865,8.4237,8.4526,8.4835,8.5078,8.525,8.5451,8.5506,8.5506,8.5506,8.5506,8.5506,8.5506,8.5506,8.5506,8.5506,8.5506,8.5506,8.5506,8.5506,8.5506,8.543,8.5506,8.5506,8.5506,8.5506,8.5506,8.5506,8.5506,8.5091,8.031,8.0458,8.0323,8.0209,8.0141,7.9418,7.9114,7.9046,7.8517,7.8293,7.8314,7.8496,7.8597,7.8563,7.8225,7.8022,7.809,7.8754,7.8978,7.8843,7.8978,7.8822,7.8414,7.886,7.9005,7.8933,7.9725,8.0482,8.0918,8.1136,8.1652,8.2259,8.1772,8.1564,8.1726,8.1658,8.1658,8.1726,8.1607,8.1529,8.1321,8.0518,8.0076,8.0137,8.0076,7.9797,7.9286,7.9074,7.8662,7.8023,7.7986,7.7994,7.7994,7.7994,7.7994,7.7994,7.7986,7.7994,7.7986,7.7994,7.7971,7.7953,7.8575,7.8926,7.9007,7.9485,7.9848,7.9873,8.0133,8.017,7.9665,7.9628,7.962,7.9701,8.0353,8.0837,8.0886,8.1636,8.21,8.2178,8.2039,8.2276,8.2487,8.2838,8.3264,8.36,8.3843,8.4091,8.444,8.4679,8.4935,8.5238,8.5285,8.538,8.5471,8.5506,8.5506,8.5506,8.5506,8.5506,8.5506,8.5506,8.5506,8.5506,8.5506,8.5506,8.5506,8.5506,8.5496,8.5506,8.5506,8.5506,8.5506,8.5506,8.5506,8.0627,8.1135,8.0479,8.0276,8.0175,7.952,7.9181,7.935,7.9147,7.908,7.9249,7.9803,8.0107,8.004,7.8834,7.8056,7.8157,7.8822,7.8809,7.836,7.8809,7.881,7.8344,7.8596,7.8846,7.899,7.8959,7.935,8.0102,8.0012,8.0472,8.1624,8.1418,8.128,8.1536,8.1712,8.1574,8.1616,8.1528,8.1359,8.1209,8.125,8.1364,8.1534,8.1052,8.0679,8.0706,8.0131,7.9698,7.9653,7.9564,7.9572,7.9617,7.9617,7.9572,7.9572,7.9617,7.9617,7.9572,7.9446,7.9391,7.9401,7.9731,8.0368,7.9918,8.0524,8.0981,8.1388,8.1169,8.0729,7.9646,7.9586,7.9477,7.9505,8.0036,8.0529,8.0743,8.1516,8.1957,8.2137,8.2178,8.23,8.261,8.2813,8.2935,8.315,8.341,8.3696,8.394,8.4211,8.4471,8.4735,8.4861,8.4974,8.5385,8.5406,8.5431,8.5421,8.537,8.5456,8.5496,8.5506,8.5486,8.5471,8.5421,8.5421,8.5481,8.5501,8.5481,8.5486,8.5501,8.5501,8.5506,8.5506,8.5506,8.1765,8.2002,8.1731,8.1629,8.1596,8.1312,8.1211,8.1211,8.1211,8.1211,8.1278,8.1481,8.1617,8.1562,8.1088,8.031,7.9464,7.9701,7.9667,7.9409,7.9215,7.8994,7.8844,7.8908,7.8982,7.907,7.9002,7.9415,8.0206,8.0104,8.0898,8.2267,8.2162,8.2228,8.2758,8.2812,8.2848,8.2811,8.2322,8.1934,8.1798,8.1462,8.1331,8.1547,8.1411,8.1077,8.0624,8.034,7.9938,7.9462,7.9418,7.9418,7.9418,7.9418,7.9418,7.9418,7.9418,7.9418,7.9345,7.8914,7.8606,7.8569,7.8689,7.8915,7.8859,7.934,7.9925,8.0388,8.0534,8.0343,8.0568,8.0623,8.0731,8.0804,8.0995,8.1158,8.1316,8.1672,8.1927,8.203,8.2113,8.2251,8.2348,8.2436,8.2455,8.2526,8.2728,8.3017,8.3285,8.3545,8.3861,8.4129,8.4237,8.4475,8.5165,8.51,8.504,8.504,8.5029,8.5094,8.5154,8.516,8.5127,8.5121,8.5116,8.5056,8.5051,8.5365,8.5391,8.5548,8.553,8.585,8.5506,8.5697,8.5621,8.2598,8.2428,8.2395,8.2395,8.2395,8.2395,8.2395,8.2395,8.2395,8.2395,8.2395,8.2395,8.2395,8.2395,8.2395,8.1887,8.0987,8.0919,8.0784,8.0526,8.004,7.9701,7.9486,7.9452,7.9464,7.9422,7.9281,7.9566,8.0173,8.0097,8.099,8.2599,8.2394,8.261,8.3272,8.3382,8.3483,8.3429,8.2758,8.2305,8.2197,8.1527,8.1146,8.1287,8.1382,8.1394,8.1152,8.1169,8.1088,8.0787,8.0751,8.0642,8.0386,8.035,8.0241,8.0022,7.9994,7.984,7.9584,7.9074,7.8656,7.8352,7.826,7.8177,7.8146,7.8445,7.9073,7.968,7.9924,8.0214,8.091,8.1286,8.1443,8.1443,8.1434,8.1478,8.1529,8.1649,8.176,8.1894,8.2088,8.2178,8.2186,8.2194,8.2211,8.2186,8.234,8.2536,8.283,8.3054,8.3258,8.3573,8.3655,8.3842,8.4172,8.4176,8.4996,8.5153,8.5132,8.5068,8.4885,8.4848,8.4772,8.4772,8.4709,8.4575,8.472,8.51,8.5377,8.5556,8.6273,8.6772,8.6385,8.596,8.582,8.3118,8.2564,8.2428,8.2564,8.2598,8.2631,8.2496,8.2598,8.2564,8.2631,8.2699,8.253,8.2665,8.253,8.2699,8.2462,8.2428,8.2395,8.1968,8.1338,8.1169,8.0784,8.0255,8.0107,8.0006,7.9951,7.9587,7.9539,7.9777,7.9821,8.0553,8.1693,8.1958,8.2358,8.2898,8.3269,8.345,8.35,8.293,8.2414,8.2233,8.1563,8.1156,8.121,8.1237,8.1759,8.273,8.2666,8.2867,8.3559,8.3669,8.3522,8.2576,8.243,8.2274,8.1491,8.148,8.1152,8.0515,8.0252,7.9685,7.9156,7.8968,7.8782,7.8617,7.8674,7.9028,7.9707,7.9933,8.0214,8.0893,8.111,8.1146,8.1128,8.1146,8.1226,8.1349,8.1401,8.154,8.1827,8.2071,8.2178,8.2186,8.2186,8.2186,8.2219,8.2316,8.2431,8.262,8.2782,8.292,8.3047,8.3098,8.321,8.3173,8.3261,8.4502,8.5449,8.5436,8.536,8.4916,8.4773,8.4435,8.436,8.4073,8.3986,8.4236,8.4637,8.5248,8.5628,8.6627,8.6993,8.639,8.5776,8.581,8.412,8.395,8.3903,8.3903,8.3903,8.3917,8.3903,8.3903,8.3903,8.3917,8.3917,8.3903,8.3917,8.3917,8.3917,8.3917,8.3903,8.387,8.324,8.2171,8.1562,8.1202,8.0932,8.0458,7.9938,7.9498,7.929,7.9241,7.9402,7.9529,8.0309,8.1471,8.2062,8.2799,8.3778,8.4155,8.4561,8.4921,8.3818,8.3139,8.2985,8.1817,8.1382,8.1862,8.1934,8.2586,8.3947,8.3057,8.2867,8.3683,8.3665,8.3311,8.2622,8.244,8.2068,8.1379,8.127,8.1188,8.0898,8.0354,7.9954,7.9567,7.9115,7.8799,7.871,7.8702,7.9055,7.9743,7.9933,8.0214,8.0902,8.1074,8.1111,8.1074,8.1074,8.1174,8.1335,8.1423,8.1521,8.1818,8.198,8.2055,8.2198,8.2223,8.2333,8.2333,8.2353,8.2426,8.243,8.2628,8.2436,8.2463,8.2508,8.2853,8.31,8.3258,8.3925,8.4651,8.4815,8.5081,8.479,8.4425,8.4089,8.3754,8.3507,8.3501,8.3774,8.4274,8.4852,8.5118,8.5545,8.5596,8.5484,8.5442,8.5491,8.458,8.458,8.458,8.458,8.458,8.458,8.458,8.458,8.458,8.458,8.458,8.458,8.458,8.458,8.458,8.458,8.458,8.458,8.412,8.3206,8.2441,8.2014,8.1697,8.1257,8.0805,8.0399,8.0331,8.0331,8.031,8.0349,8.0851,8.1742,8.2117,8.279,8.389,8.4364,8.4934,8.5341,8.441,8.3843,8.3691,8.2686,8.2215,8.2659,8.274,8.3419,8.4497,8.3599,8.3481,8.4198,8.4397,8.389,8.2912,8.2749,8.226,8.1337,8.1083,8.0984,8.0649,8.0159,7.9743,7.9454,7.8992,7.8702,7.8702,7.8702,7.9064,7.9743,7.9897,8.025,8.0929,8.1074,8.1228,8.1563,8.1563,8.1672,8.1916,8.2141,8.2354,8.2626,8.2789,8.2851,8.2943,8.3042,8.3096,8.3104,8.3104,8.3067,8.3104,8.3157,8.3075,8.3075,8.3362,8.3505,8.3394,8.3431,8.3467,8.3717,8.3896,8.4265,8.4365,8.3884,8.3514,8.3078,8.2745,8.2829,8.3099,8.3855,8.4482,8.4545,8.484,8.5272,8.5579,8.5239,8.5112,8.458,8.458,8.458,8.458,8.458,8.458,8.458,8.458,8.458,8.458,8.458,8.458,8.458,8.458,8.458,8.458,8.458,8.458,8.458,8.4275,8.3714,8.3084,8.2327,8.2158,8.2056,8.209,8.2124,8.2192,8.2002,8.1724,8.1845,8.1939,8.2036,8.2361,8.3015,8.3737,8.4404,8.4956,8.4492,8.4296,8.455,8.3818,8.3456,8.3528,8.36,8.3963,8.4695,8.4414,8.4655,8.5624,8.5504,8.4798,8.3807,8.3518,8.2803,8.15,8.1246,8.1047,8.0395,8.054,8.0178,7.968,7.9571,7.8992,7.9426,7.9643,7.9861,8.044,8.044,8.0621,8.1264,8.1409,8.178,8.2296,8.2441,8.2668,8.332,8.3466,8.3429,8.3582,8.3975,8.4219,8.4053,8.4234,8.4338,8.4389,8.4352,8.4278,8.4278,8.4168,8.4462,8.4389,8.4132,8.3801,8.3573,8.3426,8.3389,8.3006,8.3165,8.3447,8.3692,8.3308,8.2998,8.2561,8.2303,8.238,8.2784,8.3632,8.4324,8.4705,8.5131,8.5593,8.5555,8.5166,8.4832,8.458,8.458,8.458,8.458,8.458,8.458,8.4614,8.4614,8.4614,8.4715,8.4614,8.458,8.4681,8.4614,8.4647,8.458,8.4695,8.4647,8.458,8.458,8.4411,8.3545,8.2631,8.2428,8.2462,8.2496,8.2564,8.2395,8.2395,8.2316,8.2033,8.1533,8.1815,8.1888,8.2083,8.2692,8.3508,8.4391,8.408,8.4155,8.4548,8.3962,8.3818,8.4352,8.4369,8.4722,8.5399,8.4784,8.4597,8.5074,8.4964,8.4534,8.3693,8.3704,8.3379,8.269,8.2712,8.2758,8.255,8.2441,8.2369,8.2296,8.1898,8.2224,8.2224,8.2224,8.2333,8.255,8.255,8.255,8.2804,8.284,8.3238,8.3818,8.3573,8.3356,8.3537,8.3538,8.3574,8.371,8.3872,8.4123,8.436,8.449,8.4612,8.4668,8.4747,8.4756,8.4939,8.4903,8.5013,8.4719,8.4425,8.4013,8.372,8.3499,8.3169,8.2517,8.2492,8.2655,8.2782,8.259,8.2427,8.2219,8.2251,8.2284,8.2988,8.3777,8.4295,8.473,8.5127,8.5432,8.5283,8.5015,8.4712,8.5574,8.5574,8.5574,8.5574,8.5574,8.5561,8.5574,8.5574,8.5561,8.5574,8.5574,8.5574,8.5574,8.5574,8.5574,8.5561,8.5574,8.5574,8.5608,8.5574,8.5608,8.4931,8.4031,8.3592,8.3477,8.3761,8.3477,8.3342,8.3308,8.3037,8.2611,8.235,8.217,8.2203,8.2415,8.2913,8.3679,8.4583,8.4391,8.4508,8.5016,8.4345,8.4165,8.4561,8.4633,8.4836,8.4928,8.4271,8.4052,8.4265,8.4069,8.3619,8.3162,8.3476,8.3406,8.2946,8.3269,8.3465,8.3501,8.3501,8.3501,8.3465,8.3501,8.3501,8.3428,8.3501,8.3501,8.3428,8.3501,8.3501,8.3564,8.3782,8.418,8.4506,8.4578,8.4506,8.4506,8.4588,8.4552,8.4609,8.4682,8.4782,8.5042,8.5183,8.5323,8.5508,8.5741,8.5721,8.5738,8.5591,8.5518,8.5408,8.5335,8.5151,8.4792,8.4499,8.405,8.3287,8.2957,8.2892,8.2525,8.2443,8.237,8.237,8.226,8.2484,8.3349,8.3909,8.406,8.4492,8.4936,8.5176,8.506,8.4969,8.4663,8.6893,8.6893,8.6893,8.6893,8.6825,8.6859,8.6724,8.6825,8.6758,8.6758,8.6758,8.6825,8.6656,8.6893,8.6589,8.6825,8.6825,8.6656,8.6724,8.669,8.6656,8.6332,8.5905,8.5148,8.508,8.533,8.4965,8.4627,8.4289,8.3815,8.3558,8.3259,8.2979,8.2913,8.2949,8.3603,8.4456,8.4854,8.4768,8.4934,8.5301,8.4882,8.4562,8.4369,8.4226,8.4008,8.3734,8.3257,8.3125,8.3497,8.311,8.2783,8.2424,8.2909,8.3071,8.3079,8.3601,8.4005,8.3899,8.4188,8.4035,8.4035,8.3999,8.3791,8.3999,8.4035,8.4044,8.4035,8.3791,8.3963,8.4035,8.447,8.4796,8.5013,8.5475,8.5801,8.5909,8.5909,8.5909,8.5919,8.597,8.6053,8.6192,8.6383,8.6598,8.6118,8.6315,8.6358,8.6401,8.6399,8.6436,8.6546,8.6509,8.6472,8.604,8.5608,8.5049,8.4425,8.4132,8.3875,8.3177,8.2957,8.2737,8.27,8.3067,8.3434,8.3936,8.4227,8.4292,8.4839,8.5676,8.5401,8.5015,8.4923,8.4702,8.6893,8.6893,8.6893,8.6893,8.6893,8.6893,8.6927,8.6961,8.6927,8.7028,8.6927,8.6927,8.6961,8.6961,8.7028,8.6893,8.7028,8.7028,8.6893,8.6893,8.6893,8.7198,8.7245,8.6738,8.6196,8.5939,8.5669,8.5215,8.4695,8.4492,8.4086,8.3639,8.3623,8.3134,8.2869,8.3266,8.3469,8.4074,8.4318,8.4797,8.5275,8.5141,8.4729,8.4223,8.3706,8.3193,8.2701,8.2222,8.1932,8.1897,8.2199,8.2533,8.2695,8.3153,8.3532,8.4043,8.4954,8.5506,8.5408,8.6084,8.6624,8.5547,8.5692,8.6008,8.5448,8.5339,8.5339,8.5375,8.5375,8.5293,8.533,8.5475,8.5656,8.5764,8.5909,8.6018,8.5945,8.5909,8.5909,8.5928,8.592,8.5959,8.6072,8.6155,8.6383,8.6608,8.6768,8.6838,8.6908,8.7014,8.7014,8.7014,8.6949,8.6766,8.6444,8.6086,8.5783,8.5416,8.5233,8.5049,8.4352,8.3985,8.3948,8.4022,8.4132,8.4462,8.4646,8.5049,8.5258,8.5865,8.6325,8.6142,8.5885,8.5408,8.4956,8.7922,8.7922,8.7922,8.7922,8.7922,8.7922,8.7922,8.7922,8.7922,8.7922,8.7922,8.7922,8.7922,8.7922,8.7922,8.7955,8.7922,8.7922,8.7955,8.7955,8.7955,8.8158,8.8361,8.8071,8.7428,8.6447,8.5939,8.552,8.5249,8.5168,8.5182,8.5046,8.4742,8.4498,8.3969,8.3887,8.4191,8.4476,8.4444,8.471,8.5107,8.4808,8.4529,8.4054,8.3636,8.3287,8.3014,8.2607,8.2425,8.2438,8.2621,8.2772,8.2952,8.3452,8.4047,8.4822,8.5821,8.6486,8.6693,8.7348,8.7783,8.7022,8.7085,8.6805,8.6515,8.6416,8.6199,8.609,8.6163,8.6407,8.6407,8.6407,8.6515,8.6914,8.695,8.695,8.6851,8.638,8.5909,8.5909,8.5919,8.593,8.5969,8.6207,8.6283,8.6592,8.667,8.6786,8.6925,8.7014,8.7014,8.7014,8.7014,8.6876,8.6628,8.6444,8.6407,8.6215,8.6179,8.6105,8.5812,8.5591,8.5445,8.5196,8.4829,8.5021,8.5233,8.571,8.6077,8.6472,8.6766,8.6949,8.6729,8.5958,8.5608,8.9134,8.9134,8.9134,8.91,8.9134,8.9066,8.9032,8.9066,8.9134,8.8917,8.91,8.9134,8.8883,8.9032,8.8998,8.91,8.9066,8.9032,8.8849,8.8849,8.8849,8.8883,8.8951,8.8815,8.8274,8.711,8.6582,8.621,8.6027,8.6007,8.6129,8.6589,8.623,8.5669,8.56,8.5422,8.5056,8.4984,8.4754,8.4718,8.4901,8.4423,8.4114,8.3817,8.353,8.3387,8.3139,8.3008,8.3085,8.3476,8.3566,8.3488,8.3531,8.3787,8.4579,8.5407,8.6352,8.6917,8.7316,8.8017,8.858,8.8316,8.7674,8.7312,8.7194,8.7022,8.6769,8.6733,8.6841,8.7085,8.7013,8.7121,8.7483,8.7918,8.8135,8.8198,8.799,8.7022,8.6552,8.6416,8.6624,8.6725,8.6546,8.6549,8.6546,8.652,8.6637,8.6714,8.6891,8.7014,8.7014,8.7014,8.7014,8.7014,8.6766,8.6693,8.6656,8.6693,8.6729,8.6721,8.6757,8.6509,8.6105,8.5637,8.538,8.56,8.582,8.6151,8.6546,8.6913,8.7014,8.7014,8.6766,8.6407,8.6241,8.9134,8.9134,8.9134,8.9134,8.9134,8.9134,8.9201,8.9134,8.9235,8.912,8.9168,8.9134,8.9235,8.9201,8.9134,8.9134,8.9337,8.9357,8.9289,8.9289,8.9289,8.9303,8.9357,8.9255,8.8666,8.8037,8.7597,8.7279,8.6839,8.6758,8.6907,8.6893,8.6792,8.6501,8.6075,8.5668,8.5349,8.5022,8.4762,8.4671,8.4642,8.452,8.418,8.375,8.3334,8.3019,8.2806,8.2669,8.2653,8.296,8.346,8.4078,8.4529,8.4711,8.5182,8.595,8.6975,8.7654,8.7859,8.917,8.9264,8.857,8.8099,8.8036,8.7882,8.7529,8.7457,8.7701,8.7737,8.7737,8.7085,8.7628,8.8027,8.8244,8.8389,8.8389,8.828,8.8063,8.7809,8.7819,8.7819,8.7638,8.7341,8.7072,8.7015,8.692,8.6848,8.6854,8.6873,8.6988,8.7014,8.7014,8.7014,8.7014,8.6949,8.6949,8.6913,8.6876,8.6904,8.6913,8.6913,8.6949,8.6656,8.6179,8.6179,8.6472,8.6619,8.6656,8.6766,8.6986,8.7014,8.7014,8.6839,8.6656,8.6729,9.0236,9.0236,9.0236,9.0236,9.0236,9.0236,9.0236,9.0236,9.0222,9.0222,9.0236,9.0236,9.0236,9.0236,9.0236,9.0236,9.0202,9.0236,9.0222,9.0236,9.0236,9.0236,9.0135,8.985,8.9512,8.9106,8.8767,8.8192,8.755,8.7482,8.7651,8.7922,8.7705,8.7279,8.6785,8.6142,8.5689,8.5202,8.4864,8.4647,8.4614,8.4614,8.439,8.4086,8.3781,8.3565,8.3545,8.3545,8.3689,8.4048,8.4416,8.5014,8.5501,8.586,8.6111,8.6881,8.7803,8.8464,8.8685,8.9887,9.0101,8.9594,8.905,8.8843,8.8761,8.8553,8.8408,8.858,8.8353,8.8244,8.829,8.858,8.8978,8.934,8.9412,8.9376,8.9412,8.9412,8.934,8.9159,8.858,8.8217,8.8027,8.7814,8.7584,8.7381,8.7203,8.7121,8.7041,8.7156,8.731,8.7308,8.7344,8.7344,8.7381,8.7381,8.7418,8.7344,8.7308,8.7308,8.7243,8.7316,8.717,8.6803,8.6986,8.7271,8.6986,8.6839,8.6949,8.7014,8.7014,8.7014,8.7014,8.7023,8.7014,9.1305,9.1305,9.1305,9.1305,9.1305,9.1305,9.1271,9.1305,9.1237,9.1203,9.1305,9.1271,9.1237,9.1285,9.1251,9.1237,9.1305,9.1237,9.1169,9.1135,9.1135,9.1237,9.1102,9.0797,9.0275,8.9884,8.9579,8.8917,8.8342,8.8192,8.8578,8.868,8.8395,8.8091,8.7685,8.6907,8.6311,8.5824,8.5439,8.5087,8.5053,8.5053,8.5053,8.5053,8.5067,8.5067,8.5067,8.5067,8.5194,8.5373,8.5637,8.595,8.6439,8.6855,8.7341,8.7947,8.8603,8.9025,8.9495,8.9956,9.0338,9.0208,8.9729,8.9531,8.965,8.9567,8.9495,8.935,8.9169,8.8869,8.9179,8.9505,8.9893,9.0255,9.0473,9.0555,9.04,9.0328,9.0255,8.9893,8.9195,8.8942,8.8942,8.8609,8.8452,8.8287,8.8076,8.7851,8.7795,8.7782,8.7844,8.7795,8.7785,8.7785,8.7858,8.7968,8.8042,8.8078,8.8078,8.8078,8.7895,8.7757,8.7647,8.7711,8.7785,8.7968,8.7491,8.7014,8.7014,8.7014,8.7014,8.7014,8.7014,8.7014,8.7014,9.1305,9.1305,9.1338,9.1305,9.1372,9.1406,9.1338,9.1387,9.1454,9.1305,9.1522,9.1372,9.1454,9.1474,9.144,9.1372,9.1406,9.1508,9.159,9.1623,9.1575,9.1575,9.1406,9.1237,9.0899,9.0527,9.0222,8.9661,8.9154,8.9018,8.8951,8.9032,8.8951,8.8666,8.8125,8.7651,8.7414,8.6859,8.6623,8.6521,8.6487,8.6487,8.6453,8.6487,8.6487,8.642,8.6318,8.6318,8.644,8.6521,8.6616,8.684,8.7236,8.7852,8.8293,8.848,8.8579,8.8587,8.9326,8.996,9.0372,9.0465,9.0027,8.991,9.0374,9.0581,9.0328,8.9432,8.9893,9.011,9.0038,9.0183,9.0473,9.0726,9.0943,9.0871,9.0799,9.0943,9.0907,9.069,9.0028,9.0074,9.011,8.9669,8.9274,8.912,8.8946,8.8689,8.8536,8.8434,8.8486,8.8447,8.8445,8.8445,8.8409,8.8519,8.8629,8.8739,8.8739,8.8776,8.8592,8.8482,8.8812,8.8886,8.8849,8.8482,8.7932,8.75,8.717,8.7133,8.7316,8.7206,8.7014,8.7014,8.7014,9.2605,9.2605,9.2605,9.2605,9.2605,9.2605,9.2605,9.2605,9.2605,9.2605,9.2605,9.259,9.2605,9.2522,9.2605,9.2605,9.2605,9.2537,9.2605,9.2537,9.2537,9.2556,9.2522,9.215,9.1662,9.1392,9.102,9.0763,9.0202,8.9506,8.9134,8.9168,8.9134,8.8984,8.8632,8.8226,8.7854,8.7482,8.713,8.6893,8.6893,8.6893,8.6927,8.6927,8.6927,8.6961,8.6961,8.6893,8.6893,8.6893,8.6893,8.6996,8.7321,8.7733,8.8179,8.8577,8.8629,8.9023,8.9793,9.0421,9.0785,9.1219,9.13,9.1694,9.1921,9.1885,9.1803,9.1523,9.173,9.1658,9.1451,9.173,9.1849,9.1921,9.1704,9.1776,9.1668,9.1342,9.1332,9.1115,9.0907,9.0726,9.0628,9.0311,8.9778,8.9448,8.9349,8.9223,8.9047,8.8928,8.9036,8.9162,8.9179,8.9179,8.9106,8.9143,8.9143,8.9253,8.9216,8.9253,8.9253,8.9326,8.962,8.9546,8.9253,8.8849,8.8381,8.8234,8.8189,8.794,8.7692,8.75,8.728,8.7014,8.7014,9.389,9.3857,9.3654,9.3601,9.3601,9.3601,9.3552,9.3586,9.3518,9.3552,9.3601,9.3518,9.3552,9.3586,9.3484,9.3417,9.3533,9.3601,9.3601,9.3601,9.3601,9.3518,9.3281,9.2895,9.2575,9.2426,9.1812,9.1406,9.0947,9.0372,8.9796,8.9661,8.9898,8.9763,8.9492,8.9072,8.8632,8.8274,8.7834,8.7617,8.7583,8.755,8.755,8.7516,8.7448,8.7448,8.7434,8.7516,8.7516,8.755,8.7583,8.7761,8.7933,8.8157,8.8447,8.889,8.9165,8.9816,9.0443,9.103,9.1524,9.2062,9.2535,9.2672,9.2817,9.2998,9.2961,9.2708,9.2744,9.2853,9.2961,9.2889,9.278,9.2744,9.278,9.2925,9.2889,9.2237,9.1694,9.1404,9.1088,9.069,9.0628,9.0628,9.0302,8.9877,8.9724,8.969,8.9684,8.967,8.9934,9.0207,9.0253,9.0253,9.0216,9.0106,8.9987,8.9877,8.9886,8.9996,9.0143,9.0216,9.04,9.0179,8.9886,8.9996,8.9996,8.9629,8.9216,8.8748,8.8271,8.7876,8.7573,8.728,8.7096,9.4639,9.4571,9.3876,9.3634,9.3654,9.3601,9.3634,9.3601,9.3601,9.3634,9.3721,9.3702,9.3804,9.3721,9.3857,9.3837,9.3654,9.3634,9.3789,9.3789,9.362,9.3823,9.3789,9.3605,9.3184,9.2662,9.2406,9.2015,9.1541,9.1474,9.115,9.1116,9.0879,9.1048,9.0763,9.0053,8.9376,8.9018,8.868,8.8714,8.8714,8.8748,8.8748,8.8815,8.8897,8.8951,8.8917,8.8748,8.868,8.868,8.8612,8.8646,8.8656,8.8745,8.896,8.9369,8.991,9.0546,9.1219,9.1576,9.176,9.222,9.2842,9.3334,9.3443,9.3153,9.307,9.3251,9.3468,9.3324,9.3215,9.3034,9.3406,9.3468,9.3624,9.3587,9.337,9.2682,9.2139,9.173,9.1487,9.1306,9.1197,9.1306,9.0762,9.0302,9.0265,9.027,9.0686,9.0758,9.1134,9.1354,9.1436,9.1482,9.1519,9.1326,9.0996,9.0922,9.0922,9.1143,9.1363,9.1363,9.1069,9.1143,9.0996,9.1326,9.14,9.0656,8.9959,8.9372,8.8931,8.8674,8.8271,8.794,8.761,9.4011,9.3977,9.3721,9.389,9.4282,9.4282,9.4026,9.3654,9.3586,9.3876,9.4282,9.4736,9.4939,9.4939,9.4973,9.4973,9.4973,9.4973,9.4905,9.4939,9.4973,9.4958,9.4838,9.4417,9.4098,9.3692,9.3353,9.3064,9.2808,9.2571,9.2672,9.2537,9.186,9.1372,9.1068,9.0729,8.9918,8.9357,8.9154,8.9134,8.9134,8.9134,8.9134,8.9134,8.9134,8.9134,8.91,8.91,8.91,8.9168,8.9201,8.9235,8.9269,8.9269,8.9479,8.9867,9.0444,9.113,9.2048,9.2519,9.3209,9.3999,9.4409,9.4431,9.4276,9.442,9.4457,9.4493,9.4384,9.4239,9.4457,9.4503,9.4576,9.4493,9.4384,9.4312,9.395,9.3334,9.3008,9.2744,9.2527,9.231,9.2237,9.2165,9.1451,9.0772,9.0829,9.0878,9.1158,9.1424,9.162,9.1767,9.1785,9.1812,9.1812,9.1812,9.1812,9.1812,9.1812,9.1812,9.1812,9.1776,9.1592,9.1776,9.1812,9.1702,9.151,9.1216,9.073,9.0179,8.9849,8.9629,8.9152,8.8556,8.8335,9.3909,9.3943,9.4161,9.4296,9.4383,9.4383,9.4079,9.3654,9.3601,9.4011,9.4706,9.5263,9.5635,9.5736,9.577,9.5736,9.5669,9.5669,9.5736,9.5702,9.5669,9.5804,9.5533,9.5093,9.4552,9.4552,9.4026,9.3518,9.3417,9.3552,9.3451,9.3112,9.2638,9.2199,9.1913,9.1203,9.0493,8.9918,8.9763,8.9763,8.9796,8.983,8.983,8.9864,8.9898,8.9932,8.9932,8.9966,8.9932,8.9932,8.9898,8.983,8.9796,8.9833,9.0044,9.046,9.0999,9.1649,9.2683,9.3592,9.4441,9.4976,9.5196,9.5264,9.5409,9.5409,9.5155,9.5228,9.53,9.5409,9.5409,9.5228,9.5155,9.501,9.501,9.4938,9.471,9.4276,9.4058,9.3867,9.3432,9.2817,9.2599,9.2382,9.1885,9.1346,9.1403,9.1268,9.1033,9.1301,9.1546,9.1675,9.1758,9.1785,9.1812,9.1812,9.1812,9.1812,9.1812,9.1812,9.1812,9.1849,9.1812,9.1812,9.1812,9.1812,9.1666,9.1473,9.1289,9.1033,9.0656,9.0216,8.9546,8.8996,8.9106,9.462,9.4789,9.533,9.4823,9.3755,9.3654,9.3654,9.362,9.3687,9.4093,9.4721,9.4924,9.5364,9.5804,9.6074,9.6176,9.6142,9.6074,9.6007,9.6007,9.6176,9.5973,9.5669,9.533,9.5161,9.462,9.4282,9.3992,9.3823,9.3992,9.389,9.3687,9.3383,9.3146,9.3383,9.2711,9.1933,9.1305,9.1116,9.1048,9.0981,9.0913,9.0899,9.0899,9.0865,9.0845,9.0811,9.0811,9.0811,9.0811,9.0845,9.0865,9.0913,9.0947,9.1152,9.1512,9.2214,9.2931,9.3755,9.4361,9.5024,9.5655,9.5952,9.5807,9.5564,9.5481,9.5445,9.5481,9.5409,9.5409,9.5409,9.5409,9.5409,9.5409,9.5409,9.5336,9.5119,9.4964,9.471,9.4565,9.3768,9.2998,9.2744,9.2491,9.2102,9.1873,9.1977,9.1723,9.1193,9.113,9.1377,9.1583,9.1684,9.1749,9.1785,9.1803,9.1812,9.1812,9.1886,9.1996,9.1996,9.2033,9.1996,9.1886,9.1812,9.1812,9.1812,9.1776,9.1592,9.1363,9.1033,9.0546,8.9886,8.962,8.9922,9.3977,9.3977,9.4229,9.406,9.3702,9.4146,9.4045,9.3755,9.4079,9.4485,9.489,9.5635,9.621,9.6597,9.6954,9.7123,9.7191,9.7258,9.7157,9.6563,9.6886,9.6853,9.6548,9.6176,9.6056,9.5954,9.5447,9.4924,9.5127,9.4838,9.4586,9.4417,9.3755,9.3267,9.288,9.2406,9.2,9.144,9.1271,9.1271,9.1338,9.1372,9.1372,9.1406,9.1454,9.144,9.1474,9.1508,9.1508,9.1522,9.1522,9.1488,9.1474,9.1474,9.155,9.1815,9.2364,9.3232,9.442,9.5403,9.6101,9.6654,9.6858,9.6604,9.6314,9.6216,9.5952,9.5517,9.5409,9.5409,9.5409,9.5409,9.5409,9.5409,9.5409,9.5409,9.5264,9.5228,9.5083,9.5119,9.4648,9.4058,9.3686,9.2998,9.2491,9.1704,9.1597,9.1515,9.1059,9.1038,9.1185,9.1424,9.1583,9.1684,9.1785,9.2143,9.2244,9.2253,9.2326,9.2437,9.2437,9.2473,9.2326,9.229,9.2033,9.1812,9.2069,9.2253,9.1886,9.1629,9.151,9.1363,9.0886,9.0849,9.1143,9.3601,9.3601,9.3601,9.3601,9.3654,9.4112,9.4026,9.3721,9.4112,9.4451,9.4857,9.5736,9.6428,9.6868,9.7375,9.7867,9.7953,9.7953,9.7597,9.7071,9.7664,9.736,9.7037,9.6902,9.6699,9.6699,9.6225,9.5736,9.5601,9.5466,9.489,9.4214,9.3857,9.3417,9.303,9.2827,9.2692,9.2334,9.2334,9.2266,9.2232,9.2199,9.2184,9.2199,9.2199,9.2165,9.2116,9.2083,9.2063,9.2063,9.2063,9.2063,9.2063,9.2126,9.2198,9.2429,9.294,9.403,9.55,9.6465,9.7322,9.8502,9.8165,9.7437,9.6785,9.6532,9.6061,9.5662,9.5445,9.5409,9.5409,9.5409,9.5409,9.5409,9.5409,9.5409,9.5373,9.53,9.53,9.5373,9.5336,9.4891,9.4338,9.3686,9.2961,9.202,9.1161,9.108,9.1143,9.1304,9.1428,9.1707,9.2101,9.2489,9.2701,9.2932,9.2923,9.2721,9.2905,9.3161,9.3244,9.3354,9.3024,9.2831,9.2914,9.295,9.284,9.2767,9.2767,9.2657,9.2473,9.2253,9.1923,9.1812,9.1812,9.3601,9.3601,9.3601,9.3601,9.3586,9.3654,9.362,9.3601,9.362,9.4026,9.4639,9.4721,9.5466,9.6563,9.6834,9.7172,9.7597,9.7683,9.7191,9.7056,9.736,9.7138,9.7037,9.6935,9.7003,9.6699,9.6326,9.5973,9.577,9.5195,9.4485,9.3943,9.3755,9.3518,9.3417,9.3383,9.3315,9.318,9.3146,9.3112,9.3078,9.3281,9.318,9.318,9.318,9.318,9.3214,9.3214,9.3281,9.3349,9.3417,9.3465,9.3533,9.3567,9.3586,9.368,9.4033,9.5151,9.631,9.7055,9.8253,9.9139,9.8679,9.7648,9.7039,9.6821,9.6351,9.5771,9.5409,9.5409,9.5409,9.5409,9.5409,9.5409,9.5409,9.5409,9.5409,9.5373,9.5373,9.5409,9.5409,9.5,9.4312,9.365,9.307,9.2175,9.1414,9.1388,9.1515,9.2056,9.2229,9.2457,9.292,9.3517,9.3678,9.3572,9.3592,9.34,9.3896,9.4189,9.4235,9.4162,9.3942,9.3822,9.4088,9.4052,9.3648,9.3721,9.3978,9.3758,9.3244,9.2758,9.2317,9.1886,9.1812,9.3601,9.3601,9.3601,9.3601,9.3601,9.3601,9.3601,9.3601,9.3586,9.3755,9.3943,9.4485,9.4992,9.5364,9.5887,9.621,9.6413,9.6345,9.5905,9.6108,9.6886,9.6631,9.6732,9.7056,9.7206,9.6969,9.6631,9.6244,9.5736,9.506,9.4687,9.4417,9.3924,9.3721,9.3736,9.3634,9.3654,9.362,9.3654,9.3601,9.3601,9.3601,9.3601,9.3601,9.3601,9.3601,9.3601,9.3601,9.3601,9.3601,9.3601,9.3601,9.3601,9.3601,9.3601,9.3659,9.4193,9.5032,9.6176,9.7061,9.8114,9.9293,9.9186,9.8624,9.7916,9.7256,9.6749,9.5952,9.5445,9.5409,9.5409,9.5409,9.5409,9.5409,9.5409,9.5409,9.5409,9.5409,9.5409,9.5409,9.5409,9.5155,9.4384,9.3686,9.307,9.2211,9.174,9.174,9.1931,9.251,9.2871,9.309,9.3578,9.4107,9.4056,9.3934,9.4058,9.4216,9.4758,9.4997,9.474,9.4666,9.4703,9.474,9.4813,9.4602,9.4235,9.4456,9.4813,9.4189,9.3639,9.3198,9.2712,9.2281,9.1849,9.3601,9.3601,9.3601,9.3601,9.3601,9.3601,9.3601,9.3601,9.3601,9.3601,9.3654,9.4045,9.4417,9.4774,9.5195,9.5567,9.5905,9.6277,9.6041,9.5872,9.6582,9.6699,9.6954,9.7258,9.7409,9.7138,9.6766,9.6462,9.5736,9.5093,9.4687,9.4654,9.4146,9.4296,9.4364,9.433,9.4093,9.3958,9.3823,9.3654,9.3601,9.3601,9.3601,9.3601,9.3601,9.3601,9.3601,9.3601,9.3601,9.3601,9.3601,9.3601,9.3601,9.3601,9.3601,9.3674,9.4024,9.4724,9.5652,9.6401,9.7584,9.8694,9.9304,9.8792,9.8227,9.7618,9.6713,9.5807,9.559,9.5409,9.5409,9.5409,9.5409,9.5409,9.5409,9.5409,9.5409,9.5409,9.5409,9.5409,9.53,9.5155,9.4602,9.3877,9.336,9.3034,9.2646,9.2392,9.2599,9.3065,9.3359,9.3566,9.4071,9.4617,9.4498,9.4558,9.4886,9.5184,9.561,9.5739,9.5354,9.5401,9.5621,9.5547,9.5401,9.5254,9.519,9.5327,9.5474,9.4887,9.4483,9.4253,9.3593,9.2574,9.2207,9.3601,9.3601,9.3601,9.3601,9.3601,9.3601,9.3601,9.3601,9.3601,9.3601,9.362,9.362,9.4026,9.4417,9.462,9.4939,9.533,9.5853,9.5872,9.577,9.692,9.7123,9.6886,9.7428,9.7071,9.6868,9.6496,9.5887,9.5466,9.4857,9.4485,9.4687,9.4654,9.4823,9.5278,9.4789,9.4485,9.4383,9.3958,9.3601,9.3601,9.3601,9.3601,9.3601,9.3601,9.3601,9.3601,9.3601,9.3601,9.3601,9.3601,9.3601,9.3601,9.3601,9.3601,9.3689,9.3923,9.4417,9.5123,9.5849,9.6988,9.7994,9.8729,9.8629,9.8301,9.7876,9.6966,9.5843,9.5445,9.5409,9.5409,9.5409,9.5409,9.5409,9.5409,9.5409,9.5409,9.5409,9.5409,9.5409,9.5373,9.5228,9.5083,9.4348,9.3831,9.3794,9.3396,9.2935,9.3143,9.3505,9.3768,9.3981,9.4519,9.5026,9.5262,9.54,9.5874,9.6231,9.6394,9.6463,9.6079,9.6272,9.6649,9.6355,9.6025,9.6282,9.6355,9.6282,9.6135,9.6061,9.5694,9.5465,9.462,9.3336,9.2611,9.3601,9.3601,9.3601,9.3601,9.3601,9.3601,9.3601,9.3601,9.3601,9.3601,9.3601,9.362,9.3687,9.3924,9.3958,9.4161,9.4364,9.5263,9.5127,9.5601,9.665,9.7056,9.6428,9.7037,9.6514,9.5601,9.5127,9.5075,9.4567,9.418,9.4214,9.4687,9.4789,9.5195,9.5905,9.5248,9.4808,9.4808,9.406,9.3634,9.3601,9.3601,9.3601,9.3601,9.3601,9.3601,9.3601,9.3601,9.3601,9.3601,9.3601,9.3601,9.3601,9.3601,9.3601,9.3645,9.3816,9.4173,9.4625,9.5379,9.6441,9.7534,9.8288,9.8601,9.8523,9.8104,9.7318,9.6133,9.5517,9.5517,9.5554,9.5554,9.5481,9.5481,9.5445,9.5445,9.5445,9.5409,9.5409,9.5409,9.5409,9.5336,9.5228,9.4938,9.442,9.3867,9.336,9.308,9.3406,9.3722,9.412,9.4395,9.4865,9.5317,9.5643,9.5807,9.6056,9.6266,9.6341,9.6494,9.6657,9.6712,9.6722,9.6722,9.6612,9.6722,9.6722,9.6649,9.6575,9.6575,9.6355,9.5868,9.5244,9.4153,9.3409,9.389,9.3634,9.3601,9.3601,9.3601,9.3601,9.3601,9.3601,9.3601,9.3601,9.3601,9.3601,9.3601,9.3601,9.3601,9.3601,9.3789,9.4789,9.5229,9.5702,9.6413,9.6785,9.6868,9.6868,9.6379,9.5518,9.4876,9.4518,9.4045,9.3823,9.406,9.4924,9.5195,9.5567,9.6311,9.5804,9.5112,9.5146,9.4127,9.3702,9.3601,9.3601,9.3601,9.3601,9.3601,9.3601,9.3601,9.3601,9.3601,9.3601,9.3601,9.3601,9.3601,9.3601,9.3601,9.3615,9.3733,9.3874,9.4251,9.4899,9.5916,9.7065,9.7907,9.8206,9.8851,9.8477,9.8078,9.7039,9.6785,9.6749,9.6749,9.6749,9.6387,9.6242,9.6061,9.5952,9.5662,9.5409,9.5409,9.5409,9.5409,9.5373,9.53,9.5264,9.4855,9.4819,9.4167,9.3986,9.4167,9.4094,9.442,9.471,9.5155,9.5347,9.5498,9.5643,9.5844,9.6056,9.6256,9.6463,9.6608,9.6693,9.6722,9.6722,9.6722,9.6722,9.6722,9.6722,9.6722,9.6649,9.6428,9.6125,9.5501,9.4987,9.4437,9.4417,9.3789,9.3654,9.3601,9.3601,9.3601,9.3601,9.3601,9.3601,9.3601,9.3601,9.3601,9.3601,9.3601,9.3601,9.3601,9.3992,9.506,9.5567,9.6108,9.7258,9.6988,9.6988,9.7225,9.6548,9.5804,9.5045,9.4774,9.4552,9.4112,9.4195,9.5413,9.5939,9.6277,9.692,9.648,9.5432,9.506,9.4364,9.3721,9.3601,9.3601,9.3601,9.3601,9.3601,9.3601,9.3601,9.3601,9.3601,9.3601,9.3601,9.3601,9.3601,9.3601,9.3601,9.3615,9.3615,9.3674,9.3821,9.4294,9.5495,9.6577,9.7332,9.8133,9.8794,9.8984,9.8585,9.8332,9.8078,9.7727,9.7727,9.7655,9.7256,9.6713,9.6495,9.6242,9.5807,9.5445,9.5445,9.5445,9.5409,9.5409,9.5373,9.5373,9.5373,9.5409,9.5409,9.5409,9.5264,9.4974,9.4927,9.5072,9.5264,9.5394,9.5404,9.5498,9.5654,9.5797,9.6056,9.6345,9.657,9.6628,9.6712,9.6722,9.6722,9.6722,9.6722,9.6722,9.6722,9.6722,9.6575,9.6345,9.6162,9.5731,9.5465,9.5161,9.4436,9.3857,9.3586,9.3601,9.3601,9.3601,9.3601,9.3601,9.3601,9.3601,9.3601,9.3601,9.3601,9.3601,9.3634,9.3857,9.5108,9.5669,9.6041,9.7326,9.6988,9.6699,9.7003,9.6563,9.5973,9.5364,9.4857,9.4992,9.4282,9.4045,9.5093,9.5011,9.5383,9.5939,9.5466,9.4992,9.4721,9.4296,9.3601,9.3601,9.3601,9.3601,9.3601,9.3601,9.3601,9.3601,9.3601,9.3601,9.3601,9.3601,9.3601,9.3601,9.3601,9.3601,9.3601,9.3601,9.3601,9.3777,9.4198,9.5289,9.6694,9.7559,9.8467,9.914,9.9817,9.9527,9.9371,9.8984,9.8198,9.8053,9.8053,9.7763,9.6966,9.6495,9.6169,9.5771,9.5626,9.5554,9.5517,9.5481,9.5445,9.5409,9.5373,9.5373,9.5409,9.5409,9.5409,9.5409,9.5409,9.5409,9.5409,9.5409,9.5409,9.5419,9.5394,9.5508,9.5643,9.5818,9.612,9.6404,9.6599,9.6684,9.6712,9.6722,9.6722,9.6722,9.6722,9.6722,9.6722,9.6722,9.6612,9.6502,9.6318,9.5942]},{"header":{"parameterUnit":"m.s-1","parameterCategory":1,"la1":31.0,"la2":29.5877,"lo1":-88.7671,"lo2":-86.6584,"dy":0.0162,"dx":0.0185,"nx":115,"ny":88,"refTime":"2026-04-02T12:00:00:Z","depth":0,"parameterNumber":3,"parameterNumberName":"V-component_of_WINDS"},"data":[0.0,0.0,0.0,0.0,0.0,0.0,0.0,0.0,0.0,0.0,0.0,0.0,0.0,0.0,0.0,0.0,0.0,0.0,0.0,0.0,0.0,0.0,0.0,0.0,0.0,0.0,0.0,0.0,0.0,0.0,0.0,0.0,0.0,0.0,0.0,0.0,0.0,0.0,0.0,0.0,0.0,0.0,0.0,0.0,0.0,0.0,0.0,0.0,0.0,0.0,0.0,0.0,0.0,0.0,0.0,0.0,0.0,0.0,0.0,0.0,0.0,0.0,0.0,0.0,0.0,0.0,0.0,0.0,0.0,0.0,0.0,0.0,0.0,0.0,0.0,0.0,0.0,0.0,0.0,0.0,0.0,0.0,0.0,0.0,0.0,0.0,0.0,0.0,0.0,0.0,0.0,0.0,0.0,0.0,0.0,0.0,0.0,0.0,0.0,0.0,0.0,0.0,0.0,0.0,0.0,0.0,0.0,0.0,0.0,0.0,0.0,0.0,0.0,0.0,0.0,0.0,0.0,0.0,0.0,0.0,0.0,0.0,0.0,0.0,0.0,0.0,0.0,0.0,0.0,0.0,0.0,0.0,0.0,0.0,0.0,0.0,0.0,0.0,0.0,0.0,0.0,0.0,0.0,0.0,0.0,0.0,0.0,0.0,0.0,0.0,0.0,0.0,0.0,0.0,0.0,0.0,0.0,0.0,0.0,0.0,0.0,0.0,0.0,0.0,0.0,0.0,0.0,0.0,0.0,0.0,0.0,0.0,0.0,0.0,0.0,0.0,0.0,0.0,0.0,0.0,0.0,0.0,0.0,0.0,0.0,0.0,0.0,0.0,0.0,0.0,0.0,0.0,0.0,0.0,0.0,0.0,0.0,0.0,0.0,0.0,0.0,0.0,0.0,0.0,0.0,0.0,0.0,0.0,0.0,0.0,0.0,0.0,0.0,0.0,0.0,0.0,0.0,0.0,0.0,0.0,0.0,0.0,0.0,0.0,0.0,0.0,0.0,0.0,0.0,0.0,0.0,0.0,0.0,0.0,0.0,0.0,0.0,0.0,0.0,0.0,0.0,0.0,0.0,0.0,0.0,0.0,0.0,0.0,0.0,0.0,0.0,0.0,0.0,0.0,0.0,0.0,0.0,0.0,0.0,0.0,0.0,0.0,0.0,0.0,0.0,0.0,0.0,0.0,0.0,0.0,0.0,0.0,0.0,0.0,0.0,0.0,0.0,0.0,0.0,0.0,0.0,0.0,0.0,0.0,0.0,0.0,0.0,0.0,0.0,0.0,0.0,0.0,0.0,0.0,0.0,0.0,0.0,0.0,0.0,0.0,0.0,0.0,0.0,0.0,0.0,0.0,0.0,0.0,0.0,0.0,0.0,0.0,0.0,0.0,0.0,0.0,0.0,0.0,0.0,0.0,0.0,0.0,0.0,0.0,0.0,0.0,0.0,0.0,0.0,0.0,0.0,0.0,0.0,0.0,0.0,0.0,0.0,0.0,0.0,0.0,0.0,0.0,0.0,0.0,0.0,0.0,0.0,0.0,0.0,0.0,0.0,0.0,0.0,0.0,0.0,0.0,0.0,0.0,0.0,0.0,0.0,0.0,0.0,0.0,0.0,0.0,0.0,0.0,0.0,0.0,0.0,0.0,0.0,0.0,0.0,0.0,0.0,0.0,0.0,0.0,0.0,0.0,0.0,0.0,0.0,0.0,0.0,0.0,0.0,0.0,0.0,0.0,0.0,0.0,0.0,0.0,0.0,0.0,0.0,0.0,0.0,0.0,0.0,0.0,0.0,0.0,0.0,0.0,0.0,0.0,0.0,0.0,0.0,0.0,0.0,0.0,0.0,0.0,0.0,0.0,0.0,0.0,0.0,0.0,0.0,0.0,0.0,0.0,0.0,0.0,0.0,0.0,0.0,0.0,0.0,0.0,0.0,0.0,0.0,0.0,0.0,0.0,0.0,0.0,0.0,0.0,0.0,0.0,0.0,0.0,0.0,0.0,0.0,0.0,0.0,0.0,0.0,0.0,0.0,0.0,0.0,0.0,0.0,0.0,0.0,0.0,0.0,0.0,0.0,0.0,0.0,0.0,0.0,0.0,0.0,0.0,0.0,0.0,0.0,0.0,0.0,0.0,0.0,0.0,0.0,0.0,0.0,0.0,0.0,0.0,0.0,0.0,0.0,0.0,0.0,0.0,0.0,0.0,0.0,0.0,0.0,0.0,0.0,0.0,0.0,0.0,0.0,0.0,0.0,0.0,0.0,0.0,0.0,0.0,0.0,0.0,0.0,0.0,0.0,0.0,0.0,0.0,0.0,0.0,0.0,0.0,0.0,0.0,0.0,0.0,0.0,0.0,0.0,0.0,0.0,0.0,0.0,0.0,0.0,0.0,0.0,0.0,0.0,0.0,0.0,0.0,0.0,0.0,0.0,0.0,0.0,0.0,0.0,0.0,0.0,0.0,0.0,0.0,0.0,0.0,0.0,0.0,0.0,0.0,0.0,0.0,0.0,0.0,0.0,0.0,0.0,0.0,0.0,0.0,0.0,0.0,0.0,0.0,0.0,0.0,0.0,0.0,0.0,0.0,0.0,0.0,0.0,0.0,0.0,0.0,0.0,0.0,0.0,0.0,0.0,0.0,0.0,0.0,0.0,0.0,0.0,0.0,0.0,0.0,0.0,0.0,0.0,0.0,0.0,0.0,0.0,0.0,0.0,0.0,0.0,0.0,0.0,0.0,0.0,0.0,0.0,0.0,0.0,0.0,0.0,0.0,0.0,0.0,0.0,0.0,0.0,0.0,0.0,0.0,0.0,0.0,0.0,0.0,0.0,0.0,0.0,0.0,0.0,0.0,0.0,0.0,0.0,0.0,0.0,0.0,0.0,0.0,0.0,0.0,0.0,0.0,0.0,0.0,0.0,0.0,0.0,0.0,0.0,0.0,0.0,0.0,0.0,0.0,0.0,0.0,0.0,0.0,0.0,0.0,0.0,0.0,0.0,0.0,0.0,0.0,0.0,0.0,0.0,0.0,0.0,0.0,0.0,0.0,0.0,0.0,0.0,0.0,0.0,0.0,0.0,0.0,0.0,0.0,0.0,0.0,0.0,0.0,0.0,0.0,0.0,0.0,0.0,0.0,0.0,0.0,0.0,0.0,0.0,0.0,0.0,0.0,0.0,0.0,0.0,0.0,0.0,0.0,0.0,0.0,0.0,0.0,0.0,0.0,0.0,0.0,0.0,0.0,0.0,0.0,0.0,0.0,0.0,0.0,0.0,0.0,0.0,0.0,0.0,0.0,0.0,0.0,0.0,0.0,0.0,0.0,0.0,0.0,0.0,0.0,0.0,0.0,0.0,0.0,0.0,0.0,0.0,0.0,0.0,0.0,0.0,0.0,0.0,0.0,0.0,0.0,0.0,0.0,0.0,0.0,0.0,0.0,0.0,0.0,0.0,0.0,0.0,0.0,0.0,0.0,0.0,0.0,0.0,0.0,0.0,0.0,0.0,0.0,0.0,0.0,0.0,0.0,0.0,0.0,0.0,0.0,0.0,0.0,0.0,0.0,0.0,0.0,0.0,0.0,0.0,0.0,0.0,0.0,0.0,0.0,0.0,0.0,0.0,0.0,0.0,0.0,0.0,0.0,0.0,0.0,0.0,0.0,0.0,0.0,0.0,0.0,0.0,0.0,0.0,0.0,0.0,0.0,0.0,0.0,0.0,0.0,0.0,0.0,0.0,0.0,0.0,0.0,0.0,0.0,0.0,0.0,0.0,0.0,0.0,0.0,0.0,0.0,0.0,0.0,0.0,0.0,0.0,0.0,0.0,0.0,0.0,0.0,0.0,0.0,0.0,0.0,0.0,0.0,0.0,0.0,0.0,0.0,0.0,0.0,0.0,0.0,0.0,0.0,0.0,0.0,0.0,0.0,0.0,0.0,0.0,0.0,0.0,0.0,0.0,0.0,0.0,0.0,0.0,0.0,0.0,0.0,0.0,0.0,0.0,0.0,0.0,0.0,0.0,0.0,0.0,0.0,0.0,0.0,0.0,0.0,0.0,0.0,0.0,0.0,0.0,0.0,0.0,0.0,0.0,0.0,0.0,0.0,0.0,0.0,0.0,0.0,0.0,0.0,0.0,0.0,0.0,0.0,0.0,0.0,0.0,0.0,0.0,0.0,0.0,0.0,0.0,0.0,0.0,0.0,0.0,0.0,0.0,0.0,0.0,0.0,0.0,0.0,0.0,0.0,0.0,0.0,0.0,0.0,0.0,0.0,0.0,0.0,0.9326,0.0,0.0,0.0,0.0,0.0,0.0,0.0,0.0,0.0,0.0,0.0,0.0,0.0,0.0,0.0,0.0,0.0,0.0,0.0,0.0,0.0,0.0,0.0,0.0,0.0,0.0,0.0,0.0,0.0,0.0,0.0,0.0,0.0,0.0,0.0,0.0,0.0,0.0,0.0,0.0,0.0,0.0,0.0,0.0,0.0,0.0,0.0,0.0,0.0,0.0,0.0,0.0,0.0,0.0,0.0,0.0,0.0,0.0,0.0,0.0,0.0,0.0,0.0,0.0,0.0,0.0,0.0,0.0,0.0,0.0,0.0,0.0,0.0,0.0,0.0,0.0,0.0,0.0,0.0,0.0,0.0,0.0,0.0,0.0,0.0,0.0,0.0,0.0,0.0,0.0,0.0,0.0,0.0,0.0,0.0,0.0,0.0,0.0,0.0,0.0,0.0,0.0,0.0,0.0,0.0,0.0,0.0,0.0,0.0,0.0,1.59,1.4632,1.3435,1.1882,0.9943,0.0,0.0,0.0,0.0,0.0,0.0,0.0,0.0,0.0,0.0,0.0,0.0,0.0,0.0,0.0,0.0,0.0,0.0,0.0,0.0,0.0,0.0,0.0,0.0,0.0,0.0,0.0,0.0,0.0,0.0,0.0,0.0,0.0,0.0,0.0,0.0,0.0,0.0,0.0,0.0,0.0,0.0,0.0,0.0,0.0,0.0,0.0,0.0,0.0,0.0,0.0,0.0,0.0,0.0,0.0,0.0,0.0,0.0,0.0,0.0,0.0,0.0,0.0,0.0,0.0,0.0,0.0,0.0,0.0,0.0,0.0,0.0,0.0,0.0,0.0,0.0,0.0,0.0,0.0,0.0,0.0,0.0,0.0,0.0,0.0,0.0,0.0,0.0,0.0,0.0,0.0,0.0,0.0,0.0,0.0,0.0,0.0,0.0,0.0,0.0,0.0,0.0,0.0,0.0,0.0,0.0,0.0,0.0,0.0,0.0,0.0,0.0,1.4261,1.2691,1.059,0.0,0.0,0.0,0.0,0.0,0.0,0.0,0.0,0.0,0.0,0.0,0.0,0.0,0.0,0.0,0.0,0.0,0.0,0.0,0.0,0.0,0.0,0.0,0.0,0.0,0.0,0.0,0.0,0.0,0.0,0.0,0.0,0.0,0.0,0.0,0.0,0.0,0.0,0.0,0.0,0.0,0.0,0.0,0.0,0.0,0.0,0.0,0.0,0.0,0.0,0.0,0.0,0.0,0.0,0.0,0.0,0.0,0.0,0.0,0.0,0.0,0.0,0.0,0.0,0.0,0.0,0.0,0.0,0.0,0.0,0.0,0.0,0.0,0.0,0.0,0.0,0.0,0.0,0.0,0.0,0.0,0.0,0.0,0.0,0.0,0.0,0.0,0.0,0.0,0.0,0.0,0.0,0.0,0.0,0.0,0.0,0.0,0.0,0.0,0.0,0.0,0.0,0.0,0.0,0.0,0.0,0.0,0.0,0.0,0.0,1.7077,1.6207,1.5292,0.0,1.1474,0.0,0.0,0.0,0.0,0.0,0.0,0.0,0.0,0.0,0.0,0.0,0.0,0.0,0.0,0.0,0.0,0.0,0.0,0.0,0.0,0.0,0.0,0.0,0.0,0.0,0.0,0.0,0.0,0.0,0.0,0.0,0.0,0.0,0.0,0.0,0.0,0.0,0.0,0.0,0.0,0.0,0.0,0.0,0.0,0.0,0.0,0.0,0.0,0.0,0.0,0.0,0.0,0.0,0.0,0.0,0.0,0.0,0.0,0.0,0.0,0.0,0.0,0.0,0.0,0.0,0.0,0.0,0.0,0.0,0.0,0.0,0.0,0.0,0.0,0.0,0.0,0.0,0.0,0.0,0.0,0.0,0.0,0.0,0.0,0.0,0.0,0.0,0.0,0.0,0.0,0.0,0.0,0.0,0.0,0.0,0.0,0.0,0.0,0.0,0.0,0.0,0.0,0.0,0.0,0.0,0.0,0.0,0.0,0.0,0.0,1.797,1.761,1.5693,1.3932,0.0,0.0,0.0,0.0,0.0,0.0,0.0,0.0,0.0,0.0,0.0,0.0,0.0,0.0,0.0,0.0,0.0,0.0,0.0,0.0,0.0,0.0,0.0,0.0,0.0,0.0,0.0,0.0,0.0,0.0,0.0,0.0,0.0,0.0,0.0,0.0,0.0,0.0,0.0,0.0,0.0,0.0,0.0,0.0,0.0,0.0,0.0,0.0,0.0,0.0,0.0,0.0,0.0,0.0,0.0,0.0,0.0,0.0,0.0,0.0,0.0,0.0,0.0,0.0,0.0,0.0,0.0,0.0,0.0,0.0,0.0,0.0,0.0,0.0,0.0,0.0,0.0,0.0,0.0,0.0,0.0,0.0,0.0,0.0,0.0,0.0,0.0,0.0,0.0,0.0,0.0,0.0,0.0,0.0,0.0,0.0,0.0,0.0,0.0,0.0,0.0,0.0,0.0,0.0,0.0,0.0,0.0,0.0,0.0,0.0,1.8341,1.8064,1.7587,1.5329,1.3717,1.3018,0.0,0.0,0.0,0.0,0.0,0.0,0.0,0.0,0.0,0.0,0.0,0.0,0.0,0.0,0.0,0.0,0.0,0.0,0.0,0.0,0.0,0.0,0.0,0.0,0.0,0.0,0.0,0.0,0.0,0.0,0.0,0.0,0.0,0.0,0.0,0.0,0.0,0.0,0.0,0.0,0.0,0.0,0.0,0.0,0.0,0.0,0.0,0.0,0.0,0.0,0.0,0.0,0.0,0.0,0.0,0.0,0.0,0.0,0.0,0.0,0.0,0.0,0.0,0.0,0.0,0.0,0.0,0.0,0.0,0.0,0.0,0.0,0.0,0.0,0.0,0.0,0.0,0.0,0.0,0.0,0.0,0.0,0.0,0.0,0.0,0.0,0.0,0.0,0.0,0.0,0.0,0.0,0.0,0.0,0.0,0.0,0.0,0.0,0.0,0.0,0.0,0.0,0.0,0.0,0.0,0.0,0.0,0.0,0.0,1.7923,1.6999,1.569,1.4026,1.3016,0.0,0.0,0.0,0.0,0.0,0.0,0.0,0.0,0.0,0.0,0.0,0.0,0.0,0.0,0.0,0.0,0.0,0.0,0.0,0.0,0.0,0.0,0.0,0.0,0.0,0.0,0.0,0.0,0.0,0.0,0.0,0.0,0.0,0.0,0.0,0.0,0.0,0.0,0.0,0.0,0.0,0.0,0.0,0.0,0.0,0.0,0.0,0.0,0.0,0.0,0.0,0.0,0.0,0.0,0.0,0.0,0.0,0.0,0.0,0.0,0.0,0.0,0.0,0.0,0.0,0.0,0.0,0.0,0.0,0.0,0.0,0.0,0.0,0.0,0.0,0.0,0.0,0.0,0.0,0.0,0.0,0.0,0.0,0.0,0.0,0.0,0.0,0.0,0.0,0.0,0.0,0.0,0.0,0.0,0.0,0.0,0.0,0.0,0.0,0.0,0.0,0.0,0.0,0.0,0.0,0.0,0.0,0.0,0.0,1.8187,1.7275,1.6143,1.4826,1.353,1.2668,0.0,0.0,0.0,0.0,0.0,0.0,0.0,0.0,0.0,0.0,0.0,0.0,0.0,0.0,0.0,0.0,0.0,0.0,0.0,0.0,0.0,0.0,0.0,0.0,0.0,0.0,0.0,0.0,0.0,0.0,0.0,0.0,0.0,0.0,0.0,0.0,0.0,0.0,0.0,0.0,0.0,0.0,0.0,0.0,0.0,0.0,0.0,0.0,0.0,0.0,0.0,0.0,0.0,0.0,0.0,0.0,0.0,0.0,0.0,0.0,0.0,0.0,0.0,0.0,0.0,0.0,0.0,0.0,0.0,0.0,0.0,0.0,0.0,0.0,0.0,0.0,0.0,0.0,0.0,0.0,0.0,0.0,0.0,0.0,0.0,0.0,0.0,0.0,0.0,0.0,0.0,0.0,0.0,0.0,0.0,0.0,0.0,0.0,0.0,0.0,0.0,0.0,0.0,0.0,0.0,0.0,0.0,0.0,0.0,1.7499,0.0,1.5518,0.0,1.3201,1.2525,0.0,0.0,0.0,0.0,0.0,0.0,0.0,0.0,0.0,0.0,0.0,0.0,0.0,0.0,0.0,0.0,0.0,0.0,0.0,0.0,0.0,0.0,0.0,0.0,0.0,0.0,0.0,0.0,0.0,0.0,0.0,0.0,0.0,0.0,0.0,0.0,0.0,0.0,0.0,0.0,0.0,0.0,0.0,0.0,0.0,0.0,0.0,0.0,0.0,0.0,0.0,0.0,0.0,0.0,0.0,0.0,0.0,0.0,0.0,0.0,0.0,0.0,0.0,0.0,0.0,0.0,0.0,0.0,0.0,0.0,0.0,0.0,0.0,0.0,0.0,0.0,0.0,0.0,0.0,0.0,0.0,0.0,0.0,0.0,0.0,0.0,0.0,0.0,0.0,0.0,0.0,0.0,0.0,0.0,0.0,0.0,0.0,0.0,0.0,0.0,0.0,0.0,0.0,0.0,0.0,0.0,0.0,0.0,1.7199,1.6361,1.6012,1.5199,1.3868,1.3062,1.263,0.0,0.0,0.0,0.0,0.0,0.0,0.0,0.0,0.0,0.0,0.0,0.0,0.0,0.0,0.0,0.0,0.0,0.0,0.0,0.0,0.0,0.0,0.0,0.0,0.0,0.0,0.0,0.0,0.0,0.0,0.0,0.0,0.0,0.0,0.0,0.0,0.0,0.0,0.0,0.0,0.0,0.0,0.0,0.0,0.0,0.0,0.0,0.0,0.0,0.0,0.0,0.0,0.0,0.0,0.0,0.0,0.0,0.0,0.0,0.0,0.0,0.0,0.0,0.0,0.0,0.0,0.0,0.0,0.0,0.0,0.0,0.0,0.0,0.0,0.0,0.0,0.0,0.0,0.0,0.0,0.0,0.0,0.0,0.0,0.0,0.0,0.0,0.0,0.0,0.0,0.0,0.0,0.0,0.0,0.0,0.0,0.0,0.0,0.0,0.0,0.0,0.0,0.0,0.0,0.0,0.0,0.0,0.0,0.0,1.6935,1.6352,1.5583,1.4516,1.3438,1.2849,0.0,0.0,0.0,0.0,0.0,0.0,0.0,0.0,0.0,0.0,0.0,0.0,0.0,0.0,0.0,0.0,0.0,0.0,0.0,0.0,0.0,0.0,0.0,0.0,0.0,0.0,0.0,0.0,0.0,0.0,0.0,0.0,0.0,0.0,0.0,0.0,0.0,0.0,0.0,0.0,0.0,0.0,0.0,0.0,0.0,0.0,0.0,0.0,0.0,0.0,0.0,0.0,0.0,0.0,0.0,0.0,0.0,0.0,0.0,0.0,0.0,0.0,0.0,0.0,0.0,0.0,0.0,0.0,0.0,0.0,0.0,0.0,0.0,0.0,0.0,0.0,0.0,0.0,0.0,0.0,0.0,0.0,0.0,0.0,0.0,0.0,0.0,0.0,0.0,0.0,0.0,0.0,0.0,0.0,0.0,0.0,0.0,0.0,0.0,0.0,0.0,0.0,0.0,0.0,0.0,0.0,0.0,0.0,0.0,1.8594,1.7553,1.6443,1.534,1.4167,1.346,1.3297,0.0,0.0,0.0,0.0,0.0,0.0,0.0,0.0,0.0,0.0,0.0,0.0,0.0,0.0,0.0,0.0,0.0,0.0,0.0,0.0,0.0,0.0,0.0,0.0,0.0,0.0,0.0,0.0,0.0,0.0,0.0,0.0,0.0,0.0,0.0,0.0,0.0,0.0,0.0,0.0,0.0,0.0,0.0,0.0,0.0,0.0,0.0,0.0,0.0,0.0,0.0,0.0,0.0,0.0,0.0,0.0,0.0,0.0,0.0,0.0,0.0,0.0,0.0,0.0,0.0,0.0,0.0,0.0,0.0,0.0,0.0,0.0,0.0,0.0,0.0,0.0,0.0,0.0,0.0,0.0,0.0,0.0,0.0,0.0,0.0,0.0,0.0,0.0,0.0,0.0,0.0,0.0,0.0,0.0,0.0,0.0,0.0,0.0,0.0,0.0,0.0,0.0,0.0,0.0,0.0,0.0,0.0,0.0,2.1066,1.9422,1.7871,1.6447,1.5238,1.445,0.0,0.0,0.0,0.0,0.0,0.0,0.0,0.0,0.0,0.0,0.0,0.0,0.0,0.0,0.0,0.0,0.0,0.0,0.0,0.0,0.0,0.0,0.0,0.0,0.0,0.0,0.0,0.0,0.0,0.0,0.0,0.0,0.0,0.0,0.0,0.0,0.0,0.0,0.0,0.0,0.0,0.0,0.0,0.0,0.0,0.0,0.0,0.0,0.0,0.0,0.0,0.0,0.0,0.0,0.0,0.0,0.0,0.0,0.0,0.0,0.0,0.0,0.0,0.0,0.0,0.0,0.0,0.0,0.0,0.0,0.0,0.0,0.0,0.0,0.0,0.0,0.0,0.0,0.0,0.0,0.0,0.0,0.0,0.0,0.0,0.0,0.0,0.0,0.0,0.0,0.0,0.0,0.0,0.0,0.0,0.0,0.0,0.0,0.0,0.0,0.0,0.0,0.0,0.0,0.0,0.0,0.0,0.0,0.0,2.1077,2.1339,2.0576,1.8685,1.6916,1.5549,0.0,0.0,0.0,0.0,0.0,0.0,0.0,0.0,0.0,0.0,0.0,0.0,0.0,0.0,0.0,0.0,0.0,0.0,0.0,0.0,0.0,0.0,0.0,0.0,0.0,0.0,0.0,0.0,0.0,0.0,0.0,0.0,0.0,0.0,0.0,0.0,0.0,0.0,0.0,0.0,0.0,0.0,0.0,0.0,0.0,0.0,0.0,0.0,0.0,0.0,0.0,0.0,0.0,0.0,0.0,0.0,0.0,0.0,0.0,0.0,0.0,0.0,0.0,0.0,0.0,0.0,0.0,0.0,0.0,0.0,0.0,0.0,0.0,0.0,0.0,0.0,0.0,0.0,0.0,0.0,0.0,0.0,0.0,0.0,0.0,0.0,0.0,0.0,0.0,0.0,0.0,0.0,0.0,0.0,0.0,0.0,0.0,0.0,0.0,0.0,0.0,0.0,0.0,0.0,0.0,0.0,0.0,0.0,2.0797,2.2001,2.25,2.2076,2.0627,1.8226,1.6476,0.0,0.0,0.0,0.0,0.0,0.0,0.0,0.0,0.0,0.0,0.0,0.0,0.0,0.0,0.0,0.0,0.0,0.0,0.0,0.0,0.0,0.0,0.0,0.0,0.0,0.0,0.0,0.0,0.0,0.0,0.0,0.0,0.0,0.0,0.0,0.0,0.0,0.0,0.0,0.0,0.0,0.0,0.0,0.0,0.0,0.0,0.0,0.0,0.0,0.0,0.0,0.0,0.0,0.0,0.0,0.0,0.0,0.0,0.0,0.0,0.0,0.0,0.0,0.0,0.0,0.0,0.0,0.0,0.0,0.0,0.0,0.0,0.0,0.0,0.0,0.0,0.0,0.0,0.0,0.0,0.0,0.0,0.0,0.0,0.0,0.0,0.0,0.0,0.0,0.0,0.0,0.0,0.0,0.0,0.0,0.0,0.0,0.0,0.0,0.0,0.0,0.0,0.0,0.0,0.0,0.0,0.0,0.0,2.1331,2.3234,2.3137,2.277,2.2153,1.9324,1.7362,0.0,0.0,0.0,0.0,0.0,0.0,0.0,0.0,0.0,0.0,0.0,0.0,0.0,0.0,0.0,0.0,0.0,0.0,0.0,0.0,0.0,0.0,0.0,0.0,0.0,0.0,0.0,0.0,0.0,0.0,0.0,0.0,0.0,0.0,0.0,0.0,0.0,0.0,0.0,0.0,0.0,0.0,0.0,0.0,0.0,0.0,0.0,0.0,0.0,0.0,0.0,0.0,0.0,0.0,0.0,0.0,0.0,0.0,0.0,0.0,0.0,0.0,0.0,0.0,0.0,0.0,0.0,0.0,0.0,0.0,0.0,0.0,0.0,0.0,0.0,0.0,0.0,0.0,0.0,0.0,0.0,0.0,0.0,0.0,0.0,0.0,0.0,0.0,0.0,0.0,0.0,0.0,0.0,0.0,0.0,0.0,0.0,0.0,0.0,0.0,0.0,0.0,0.0,0.0,0.0,0.0,0.0,0.0,2.2164,2.3248,2.3318,2.3192,2.2964,2.0255,1.8232,0.0,0.0,0.0,0.0,0.0,0.0,0.0,0.0,0.0,0.0,0.0,0.0,0.0,0.0,0.0,0.0,0.0,0.0,0.0,0.0,0.0,0.0,0.0,0.0,0.0,0.0,0.0,0.0,0.0,0.0,0.0,0.0,0.0,0.0,0.0,0.0,0.0,0.0,0.0,0.0,0.0,0.0,0.0,0.0,0.0,0.0,0.0,0.0,0.8689,0.0,0.0,0.0,0.0,0.0,0.0,0.0,0.0,0.0,0.0,0.0,0.0,0.0,0.0,0.0,0.0,0.0,0.0,0.0,0.0,0.0,0.0,0.0,0.0,0.0,0.0,0.0,0.0,0.0,0.0,0.0,0.0,0.0,0.0,0.0,0.0,0.0,0.0,0.0,0.0,0.0,0.0,0.0,0.0,0.0,0.0,0.0,0.0,0.0,0.0,0.0,0.0,0.0,0.0,0.0,0.0,0.0,0.0,0.0,2.2766,2.3865,2.3773,2.3781,2.392,2.2188,2.0376,0.0,0.0,0.0,0.0,0.0,0.0,0.0,0.0,0.0,0.0,0.0,0.0,0.0,0.0,0.0,0.0,0.0,0.0,0.0,0.0,0.0,0.0,0.0,0.0,0.0,0.0,0.0,0.0,0.0,0.0,0.0,0.0,0.0,0.0,0.0,0.0,0.0,0.0,0.0,0.0,0.0,0.0,0.0,0.0,0.0,0.0,0.0,0.0,0.0,0.0,0.0,0.0,0.0,0.0,0.0,0.0,0.0,0.0,0.0,0.0,0.0,0.0,0.0,0.0,0.0,0.0,0.0,0.0,0.0,0.0,0.0,0.0,0.0,0.0,0.0,0.0,0.0,0.0,0.0,0.0,0.0,0.0,0.0,0.0,0.0,0.0,0.0,0.0,0.0,0.0,0.0,0.0,0.0,0.0,0.0,0.0,0.0,0.0,0.0,0.0,0.0,0.0,0.0,0.0,0.0,0.0,0.0,2.2175,2.3323,2.4599,2.4277,2.4376,2.4962,2.3946,2.2474,2.0515,0.0,0.0,0.0,0.0,0.0,0.0,0.0,0.0,0.0,0.0,0.0,0.0,0.0,0.0,0.0,0.0,0.0,0.0,0.0,0.0,0.0,0.0,0.0,0.0,0.0,0.0,0.0,0.0,0.0,0.0,0.0,0.0,0.0,0.0,0.0,0.0,0.0,0.0,0.8621,0.8866,0.0,0.0,0.0,0.0,0.0,0.0,0.0,0.0,0.8907,0.0,0.0,0.0,0.0,0.0,0.0,0.0,0.0,0.0,0.0,0.0,0.0,0.0,0.0,0.0,0.0,0.0,0.0,0.0,0.0,0.0,0.0,0.0,0.0,0.0,0.0,0.0,0.0,0.0,0.0,0.0,0.0,0.0,0.0,0.0,0.0,0.0,0.0,0.0,0.0,0.0,0.0,0.0,0.0,0.0,0.0,0.0,0.0,0.0,0.0,0.0,0.0,0.0,0.0,0.0,0.0,2.1847,2.3207,2.4262,2.4983,2.4622,2.4723,2.5318,2.3515,2.234,2.1974,0.0,0.0,0.0,0.0,0.0,0.0,0.0,0.0,0.0,0.0,0.0,0.0,0.0,0.0,0.0,0.0,0.0,0.0,0.0,0.0,0.0,0.0,0.0,0.0,0.0,0.0,0.0,0.0,0.0,0.0,0.0,0.0,0.0,0.0,0.0,0.0,0.0,0.0,0.0,0.9388,0.9495,0.0,0.0,0.0,0.0,0.0,0.0,0.0,0.0,0.9391,0.0,0.0,0.0,0.0,0.0,0.0,0.0,0.0,0.0,0.0,0.0,0.0,0.0,0.0,0.0,0.0,0.0,0.0,0.0,0.0,0.0,0.0,0.0,0.0,0.0,0.0,0.0,0.0,0.0,0.0,0.0,0.0,0.0,0.0,0.0,0.0,0.0,0.0,0.0,0.0,0.0,0.0,0.0,0.0,0.0,0.0,0.0,0.0,0.0,0.0,0.0,0.0,0.0,0.0,0.0,2.2422,2.3754,2.4698,2.5277,2.4987,2.4955,2.5251,2.3572,2.2426,0.0,0.0,0.0,0.0,0.0,0.0,0.0,0.0,0.0,0.0,0.0,0.0,0.0,0.0,0.0,0.0,0.0,0.0,0.0,0.0,0.0,0.0,0.0,0.0,0.0,0.0,0.0,0.0,0.0,0.0,0.0,0.0,0.0,0.0,0.0,0.0,0.0,0.0,0.0,0.0,0.9631,0.9805,0.9805,0.0,0.0,0.0,0.0,0.0,0.0,0.9867,0.9724,0.0,0.0,0.0,0.0,0.0,0.0,0.0,0.0,0.0,0.0,0.0,0.0,0.0,0.0,0.0,0.0,0.0,0.0,0.0,0.0,0.0,0.0,0.0,0.0,0.0,0.0,0.0,0.0,0.0,0.0,0.0,0.0,0.0,0.0,0.0,0.0,0.0,0.0,0.0,0.0,0.0,0.0,0.0,0.0,0.0,0.0,0.0,0.0,0.0,0.0,0.0,0.0,0.0,0.0,0.0,2.2853,2.4137,2.5018,2.5459,2.5363,2.5243,2.5144,2.3763,2.2572,0.0,0.0,0.0,0.0,0.0,0.0,0.0,0.0,0.0,0.0,0.0,0.0,0.0,0.0,0.0,0.0,0.0,0.0,0.0,0.0,0.0,0.0,0.0,0.0,0.0,0.0,0.0,0.0,0.0,0.0,0.0,0.0,0.0,0.0,0.0,0.0,0.0,0.0,0.0,0.0,0.0,1.0244,1.015,0.9905,0.0,0.0,0.0,0.0,1.0524,1.0465,0.0,0.0,0.0,0.0,0.0,0.0,0.0,0.0,0.0,0.0,0.0,0.0,0.0,0.0,0.0,0.0,0.0,0.0,0.0,0.0,0.0,0.0,0.0,0.0,0.0,0.0,0.0,0.0,0.0,0.0,0.0,0.0,0.0,0.0,0.0,0.0,0.0,0.0,0.0,0.0,0.0,0.0,0.0,0.0,0.0,0.0,0.0,0.0,0.0,0.0,0.0,0.0,0.0,0.0,0.0,0.0,2.2863,2.4543,2.5432,2.5499,2.577,2.577,2.5432,2.4017,2.2846,0.0,0.0,0.0,0.0,0.0,0.0,0.0,0.0,0.0,0.0,0.0,0.0,0.0,0.0,0.0,0.0,0.0,0.0,0.0,0.0,0.0,0.0,0.0,0.0,0.0,0.0,0.0,0.0,0.0,0.0,0.0,0.0,0.0,0.0,0.0,0.0,0.0,0.0,0.0,0.0,0.0,1.1094,1.0676,1.0692,1.0768,0.0,0.0,1.1154,1.1408,1.1562,0.0,0.0,0.0,0.0,0.0,0.0,0.0,0.0,0.0,0.0,0.0,0.0,0.0,0.0,0.0,0.0,0.0,0.0,0.0,0.0,0.0,0.0,0.0,0.0,0.0,0.0,0.0,0.0,0.0,0.0,0.0,0.0,0.0,0.0,0.0,0.0,0.0,0.0,0.0,0.0,0.0,0.0,0.0,0.0,0.0,0.0,0.0,0.0,0.0,0.0,0.0,0.0,0.0,0.0,0.0,2.1096,2.288,2.4609,2.5518,2.5499,2.5837,2.5784,2.5277,2.399,2.2819,0.0,0.0,0.0,0.0,0.0,0.0,0.0,0.0,0.0,0.0,0.0,0.0,0.0,0.0,0.0,0.0,0.0,0.0,0.0,0.0,0.0,0.0,0.0,0.0,0.0,0.0,0.0,0.0,0.0,0.0,0.0,0.0,0.0,0.0,0.0,0.0,0.0,0.0,0.0,0.0,0.0,0.0,1.1428,1.1289,0.0,0.0,0.0,1.1845,1.2363,0.0,0.0,0.0,0.0,0.0,0.0,0.0,0.0,0.0,0.0,0.0,0.0,0.0,0.0,0.0,0.0,0.0,0.0,0.0,0.0,0.0,0.0,0.0,0.0,0.0,0.0,0.0,0.0,0.0,0.0,0.0,0.0,0.0,0.0,0.0,0.0,0.0,0.0,0.0,0.0,0.0,0.0,0.0,0.0,0.0,0.0,0.0,0.0,0.0,0.0,0.0,0.0,0.0,0.0,0.0,0.0,0.0,2.2983,2.4649,2.5545,2.5638,2.5944,2.5864,2.5323,2.4235,0.0,0.0,0.0,0.0,0.0,0.0,0.0,0.0,0.0,0.0,0.0,0.0,0.0,0.0,0.0,0.0,0.0,0.0,0.0,0.0,0.0,0.0,0.0,0.0,0.0,0.0,0.0,0.8794,0.0,0.0,0.0,0.0,0.0,0.0,0.0,0.0,0.0,0.0,0.0,0.0,0.0,0.0,1.1938,1.2179,1.2074,1.2185,0.0,0.0,1.2616,1.3267,1.3381,1.3145,0.0,0.0,0.0,0.0,0.0,0.0,0.0,0.0,0.0,0.0,0.0,0.0,0.0,0.0,0.0,0.0,0.0,0.0,0.0,0.0,0.0,0.0,0.0,0.0,0.0,0.0,0.0,0.0,0.0,0.0,0.0,0.0,0.0,0.0,0.0,0.0,0.0,0.0,0.0,0.0,0.0,0.0,0.0,0.0,0.0,0.0,0.0,0.0,0.0,0.0,0.0,0.0,0.0,0.0,0.0,2.3225,2.4756,2.5651,2.5977,2.6232,2.6252,2.5931,2.5024,2.3981,0.0,0.0,0.0,0.0,0.0,0.0,0.0,0.0,0.0,0.0,0.0,0.0,0.0,0.0,0.0,0.0,0.0,0.0,0.0,0.0,0.0,0.0,0.0,0.0,0.0,0.0,0.0,0.0,0.0,0.0,0.0,0.0,0.0,0.0,0.0,0.0,0.0,0.0,0.0,0.0,0.0,1.2988,1.2767,1.3205,1.3548,0.0,1.3461,1.3575,1.4038,1.3977,1.3658,1.3115,0.0,0.0,0.0,0.0,0.0,0.0,0.0,0.0,0.0,0.0,0.0,0.0,0.0,0.0,0.0,0.0,0.0,0.0,0.0,0.0,0.0,0.0,0.0,0.0,0.0,0.0,0.0,0.0,0.0,0.0,0.0,0.0,0.0,0.0,0.0,0.0,0.0,0.0,0.0,0.0,0.0,0.0,0.0,0.0,0.0,0.0,0.0,0.0,0.0,0.0,0.0,0.0,0.0,2.1523,2.3581,2.5056,2.5858,2.5978,2.6259,2.6272,2.5998,2.5438,2.4524,0.0,0.0,0.0,0.0,0.0,0.0,0.0,0.0,0.0,0.0,0.0,0.0,0.0,0.0,0.0,0.0,0.0,0.0,0.0,0.0,0.0,0.0,0.0,0.0,0.0,0.0,0.0,0.0,0.9376,0.932,0.9439,0.0,0.0,0.0,0.0,0.0,0.0,0.0,0.0,0.0,0.0,1.3476,1.3733,1.3966,0.0,0.0,1.4284,1.421,1.4449,1.443,1.414,1.3401,1.2491,0.0,0.0,0.0,0.0,0.0,0.0,0.0,0.0,0.0,0.0,0.0,0.0,0.0,0.0,0.0,0.0,0.0,0.0,0.0,0.0,0.0,0.0,0.0,0.0,0.0,0.0,0.0,0.0,0.0,0.0,0.0,0.0,0.0,0.0,0.0,0.0,0.0,0.0,0.0,0.0,0.0,0.0,0.0,0.0,0.0,0.0,0.0,0.0,0.0,0.0,0.0,0.0,2.1753,2.3892,2.5382,2.6172,2.6232,2.6526,2.6526,2.6246,2.5932,2.509,0.0,0.0,0.0,0.0,0.0,0.0,0.0,0.0,0.0,0.0,0.0,0.0,0.0,0.0,0.0,0.0,0.0,0.0,0.0,0.0,0.0,0.0,0.0,0.0,0.0,0.0,0.0,0.0,0.9649,0.9567,0.9591,0.0,0.0,0.0,0.0,0.0,0.0,0.0,0.0,0.0,0.0,1.3874,1.4336,1.4495,1.4685,1.496,1.4835,1.4699,1.4703,1.4619,1.4294,1.3571,0.0,0.0,0.0,0.0,0.0,0.0,0.0,0.0,0.0,0.0,0.0,0.0,0.0,0.0,0.0,0.0,0.0,0.0,0.0,0.0,0.0,0.0,0.0,0.0,0.0,0.0,0.0,1.7595,0.0,0.0,1.7568,0.0,0.0,0.0,0.0,0.0,0.0,0.0,0.0,0.0,0.0,0.0,0.0,0.0,0.0,0.0,0.0,0.0,0.0,0.0,0.0,0.0,0.0,2.186,2.415,2.5638,2.654,2.6767,2.7115,2.7094,2.678,2.652,2.5665,2.4182,0.0,0.0,0.0,0.0,0.0,0.0,0.0,0.0,0.0,0.0,0.0,0.0,0.0,0.0,0.0,0.0,0.0,0.0,0.0,0.0,0.0,0.0,0.0,0.0,0.0,0.0,1.0225,1.0007,0.9803,0.0,0.0,0.0,0.0,0.0,0.0,0.0,0.0,0.0,1.2686,1.3586,1.4237,1.4397,1.4868,1.5124,1.502,1.5103,1.5075,1.4765,1.4442,1.4066,0.0,0.0,0.0,0.0,0.0,0.0,0.0,0.0,0.0,0.0,0.0,0.0,0.0,0.0,0.0,0.0,0.0,0.0,0.0,0.0,0.0,0.0,0.0,0.0,0.0,0.0,0.0,1.9943,1.9693,0.0,0.0,0.0,0.0,0.0,0.0,0.0,0.0,0.0,0.0,0.0,2.2135,2.2445,0.0,0.0,0.0,0.0,0.0,0.0,0.0,0.0,0.0,0.0,0.0,0.0,2.2124,2.4417,2.5913,2.67,2.6807,2.7128,2.7235,2.7141,2.666,2.5331,2.3069,0.0,0.0,0.0,0.0,0.0,0.0,0.0,0.0,0.0,0.0,0.0,0.0,0.0,0.0,0.0,0.0,0.0,0.0,0.0,0.0,0.0,0.0,0.0,0.0,0.0,1.1389,0.0,0.0,0.0,0.0,0.0,0.0,0.0,0.0,0.0,0.0,0.0,1.2556,1.3116,1.3855,1.4456,1.4768,1.5127,1.5398,0.0,0.0,0.0,0.0,0.0,0.0,0.0,0.0,0.0,0.0,0.0,0.0,0.0,0.0,1.3565,1.3068,1.3006,1.2949,1.2829,0.0,0.0,0.0,0.0,0.0,0.0,0.0,0.0,0.0,0.0,0.0,0.0,0.0,0.0,2.1638,2.1269,2.0655,0.0,0.0,0.0,0.0,0.0,0.0,0.0,0.0,2.3322,2.3888,2.4066,2.4507,2.466,0.0,2.4673,2.3474,0.0,0.0,0.0,0.0,0.0,0.0,0.0,0.0,2.2472,2.4559,2.6153,2.6974,2.7001,2.7403,2.7563,2.7422,2.6673,2.5224,2.3113,2.1691,2.0212,0.0,0.0,0.0,0.0,0.0,0.0,0.0,0.0,0.0,0.0,0.0,0.0,0.0,0.0,0.0,0.0,0.0,0.0,0.0,0.0,0.0,0.0,0.0,1.2021,0.0,0.0,0.0,0.0,0.0,0.0,0.0,0.0,0.0,1.1882,1.2466,1.3036,1.3507,1.4115,1.4616,1.4966,0.0,0.0,0.0,0.0,0.0,0.0,0.0,1.4385,1.4367,1.4183,1.4093,1.4268,1.4406,1.4573,1.4798,0.0,0.0,1.4603,1.4464,1.4389,1.4192,1.4219,1.4188,1.3878,1.3959,1.4091,0.0,0.0,0.0,0.0,0.0,0.0,0.0,0.0,2.3245,2.2835,0.0,2.1782,0.0,0.0,0.0,0.0,2.0359,2.1523,0.0,0.0,2.4831,2.5545,2.5565,2.6119,2.6272,2.6065,2.6259,2.5772,2.4564,2.2666,0.0,0.0,0.0,0.0,0.0,0.0,2.2873,2.4586,2.6393,2.7288,2.7309,2.7871,2.8031,2.7655,2.6626,2.547,2.4257,2.3082,2.1787,2.0346,1.9437,0.0,0.0,0.0,0.0,0.0,0.0,0.0,0.0,0.0,0.0,0.0,0.0,0.0,0.0,0.0,0.0,0.0,0.0,0.0,0.0,1.4266,0.0,0.0,0.0,0.0,0.0,0.0,0.0,0.0,0.0,0.0,1.2726,1.3117,1.3565,1.388,0.0,0.0,0.0,0.0,1.5536,1.5517,1.5517,1.5452,1.5245,1.4949,1.4843,1.5164,0.0,0.0,1.5768,1.5938,1.5966,1.5874,1.6097,1.617,1.5622,1.5512,1.5419,1.5237,1.5098,1.5077,1.5168,1.5038,1.5025,2.9559,0.0,0.0,0.0,0.0,2.5586,2.6107,2.6398,2.6224,2.5963,2.5583,2.4491,0.0,0.0,0.0,0.0,0.0,0.0,2.3848,2.4903,2.5745,2.6239,2.6447,2.6861,2.7015,2.6914,2.678,2.6426,2.5852,2.4681,2.317,2.1363,0.0,0.0,0.0,0.0,2.3056,2.4599,2.6373,2.7309,2.7309,2.7884,2.7938,2.7422,2.6867,2.6119,2.517,2.419,2.3082,2.1827,2.0931,0.0,0.0,0.0,0.0,0.0,0.0,0.0,0.0,0.0,0.0,0.0,0.0,0.0,0.0,0.0,0.0,0.0,0.0,0.0,1.6621,1.5804,1.4858,0.0,0.0,0.0,0.0,0.0,0.0,0.0,0.0,0.0,1.4387,1.4232,1.4194,0.0,0.0,1.5342,1.554,1.5748,1.5873,1.5853,1.5853,0.0,1.565,1.5556,1.5545,1.574,1.6067,1.642,1.669,1.6771,1.6766,1.673,1.6803,1.6766,1.6498,1.6104,1.5853,1.5772,1.5666,1.5581,1.5621,1.5675,1.5715,3.372,3.0008,2.8846,2.783,2.713,2.7851,2.8388,2.8783,2.8554,2.8261,2.7876,2.6743,2.5469,2.4137,2.3304,0.0,0.0,0.0,2.5096,2.5892,2.6587,2.7001,2.7167,2.7523,2.7569,2.7469,2.7255,2.7028,2.674,2.6232,2.5216,2.3719,0.0,0.0,2.2258,2.2832,2.3777,2.5138,2.6566,2.7342,2.7462,2.7938,2.7911,2.7336,2.7115,2.6587,2.5718,2.5064,2.4289,2.3292,2.2338,2.1355,0.0,0.0,0.0,0.0,0.0,0.0,0.0,0.0,0.0,0.0,0.0,1.6738,1.6899,0.0,0.0,0.0,1.8205,1.8398,1.8265,1.7865,0.0,0.0,0.0,0.0,0.0,0.0,0.0,1.6365,1.6102,1.593,1.6029,1.5456,1.5046,1.5033,1.5411,1.5768,1.5959,0.0,1.6149,1.6222,1.6174,1.6117,1.6118,1.6052,1.6073,1.6282,1.6647,1.6952,1.7066,1.709,1.709,1.709,1.709,1.7058,1.693,1.659,1.6299,1.6247,1.617,1.6134,1.6186,1.6235,1.6214,3.6986,3.4522,3.2353,3.0667,2.9472,2.9818,3.0296,3.0753,3.0238,2.9813,2.9427,2.8486,2.7299,2.5944,2.492,0.0,2.4868,2.5709,2.6264,2.652,2.7342,2.7743,2.7749,2.8058,2.8045,2.7736,2.7682,2.7522,2.7288,2.7248,2.6968,2.6366,2.4267,2.3304,2.3496,2.4062,2.4909,2.603,2.6894,2.7462,2.7722,2.8045,2.7911,2.7362,2.7349,2.6927,2.6145,2.5791,2.5339,2.4746,2.3679,2.2683,2.1813,0.0,0.0,0.0,0.0,0.0,0.0,0.0,0.0,0.0,0.0,0.0,0.0,0.0,0.0,0.0,1.9251,0.0,2.0618,2.0157,0.0,0.0,0.0,1.7243,1.7767,1.8016,1.8364,1.8949,0.0,0.0,1.7599,1.675,1.602,1.5678,1.5898,1.6145,1.6328,1.6352,1.643,1.6622,1.6487,1.643,1.6576,1.6479,1.6466,1.6744,1.6985,1.7074,1.7082,1.709,1.709,1.709,1.709,1.709,1.709,1.6914,1.6777,1.667,1.66,1.6641,1.6712,1.6685,1.6657,3.9769,3.7195,3.601,3.3154,2.9496,3.0246,3.0665,3.0811,3.092,3.0788,3.0437,2.972,2.8772,2.7663,2.6911,2.6655,2.6825,2.7049,2.7216,2.7388,2.7602,2.7837,2.8085,2.8173,2.8138,2.8045,2.7596,2.7376,2.7275,2.7041,2.6747,2.6406,2.6039,2.5565,2.5024,2.5377,2.5804,2.6299,2.7148,2.7756,2.8093,2.8152,2.8005,2.7623,2.7589,2.7422,2.7015,2.6667,2.6346,2.5972,2.5082,2.4173,2.3308,2.1697,0.0,0.0,0.0,0.0,0.0,0.0,0.0,0.0,0.0,1.8103,1.8827,0.0,1.9225,0.0,2.059,2.1198,2.1293,2.1517,0.0,0.0,2.0163,2.0032,2.0566,2.0846,2.0967,2.0872,2.0211,1.9542,1.896,1.7918,1.7165,1.7045,1.6928,1.6855,1.6895,1.6917,1.6933,1.6958,1.6933,1.6933,1.6958,1.695,1.6912,1.7017,1.7066,1.709,1.709,1.709,1.709,1.709,1.709,1.709,1.709,1.7071,1.7017,1.6982,1.6863,1.6752,1.6779,1.6895,1.6958,4.0935,3.857,3.7691,3.5145,3.17,3.1703,3.1695,3.1695,3.1724,3.1637,3.1425,3.0719,3.0112,2.9514,2.8976,2.8782,2.88,2.8606,2.8534,2.858,2.8382,2.8377,2.8559,2.8559,2.8425,2.8186,2.7724,2.7409,2.7288,2.7115,2.7001,2.7008,2.7268,2.7181,2.6714,2.6486,2.6566,2.6974,2.7609,2.8018,2.8179,2.8213,2.7978,2.7542,2.7529,2.7329,2.6914,2.672,2.656,2.6373,2.5564,2.4761,2.3999,2.2525,2.1011,0.0,0.0,0.0,0.0,0.0,0.0,0.0,0.0,0.0,0.0,0.0,2.059,2.1133,2.1793,2.2315,2.2668,2.3217,2.3403,2.3032,2.2827,2.2833,2.3133,2.3376,2.353,2.3433,2.26,2.1831,2.125,1.9527,1.831,1.8252,1.7593,1.709,1.709,1.709,1.709,1.709,1.709,1.709,1.709,1.709,1.709,1.709,1.709,1.709,1.709,1.709,1.709,1.709,1.709,1.709,1.709,1.709,1.709,1.7074,1.7009,1.6952,1.6952,1.7047,1.705,4.1449,3.9512,3.8575,3.7035,3.5082,3.3973,3.3352,3.3087,3.2813,3.268,3.2636,3.1858,3.1504,3.1375,3.0909,3.063,3.043,2.9895,2.9594,2.9506,2.9136,2.8973,2.897,2.8996,2.8716,2.8245,2.7877,2.7596,2.7342,2.7315,2.7436,2.7696,2.8045,2.8213,2.8173,2.7395,2.7241,2.7749,2.8037,2.8213,2.8213,2.8173,2.7884,2.7389,2.7296,2.6994,2.6466,2.6393,2.6366,2.6379,2.5558,2.4868,2.4315,2.3162,2.1894,0.0,2.0187,0.0,0.0,0.0,0.0,0.0,0.0,0.0,0.0,2.1529,2.2091,2.2588,2.293,2.3438,2.4253,2.481,2.513,2.5149,2.513,2.5176,2.5237,2.5478,2.5697,2.5871,2.4826,2.3999,2.3557,2.1294,1.9607,1.9309,1.8191,1.7353,1.72,1.7156,1.709,1.709,1.709,1.709,1.709,1.709,1.709,1.709,1.709,1.709,1.709,1.709,1.709,1.709,1.709,1.709,1.709,1.709,1.709,1.709,1.7082,1.7074,1.7074,1.7082,1.709,4.3076,4.1659,4.0772,3.9505,3.8025,3.7442,3.6237,3.4686,3.4831,3.4768,3.4523,3.4136,3.3591,3.2934,3.2199,3.1319,3.0308,2.9631,2.9027,2.8583,2.8752,2.8798,2.8698,2.8881,2.8836,2.8497,2.7963,2.7669,2.7636,2.7416,2.7436,2.7696,2.8031,2.8213,2.8179,0.0,0.0,0.0,2.8173,2.8213,2.82,2.793,2.7722,2.7615,2.7148,0.0,2.6714,2.6312,2.6185,2.6366,2.5564,0.0,0.0,0.0,0.0,0.0,0.0,0.0,0.0,0.0,0.0,0.0,2.3109,2.3113,2.2559,2.301,2.3518,2.3817,2.411,2.4462,2.4877,2.5205,2.5424,2.5438,2.5438,2.5611,2.6066,2.6199,2.6294,2.6413,2.5942,2.5207,2.4289,2.2711,2.1384,2.0505,1.9117,1.8121,1.7743,1.7362,1.7112,1.709,1.709,1.709,1.709,1.709,1.709,1.709,1.709,1.709,1.709,1.709,1.709,1.709,1.709,1.709,1.709,1.709,1.709,1.709,1.709,1.709,1.709,1.709,1.709,4.3785,4.2913,4.2051,4.114,0.0,3.9774,3.8978,3.7947,3.7158,3.6759,3.6616,3.6456,3.5822,3.4797,3.3671,3.2443,3.1177,2.983,2.9107,2.8944,2.8985,2.9036,2.9141,2.936,2.9223,2.8783,2.8342,2.8056,2.793,2.7817,2.7817,2.7965,2.8238,2.8339,2.8192,2.8213,2.8213,2.8213,2.8213,2.8213,2.82,2.8031,2.7797,2.7502,2.7201,0.0,0.0,0.0,0.0,0.0,0.0,0.0,0.0,0.0,0.0,2.3144,2.2957,2.2756,2.2485,2.3082,2.3612,2.3919,2.4479,2.4614,2.4044,2.4369,2.4756,2.5069,2.5464,2.5752,2.5932,2.6213,2.6393,2.6386,2.6393,2.6507,2.6794,2.6947,2.7066,2.7114,2.6974,2.656,2.5961,2.4663,2.3532,2.2523,2.0744,1.9354,1.8814,1.7836,1.709,1.709,1.709,1.709,1.709,1.709,1.709,1.709,1.709,1.709,1.709,1.709,1.709,1.709,1.709,1.709,1.709,1.709,1.709,1.709,1.709,1.709,1.709,1.709,1.709,4.4444,4.4081,4.332,4.2788,4.2366,4.1915,4.165,4.1471,3.9526,0.0,0.0,3.8686,3.7992,3.6688,3.5236,3.3855,3.2476,3.0624,2.9879,3.0076,2.9895,2.9897,3.0065,3.0209,2.9921,2.9199,2.8926,2.8636,2.8339,2.8299,2.8272,2.8286,2.8484,2.8478,2.8226,2.8213,2.8213,2.8213,2.8213,2.8213,2.82,2.8138,2.7871,2.7369,2.7262,2.6981,2.648,2.6413,2.6413,2.6473,2.6225,2.5965,2.5726,2.5464,2.509,2.4636,2.4596,2.4516,2.4347,2.4756,2.5018,2.5066,2.5545,2.5678,2.5382,2.5531,2.5812,2.6198,2.6633,2.6894,2.6907,2.7128,2.7309,2.7309,2.7309,2.7309,2.7355,2.7549,2.7682,2.7783,2.7755,2.766,2.7253,2.6256,2.5187,2.4067,2.2,2.035,1.9527,1.811,1.722,1.722,1.7228,1.7196,1.7187,1.7204,1.7179,1.7212,1.7204,1.7201,1.7179,1.7179,1.7179,1.7212,1.7187,1.7196,1.7187,1.7204,1.7201,1.7179,1.7179,1.7179,1.7179,1.7179,1.7171,4.5961,4.5878,4.5426,4.5187,4.5084,4.4636,4.4228,4.3734,4.1568,4.0623,4.0602,4.0623,3.9728,3.8132,3.6946,3.5551,3.3949,3.263,3.2002,3.194,3.2057,3.187,3.1439,3.1637,3.1125,3.0066,2.9722,2.932,2.8885,2.8671,2.8537,2.8551,2.8591,2.8457,2.8205,2.8213,2.8213,2.8213,2.8213,2.8213,2.82,2.7938,2.7756,2.7629,2.7148,2.6834,2.674,2.652,2.6507,2.6714,2.65,2.6426,2.6593,2.636,2.6192,2.6092,2.6099,2.6172,2.634,2.6447,2.6607,2.6887,2.6994,2.6807,2.6286,2.6259,2.6513,2.7034,2.7181,2.7222,2.7235,2.7309,2.7349,2.7336,2.7322,2.7382,2.7615,2.7709,2.7856,2.8091,2.8125,2.7823,2.7131,2.6605,2.5524,2.3622,2.2056,2.0423,1.8592,1.7712,1.7544,1.7522,1.7522,1.7522,1.7504,1.7536,1.7489,1.7522,1.752,1.7504,1.7496,1.7473,1.7481,1.7536,1.7504,1.7512,1.752,1.7522,1.7489,1.7504,1.7504,1.7512,1.7481,1.7504,1.7431,4.6308,4.625,4.5881,4.5705,4.5646,4.4961,4.4549,4.4292,4.3013,4.2468,4.2447,4.2468,4.1682,4.0282,3.8888,3.7512,3.6079,3.4937,3.4459,3.4617,3.5,3.4895,3.4288,3.3723,3.2925,3.1921,3.0715,3.0073,2.9853,2.9489,2.9223,2.9085,2.8903,2.8743,2.8644,2.8631,2.8631,2.8617,2.8353,2.8213,2.8213,2.8058,2.7856,2.7716,2.7428,2.7215,2.7088,2.6954,2.6941,2.7054,2.6934,2.6934,2.7075,2.6974,2.6887,2.6887,2.6887,2.6941,2.7054,2.7054,2.7141,2.7296,2.7309,2.7269,2.7108,2.7094,2.7235,2.7482,2.7684,2.7791,2.7777,2.7777,2.7777,2.7777,2.7924,2.8043,2.8177,2.8316,2.8462,2.8604,2.8631,2.8373,2.7693,2.6991,2.5998,2.4263,2.2364,2.0116,1.8246,1.7924,1.7836,1.7666,1.7595,1.7595,1.7603,1.7617,1.7617,1.7617,1.7617,1.7617,1.7617,1.7603,1.7603,1.7617,1.7625,1.7617,1.7625,1.7595,1.7617,1.7617,1.7617,1.7617,1.7617,1.7617,1.7552,4.6308,4.6269,4.5979,4.5842,4.5764,4.5041,4.4629,4.4512,4.4139,4.3945,4.3848,4.375,4.3096,4.1953,4.0624,3.942,3.8317,3.7425,3.7105,3.7304,3.783,3.7656,3.689,3.5829,3.4826,3.3792,3.2181,3.1293,3.1062,3.0616,3.0176,2.9803,2.9375,2.9162,2.9175,2.9053,2.9053,2.9113,2.8749,2.8499,2.8393,2.8393,2.8264,2.8016,2.7936,2.7789,2.7609,2.7529,2.751,2.751,2.751,2.751,2.7496,2.751,2.751,2.751,2.751,2.751,2.751,2.751,2.751,2.751,2.7556,2.769,2.7869,2.7963,2.7936,2.7877,2.801,2.8186,2.8173,2.8186,2.8213,2.8226,2.8438,2.8551,2.8617,2.885,2.9001,2.9001,2.9001,2.8779,2.8155,2.7299,2.6134,2.4564,2.2299,2.0144,1.8852,1.8456,1.8208,1.789,1.7739,1.7755,1.7716,1.7732,1.7755,1.7739,1.7747,1.7771,1.7771,1.7755,1.7724,1.7763,1.7755,1.7771,1.7747,1.7755,1.7763,1.778,1.778,1.7763,1.7771,1.7771,1.7698,4.6308,4.6308,4.625,4.625,4.6172,4.5744,4.5312,4.4959,4.4901,4.4647,4.4316,4.3887,4.327,4.2434,4.1867,4.1153,4.0333,4.0136,3.9949,3.9705,3.9958,3.9465,3.8379,3.7639,3.6627,3.5395,3.4319,3.3463,3.2689,3.2062,3.1441,3.0757,3.0016,2.9667,2.961,2.9241,2.9219,2.9618,2.9572,2.9363,2.8951,2.893,2.893,2.8881,2.8623,2.8511,2.843,2.8259,2.8119,2.8119,2.8106,2.8098,2.8085,2.8119,2.8098,2.8085,2.8119,2.8133,2.8119,2.8119,2.8106,2.8146,2.8339,2.8465,2.8519,2.8738,2.8671,2.8355,2.8221,2.8253,2.8213,2.8219,2.8245,2.8286,2.8505,2.8604,2.8684,2.8828,2.9001,2.9001,2.9068,2.8683,2.7975,2.7406,2.6207,2.408,2.2438,2.0862,1.9759,1.9186,1.8689,1.8282,1.8142,1.8126,1.8095,1.8119,1.8079,1.8118,1.8134,1.8087,1.8062,1.8079,1.8142,1.8022,1.8079,1.8094,1.811,1.8127,1.8103,1.8046,1.8062,1.8103,1.8142,1.8118,1.7989,4.6308,4.6308,4.6308,4.6308,4.625,4.5881,4.5607,4.5391,4.5137,4.4901,4.4744,4.4549,4.4269,4.3987,4.3758,4.3494,4.3192,4.3426,4.3477,4.3344,4.3477,4.2956,4.188,4.0819,3.9794,3.8692,3.7479,3.6523,3.569,3.4088,3.2583,3.1497,3.0906,3.0511,3.0268,3.0313,3.0313,3.0246,3.0511,3.0555,3.0315,2.9752,2.9401,2.9388,2.9033,2.8756,2.8596,2.8484,2.8358,2.8226,2.8213,2.8213,2.8213,2.8213,2.8213,2.8213,2.8213,2.8213,2.8213,2.8213,2.8213,2.8213,2.8707,2.9032,2.9032,2.9527,2.9776,2.9541,2.9036,2.8671,2.8692,2.8671,2.8671,2.8711,2.8951,2.9134,2.916,2.9357,2.953,2.9522,2.953,2.9287,2.8532,2.7469,2.5944,2.4122,2.2941,2.2007,2.0783,2.0107,1.9363,1.8456,1.8199,1.8199,1.8199,1.8199,1.8199,1.8199,1.8199,1.8199,1.8199,1.8199,1.8199,1.8199,1.8199,1.8199,1.8183,1.8199,1.8199,1.8199,1.8199,1.8199,1.8199,1.8199,1.8087,4.6367,4.6423,4.6345,4.6308,4.6269,4.5881,4.5705,4.5666,4.5332,4.5174,4.5215,4.5291,4.535,4.533,4.5135,4.5018,4.5057,4.5469,4.5627,4.5549,4.5627,4.5193,4.4252,4.3208,4.2285,4.1419,4.0048,3.8955,3.7948,3.5674,3.3769,3.2688,3.2005,3.1463,3.104,3.1218,3.1218,3.104,3.1351,3.1552,3.1548,3.0807,3.0213,2.9937,2.9542,2.9167,2.8858,2.8756,2.8631,2.8446,2.8433,2.8412,2.8412,2.8412,2.8412,2.8412,2.8433,2.8412,2.8433,2.8412,2.8475,2.8638,2.9207,2.9607,2.9835,3.0338,3.0701,3.0635,3.006,2.9626,2.9415,2.9401,2.9423,2.9428,2.9694,2.9848,2.9715,2.994,3.0034,2.9936,2.986,2.9667,2.8957,2.7692,2.6253,2.5161,2.4339,2.3469,2.2182,2.1408,2.0538,1.9239,1.9029,1.8782,1.8363,1.8199,1.8199,1.8199,1.8199,1.8199,1.8199,1.8199,1.8199,1.8199,1.8199,1.8199,1.8199,1.8199,1.8246,1.8199,1.8199,1.8199,1.8199,1.8199,1.8199,4.6521,4.6814,4.6465,4.6348,4.6289,4.594,4.5744,4.5842,4.5725,4.5686,4.5783,4.6074,4.625,4.6211,4.5486,4.5037,4.5096,4.5508,4.5529,4.5213,4.5529,4.5215,4.4297,4.3847,4.3396,4.2888,4.179,4.0186,3.8394,3.6464,3.5147,3.4542,3.3413,3.2505,3.1964,3.1622,3.1543,3.1867,3.1986,3.2202,3.2579,3.2159,3.1437,3.0662,3.0279,2.9939,2.9524,2.9165,2.8983,2.8991,2.9008,2.8986,2.8978,2.8978,2.8986,2.8986,2.8978,2.8978,2.8986,2.899,2.9141,2.9564,2.9909,3.0323,3.0628,3.1011,3.1238,3.1267,3.1183,3.0913,3.0573,3.0401,3.0359,3.0395,3.0648,3.056,3.0214,3.0376,3.0312,3.0048,2.9936,2.9599,2.8722,2.801,2.7523,2.6867,2.6049,2.5115,2.4144,2.3181,2.2215,2.1348,2.0839,2.0376,1.8759,1.8665,1.8549,1.8596,1.8828,1.8432,1.8246,1.8199,1.8293,1.8363,1.8596,1.8596,1.8316,1.8223,1.8316,1.8293,1.8223,1.8223,1.8199,1.8199,1.8199,4.7207,4.7344,4.7187,4.7129,4.7109,4.6975,4.6917,4.6917,4.6917,4.6917,4.6956,4.7073,4.7151,4.709,4.6816,4.6367,4.5879,4.6016,4.5996,4.5818,4.5764,4.5521,4.5234,4.5043,4.4914,4.4679,4.4243,4.3007,4.1171,3.9639,3.7992,3.6305,3.5273,3.4113,3.2912,3.2777,3.2791,3.2672,3.2739,3.287,3.2997,3.2681,3.2165,3.1507,3.1098,3.0768,3.042,3.0288,3.0136,2.9957,2.9965,2.9965,2.9965,2.9965,2.9965,2.9965,2.9965,2.9965,2.9937,2.975,2.9683,2.989,3.0231,3.0515,3.0766,3.1253,3.1685,3.1894,3.1952,3.1901,3.1864,3.1403,3.1015,3.1043,3.1091,3.1103,3.0909,3.0739,3.0504,3.0339,3.0115,2.9734,2.9465,2.9217,2.9047,2.8845,2.8259,2.7275,2.6185,2.5343,2.4418,2.3331,2.2941,2.2808,2.2496,2.0849,2.0098,2.0098,2.0144,2.0209,2.0125,2.0101,2.0241,2.0264,2.0116,2.0028,2.0051,1.9389,1.9273,1.8745,1.8644,1.8272,1.8199,1.824,1.8224,4.7718,4.762,4.76,4.76,4.76,4.76,4.76,4.76,4.76,4.76,4.76,4.76,4.76,4.76,4.76,4.7307,4.6758,4.6719,4.6641,4.6462,4.6211,4.6016,4.592,4.59,4.5879,4.5796,4.5571,4.4673,4.3248,4.1807,4.005,3.8133,3.6981,3.5519,3.4041,3.3874,3.3729,3.3338,3.3227,3.3201,3.3158,3.2939,3.2631,3.2276,3.1929,3.1576,3.1228,3.1183,3.1177,3.1087,3.1073,3.1031,3.0933,3.0919,3.0877,3.0793,3.0757,3.0723,3.0624,3.0428,3.0317,3.0346,3.0581,3.0795,3.0979,3.1495,3.1922,3.2193,3.2317,3.2434,3.2587,3.2173,3.1774,3.1774,3.1796,3.1685,3.1552,3.124,3.095,3.0593,3.0182,2.9936,2.9913,2.9891,2.9846,2.9913,2.9487,2.8697,2.7715,2.7036,2.6401,2.5252,2.4978,2.5034,2.4883,2.3889,2.2824,2.2692,2.2314,2.2248,2.2175,2.2165,2.2146,2.2146,2.208,2.1971,2.1565,2.0849,2.0202,1.9605,1.8904,1.8444,1.8386,1.832,1.8413,4.7988,4.7698,4.762,4.7698,4.7718,4.7737,4.7659,4.7718,4.7698,4.7737,4.7776,4.7679,4.7757,4.7679,4.7776,4.764,4.762,4.76,4.7324,4.6931,4.6833,4.6641,4.6306,4.625,4.6191,4.613,4.543,4.4801,4.4136,4.2665,4.1265,4.0037,3.849,3.6965,3.5241,3.4864,3.4326,3.3789,3.3427,3.3245,3.3172,3.2954,3.2815,3.2785,3.2719,3.2464,3.1912,3.1862,3.1991,3.2259,3.2301,3.2139,3.1879,3.1823,3.1685,3.1435,3.1354,3.1228,3.1033,3.0957,3.1013,3.1081,3.1131,3.1282,3.1589,3.1762,3.1929,3.2229,3.2295,3.2434,3.2734,3.2719,3.2631,3.2778,3.2631,3.2431,3.2121,3.1988,3.1632,3.0772,3.0227,2.9936,2.9913,2.9913,2.9913,2.9824,2.9554,2.9115,2.8574,2.8101,2.7569,2.7184,2.7025,2.7062,2.705,2.6903,2.6087,2.5387,2.4877,2.4577,2.4425,2.4358,2.4261,2.424,2.4107,2.3984,2.3237,2.2505,2.1551,2.0829,1.9825,1.9087,1.9103,1.9163,1.8827,4.8597,4.8499,4.8503,4.8503,4.8503,4.848,4.8503,4.8503,4.8503,4.848,4.848,4.8503,4.848,4.848,4.848,4.848,4.8503,4.8483,4.8089,4.7441,4.709,4.6853,4.6697,4.6423,4.6152,4.5898,4.5634,4.5405,4.5124,4.4339,4.3406,4.2298,4.1139,3.9272,3.6945,3.6374,3.5622,3.4445,3.3838,3.3537,3.3502,3.3056,3.288,3.3048,3.3078,3.3131,3.3412,3.3005,3.2956,3.3228,3.3273,3.3106,3.2832,3.276,3.2638,3.2364,3.2321,3.2314,3.2198,3.1982,3.1823,3.1845,3.1714,3.1662,3.1776,3.1798,3.1965,3.2244,3.2295,3.2434,3.2712,3.2808,3.2822,3.2808,3.2808,3.2771,3.2578,3.2253,3.1574,3.0794,3.0473,3.0272,2.9994,2.9927,2.9967,2.9967,2.9796,2.9594,2.9468,2.926,2.9217,2.9025,2.9015,2.8857,2.874,2.8642,2.8259,2.7556,2.7048,2.6724,2.6607,2.6467,2.6362,2.6257,2.613,2.5753,2.4989,2.4115,2.3208,2.2211,2.1329,2.0797,2.0424,2.0266,2.0229,4.8894,4.8894,4.8894,4.8894,4.8894,4.8894,4.8894,4.8894,4.8894,4.8894,4.8894,4.8894,4.8894,4.8894,4.8894,4.8894,4.8894,4.8894,4.8597,4.8069,4.7598,4.7321,4.7168,4.6914,4.6682,4.6448,4.6409,4.6409,4.6367,4.5749,4.5018,4.4123,4.2918,4.108,3.8785,3.7837,3.6738,3.5377,3.456,3.4088,3.384,3.3407,3.3217,3.337,3.3377,3.3677,3.4139,3.3962,3.3941,3.4045,3.4072,3.3867,3.3472,3.3354,3.3209,3.2888,3.2785,3.2719,3.261,3.2361,3.2244,3.2127,3.1915,3.1798,3.1798,3.1798,3.1944,3.2244,3.228,3.2449,3.2749,3.2808,3.2844,3.2954,3.2954,3.2997,3.3018,3.2667,3.2233,3.164,3.1211,3.0822,3.0574,3.0302,3.027,3.0247,3.0247,3.0234,3.0247,3.0215,3.0211,3.0211,3.011,3.0058,3.025,3.0263,3.0277,2.9697,2.9067,2.8835,2.8664,2.85,2.8375,2.8201,2.8088,2.784,2.7151,2.6063,2.5075,2.4018,2.3105,2.2699,2.2456,2.2367,2.2235,4.8894,4.8894,4.8894,4.8894,4.8894,4.8894,4.8894,4.8894,4.8894,4.8894,4.8894,4.8894,4.8894,4.8894,4.8894,4.8894,4.8894,4.8894,4.8894,4.8718,4.8363,4.7969,4.7561,4.7464,4.7405,4.7425,4.7444,4.7483,4.7344,4.665,4.6041,4.5391,4.3907,4.2192,4.0713,3.9298,3.7938,3.639,3.5484,3.4836,3.4214,3.3838,3.3692,3.3721,3.375,3.3896,3.4273,3.4858,3.5092,3.4893,3.4981,3.4746,3.4073,3.385,3.3639,3.3109,3.2903,3.2771,3.2507,3.2566,3.2419,3.2193,3.2149,3.1915,3.209,3.2178,3.2266,3.25,3.25,3.2573,3.2859,3.2917,3.3041,3.3224,3.3282,3.3348,3.3611,3.3247,3.2916,3.274,3.2156,3.1514,3.14,3.1023,3.0853,3.0715,3.0702,3.0675,3.0675,3.0635,3.0742,3.0715,3.0621,3.0501,3.0444,3.039,3.0377,3.0058,2.9731,2.9755,2.9766,2.968,2.962,2.9566,2.9474,2.9375,2.8935,2.7654,2.6916,2.6226,2.5495,2.4897,2.4608,2.4547,2.415,4.8894,4.8894,4.8894,4.8894,4.8894,4.8894,4.8913,4.8913,4.8913,4.8972,4.8913,4.8894,4.8952,4.8913,4.8933,4.8894,4.8929,4.8933,4.8894,4.8894,4.8796,4.8265,4.7737,4.762,4.764,4.7659,4.7698,4.76,4.76,4.7346,4.6975,4.6512,4.5614,4.4346,4.273,4.1539,3.9692,3.749,3.645,3.5478,3.4428,3.4003,3.3838,3.408,3.4141,3.4311,3.472,3.6098,3.6729,3.6413,3.6668,3.6482,3.5768,3.5342,3.4803,3.4119,3.3654,3.3436,3.3326,3.3282,3.3253,3.3224,3.3063,3.3195,3.3195,3.3195,3.3238,3.3326,3.3326,3.3326,3.3429,3.3443,3.3604,3.3838,3.3713,3.3625,3.3698,3.3593,3.3396,3.3054,3.2748,3.2318,3.1803,3.1458,3.1241,3.0974,3.0872,3.0849,3.0915,3.0902,3.0942,3.0835,3.0728,3.0604,3.0497,3.0417,3.0297,3.0034,2.9872,2.988,2.9875,2.9831,2.9823,2.9824,2.9734,2.9644,2.9413,2.8693,2.8384,2.8068,2.7608,2.6911,2.6864,2.6805,2.6202,4.9437,4.9437,4.9437,4.9437,4.9437,4.9461,4.9437,4.9437,4.9461,4.9437,4.9437,4.9437,4.9437,4.9437,4.9437,4.9461,4.9437,4.9437,4.9457,4.9437,4.9457,4.9066,4.8516,4.8262,4.8226,4.8359,4.8226,4.8148,4.8128,4.7972,4.7695,4.7365,4.6815,4.5801,4.4603,4.3334,4.1749,3.961,3.8348,3.7129,3.595,3.5531,3.5455,3.5622,3.5652,3.5874,3.6653,3.8044,3.8526,3.8152,3.8395,3.8438,3.7653,3.6758,3.5942,3.5128,3.4252,3.3669,3.3684,3.3684,3.3684,3.3669,3.3684,3.3684,3.3654,3.3684,3.3684,3.3654,3.3684,3.3684,3.3736,3.3823,3.3984,3.4116,3.4145,3.4116,3.4116,3.4122,3.4001,3.3755,3.3464,3.321,3.2538,3.2167,3.1795,3.1519,3.134,3.1279,3.1233,3.1179,3.1152,3.1112,3.1086,3.1019,3.0862,3.0755,3.0618,3.0314,3.0194,3.0145,3.0011,3.0007,2.998,2.998,2.994,2.9894,2.9797,2.9739,2.9664,2.9377,2.9168,2.9069,2.8926,2.8585,2.802,5.0199,5.0199,5.0199,5.0199,5.016,5.018,5.0102,5.016,5.0121,5.0121,5.0121,5.016,5.0063,5.0199,5.0023,5.016,5.016,5.0063,5.0102,5.0082,5.0063,4.9844,4.9566,4.916,4.9121,4.9234,4.9086,4.889,4.8695,4.8421,4.8242,4.7979,4.7367,4.685,4.6068,4.4951,4.3585,4.2105,4.0859,3.969,3.8705,3.8209,3.8065,3.7922,3.7858,3.834,3.9213,4.0215,4.0487,3.9714,4.0339,4.0208,3.9424,3.8112,3.7094,3.6205,3.5084,3.4207,3.3951,3.4068,3.3926,3.3926,3.3911,3.3801,3.3911,3.3926,3.3903,3.3926,3.3801,3.3896,3.3926,3.4101,3.4233,3.4321,3.4534,3.4666,3.471,3.471,3.471,3.4686,3.4244,3.4033,3.3681,3.3187,3.2512,3.2011,3.1816,3.1699,3.1581,3.1473,3.1487,3.1527,3.1513,3.15,3.1316,3.1132,3.0955,3.0728,3.0621,3.0528,3.0274,3.0194,3.0114,3.01,3.0234,3.0368,3.0473,3.0474,3.0524,3.0617,3.0366,3.0557,3.0707,3.0151,2.9605,5.0199,5.0199,5.0199,5.0199,5.0199,5.0199,5.0219,5.0238,5.0219,5.0278,5.0219,5.0219,5.0238,5.0238,5.0278,5.0199,5.0278,5.0278,5.0199,5.0199,5.0199,5.0375,5.0371,5.0078,4.9766,4.9586,4.943,4.9199,4.8929,4.8812,4.8578,4.8258,4.8128,4.7726,4.7244,4.6542,4.5527,4.4233,4.334,4.2307,4.1246,4.0895,4.0669,4.037,4.0094,4.0436,4.1346,4.2291,4.285,4.2917,4.2506,4.1854,4.0921,3.9801,3.8813,3.7886,3.6691,3.5691,3.5214,3.5109,3.5026,3.4563,3.4622,3.4777,3.4496,3.4452,3.4452,3.4467,3.4467,3.4461,3.4475,3.4534,3.4607,3.4651,3.471,3.4753,3.4724,3.471,3.471,3.4663,3.4578,3.4376,3.3986,3.3775,3.3187,3.2597,3.228,3.209,3.1901,3.1724,3.1724,3.1724,3.1674,3.1607,3.1463,3.1306,3.1223,3.1089,3.1022,3.0955,3.0702,3.0568,3.0555,3.0581,3.0621,3.0742,3.0808,3.0955,3.0952,3.1226,3.1447,3.138,3.1286,3.1112,3.0869,5.0762,5.0762,5.0762,5.0762,5.0762,5.0762,5.0762,5.0762,5.0762,5.0762,5.0762,5.0762,5.0762,5.0762,5.0762,5.0781,5.0762,5.0762,5.0781,5.0781,5.0781,5.0898,5.1016,5.0816,5.0445,4.9879,4.9586,4.9375,4.9219,4.9203,4.918,4.9101,4.8926,4.8723,4.8388,4.7824,4.6968,4.6046,4.5284,4.445,4.3599,4.3241,4.3099,4.2828,4.2615,4.2867,4.3647,4.4329,4.4666,4.4644,4.422,4.352,4.2494,4.1239,4.0285,3.9835,3.8407,3.7381,3.6799,3.6041,3.5494,3.5187,3.524,3.5099,3.4982,3.4914,3.4827,3.4783,3.4812,3.4938,3.4938,3.4938,3.4982,3.5143,3.5158,3.5158,3.509,3.49,3.471,3.471,3.4686,3.4554,3.4352,3.4175,3.3662,3.2969,3.2431,3.2232,3.1853,3.1724,3.1724,3.1724,3.1724,3.1647,3.153,3.1463,3.145,3.1406,3.1393,3.1366,3.1259,3.1179,3.1126,3.1009,3.0875,3.0919,3.1022,3.1196,3.133,3.15,3.1607,3.1674,3.1594,3.1313,3.1132,5.1397,5.1397,5.1397,5.1377,5.1397,5.1358,5.1338,5.1358,5.1397,5.1304,5.1377,5.1397,5.1284,5.1338,5.1319,5.1377,5.1358,5.1338,5.1265,5.1265,5.1265,5.1284,5.1323,5.1245,5.0933,5.0293,4.9957,4.9742,4.9668,4.9625,4.9726,5.0023,4.9785,4.943,4.9235,4.8761,4.8061,4.7471,4.692,4.6418,4.5918,4.557,4.5403,4.5213,4.5088,4.5187,4.5641,4.6042,4.6144,4.5678,4.5431,4.4918,4.4006,4.2577,4.1338,4.1512,3.9695,3.8443,3.7429,3.657,3.5817,3.5738,3.545,3.5304,3.5284,3.5187,3.5084,3.507,3.5114,3.524,3.5211,3.5255,3.5401,3.5577,3.5665,3.5718,3.5606,3.5187,3.4997,3.4914,3.5026,3.4984,3.4802,3.4584,3.3955,3.3375,3.2851,3.2313,3.1948,3.1724,3.1724,3.1724,3.1724,3.1724,3.1607,3.158,3.1567,3.158,3.1594,3.1617,3.1631,3.1513,3.1366,3.1169,3.1076,3.1156,3.1236,3.1356,3.1527,3.166,3.1724,3.1724,3.1607,3.145,3.1336,5.1397,5.1397,5.1397,5.1397,5.1397,5.1397,5.1436,5.1397,5.1455,5.1421,5.1416,5.1397,5.1455,5.1436,5.1397,5.1397,5.1514,5.1558,5.1519,5.1519,5.1519,5.1494,5.1558,5.1499,5.1191,5.0796,5.0542,5.0391,5.0137,5.0121,5.0176,5.0199,5.0141,4.9941,4.9664,4.9274,4.8967,4.8594,4.8262,4.8027,4.7919,4.7819,4.7626,4.7354,4.7058,4.706,4.7118,4.7279,4.715,4.6608,4.5462,4.5058,4.4709,4.36,4.2412,4.1284,4.0211,3.8997,3.7747,3.685,3.6207,3.5841,3.565,3.5597,3.5562,3.5392,3.5363,3.5489,3.5504,3.5504,3.524,3.546,3.5621,3.5709,3.5767,3.5767,3.5723,3.5636,3.5533,3.5509,3.5509,3.5436,3.5233,3.4959,3.4468,3.3856,3.3284,3.2608,3.1995,3.1796,3.1724,3.1724,3.1724,3.1724,3.1674,3.1674,3.166,3.1647,3.1684,3.166,3.166,3.1674,3.1567,3.1393,3.1393,3.15,3.1554,3.1567,3.1607,3.1687,3.1724,3.1724,3.1634,3.1567,3.1594,5.2065,5.2065,5.2065,5.2065,5.2065,5.2065,5.2065,5.2065,5.209,5.209,5.2065,5.2065,5.2065,5.2065,5.2065,5.2065,5.2046,5.2065,5.209,5.2065,5.2065,5.2065,5.2007,5.1875,5.168,5.1445,5.125,5.0918,5.0547,5.0508,5.0605,5.0762,5.0668,5.0391,5.0074,4.9703,4.9473,4.9222,4.9027,4.8933,4.8913,4.8913,4.8753,4.8578,4.8402,4.8307,4.8265,4.8265,4.8014,4.7462,4.6642,4.6039,4.5462,4.4696,4.3521,4.2053,4.0652,3.9387,3.8102,3.7261,3.6432,3.6227,3.6007,3.5895,3.589,3.5778,3.5719,3.5817,3.5753,3.5709,3.5699,3.5817,3.5978,3.6124,3.6153,3.6139,3.6153,3.6153,3.6124,3.6051,3.5817,3.567,3.5621,3.5312,3.4942,3.4393,3.3775,3.3007,3.2219,3.2019,3.194,3.1831,3.1845,3.1845,3.1858,3.1858,3.1872,3.1845,3.1831,3.1831,3.1781,3.1808,3.1754,3.162,3.1687,3.1818,3.1687,3.1634,3.1674,3.1724,3.1724,3.1724,3.1724,3.1701,3.1724,5.2715,5.2715,5.2715,5.2715,5.2715,5.2715,5.2695,5.2715,5.2676,5.2656,5.2715,5.2695,5.2676,5.267,5.2651,5.2676,5.2715,5.2676,5.2637,5.2617,5.2617,5.2676,5.2598,5.2422,5.2153,5.1894,5.1719,5.1304,5.0972,5.0918,5.1109,5.1167,5.1035,5.0859,5.0625,5.0176,4.9801,4.9551,4.9359,4.9187,4.9167,4.9167,4.9167,4.9167,4.9144,4.9144,4.9144,4.9144,4.9001,4.861,4.8143,4.7582,4.6689,4.5909,4.4893,4.343,4.1434,4.0045,3.8885,3.7808,3.6987,3.679,3.631,3.6173,3.6192,3.6187,3.6158,3.61,3.6027,3.5934,3.6002,3.6134,3.6319,3.6466,3.6553,3.6558,3.6524,3.6495,3.6466,3.6319,3.6065,3.5963,3.5963,3.5744,3.5401,3.4972,3.4334,3.3613,3.288,3.2466,3.2299,3.2091,3.2005,3.2005,3.2032,3.2072,3.2099,3.2112,3.2112,3.2112,3.2045,3.1968,3.1928,3.1979,3.2005,3.2072,3.1898,3.1724,3.1724,3.1724,3.1724,3.1724,3.1724,3.1724,3.1724,5.2715,5.2715,5.2734,5.2715,5.2754,5.2773,5.2734,5.2729,5.2768,5.2715,5.2807,5.2754,5.2768,5.2812,5.2793,5.2754,5.2773,5.2832,5.2846,5.2866,5.2871,5.2871,5.2773,5.2676,5.248,5.2266,5.209,5.1733,5.144,5.1362,5.1323,5.1338,5.1323,5.1191,5.0879,5.0605,5.0469,5.018,5.0043,4.9984,4.9965,4.9965,4.9945,4.9965,4.9965,4.9926,4.9867,4.9867,4.9812,4.9827,4.9819,4.9507,4.8886,4.7607,4.67,4.5326,4.3472,4.1191,3.9946,3.8795,3.7925,3.7501,3.6716,3.6383,3.6485,3.6597,3.6495,3.6105,3.6319,3.6407,3.6378,3.6436,3.6553,3.6656,3.6744,3.6714,3.6685,3.6744,3.6729,3.6641,3.6402,3.6392,3.6407,3.6143,3.5871,3.5414,3.4897,3.4156,3.3461,3.2954,3.2589,3.2356,3.2246,3.2246,3.2233,3.2273,3.2313,3.2353,3.2353,3.2367,3.23,3.226,3.238,3.2407,3.2393,3.226,3.2059,3.1874,3.1754,3.1741,3.1808,3.1767,3.1724,3.1724,3.1724,5.3432,5.3432,5.3432,5.3432,5.3432,5.3432,5.3432,5.3432,5.3432,5.3432,5.3432,5.3457,5.3432,5.3418,5.3432,5.3432,5.3432,5.3393,5.3432,5.3393,5.3393,5.3437,5.3418,5.3203,5.2955,5.2798,5.2583,5.2402,5.2046,5.1611,5.1397,5.1416,5.1397,5.1343,5.1172,5.0937,5.0723,5.0508,5.0336,5.0199,5.0199,5.0199,5.0219,5.0219,5.0219,5.0238,5.0238,5.0199,5.0199,5.0199,5.0199,4.9943,4.9372,4.8475,4.7659,4.6664,4.5463,4.372,4.1931,4.0465,3.9445,3.8632,3.773,3.7076,3.7139,3.7124,3.712,3.6978,3.709,3.7061,3.6948,3.709,3.7109,3.7139,3.7051,3.708,3.7036,3.6905,3.6929,3.6842,3.6729,3.6656,3.6587,3.6431,3.6187,3.5856,3.5365,3.4725,3.3876,3.3083,3.2792,3.2562,3.2514,3.2514,3.2487,3.25,3.25,3.2541,3.2527,3.2541,3.2541,3.2567,3.2674,3.2648,3.2541,3.2393,3.2195,3.2142,3.2152,3.2035,3.1917,3.1874,3.1794,3.1724,3.1724,5.4173,5.4154,5.4037,5.3972,5.3972,5.3972,5.3978,5.3998,5.3959,5.3978,5.3972,5.3959,5.3978,5.3998,5.3939,5.39,5.3933,5.3972,5.3972,5.3972,5.3972,5.3959,5.3822,5.3633,5.3482,5.3429,5.3008,5.2773,5.2475,5.2143,5.1811,5.1733,5.187,5.1792,5.1636,5.1426,5.1172,5.0933,5.0679,5.0586,5.0566,5.0547,5.0547,5.0527,5.0488,5.0488,5.0512,5.0527,5.0527,5.0547,5.0566,5.0414,5.0035,4.9718,4.9121,4.8232,4.7223,4.5887,4.3929,4.2237,4.0869,3.9642,3.8625,3.7471,3.753,3.7603,3.7588,3.7486,3.75,3.7544,3.7588,3.7559,3.7515,3.75,3.7515,3.7574,3.7559,3.7295,3.7076,3.6959,3.6802,3.6641,3.6587,3.6587,3.6456,3.6256,3.5796,3.5245,3.4398,3.3443,3.3067,3.2888,3.2877,3.2877,3.2864,3.2824,3.2808,3.2768,3.2743,3.2784,3.2837,3.2864,3.2931,3.285,3.2743,3.2784,3.2784,3.265,3.2527,3.2329,3.2155,3.1984,3.1901,3.1794,3.1727,5.4674,5.4635,5.4199,5.3992,5.4037,5.3972,5.3992,5.3972,5.3972,5.3992,5.4076,5.4031,5.4089,5.4076,5.4154,5.4109,5.4037,5.3992,5.4115,5.4115,5.4017,5.4134,5.4115,5.4043,5.3834,5.3566,5.3384,5.3125,5.2851,5.2812,5.2592,5.2573,5.2436,5.2534,5.2402,5.1992,5.1601,5.1362,5.1167,5.1187,5.1187,5.1206,5.1206,5.1245,5.126,5.1323,5.1304,5.1206,5.1167,5.1167,5.1128,5.1148,5.0896,5.0818,5.0363,4.9633,4.8564,4.7198,4.5449,4.3007,4.0914,3.9472,3.8397,3.7709,3.7753,3.7636,3.7632,3.7705,3.7793,3.7735,3.7691,3.7618,3.7739,3.7793,3.7826,3.7812,3.7724,3.7446,3.7226,3.709,3.6963,3.689,3.6846,3.689,3.667,3.6456,3.6126,3.5587,3.484,3.3989,3.3537,3.3278,3.328,3.3269,3.3282,3.324,3.312,3.3093,3.3093,3.3173,3.3253,3.3253,3.3146,3.3173,3.312,3.324,3.3267,3.3024,3.277,3.2556,3.2396,3.2302,3.2155,3.2035,3.1915,5.4277,5.4258,5.4076,5.4173,5.4433,5.4433,5.4252,5.4037,5.3998,5.4199,5.4433,5.4662,5.4779,5.4779,5.4798,5.4798,5.4798,5.4798,5.4759,5.4779,5.4798,5.4824,5.472,5.4512,5.4361,5.4127,5.3932,5.373,5.3549,5.3412,5.3471,5.3393,5.3002,5.2754,5.2578,5.2383,5.1914,5.1558,5.144,5.1397,5.1397,5.1397,5.1397,5.1397,5.1397,5.1397,5.1377,5.1377,5.1377,5.1416,5.1436,5.1455,5.1475,5.1475,5.1109,5.0424,4.9299,4.7851,4.5799,4.3296,4.0922,3.9176,3.8384,3.8123,3.809,3.8148,3.8163,3.8178,3.8134,3.8075,3.8163,3.8152,3.8181,3.8178,3.8134,3.8104,3.7958,3.7709,3.7578,3.75,3.7413,3.7325,3.7295,3.7266,3.6948,3.6646,3.6295,3.5855,3.5135,3.4438,3.3914,3.3514,3.3464,3.3389,3.3389,3.3389,3.3389,3.3389,3.3389,3.3389,3.3389,3.3375,3.3309,3.3375,3.3389,3.3349,3.3307,3.32,3.3051,3.285,3.273,3.265,3.2476,3.2286,3.2206,5.4219,5.4238,5.433,5.4408,5.4492,5.4492,5.4316,5.4037,5.3972,5.4277,5.4713,5.5,5.5215,5.5273,5.5293,5.5273,5.5234,5.5234,5.5273,5.5254,5.5234,5.5312,5.5156,5.4902,5.459,5.459,5.4252,5.3959,5.39,5.3978,5.392,5.3724,5.3451,5.3197,5.3066,5.2656,5.2246,5.1914,5.1792,5.1792,5.1811,5.1831,5.1831,5.185,5.187,5.1889,5.1889,5.1909,5.1889,5.1889,5.187,5.1831,5.1811,5.1669,5.1301,5.0563,4.9505,4.8123,4.5926,4.293,4.0636,3.8856,3.8522,3.8459,3.8517,3.8517,3.8415,3.8444,3.8474,3.8517,3.8517,3.8444,3.8415,3.8357,3.8357,3.8327,3.8265,3.809,3.8002,3.7954,3.7779,3.753,3.7442,3.7354,3.7124,3.679,3.6437,3.6038,3.5458,3.4762,3.4114,3.3764,3.3539,3.3464,3.3389,3.3389,3.3389,3.3389,3.3389,3.3389,3.3389,3.3402,3.3389,3.3389,3.3389,3.3389,3.3335,3.3293,3.3227,3.3133,3.3024,3.2864,3.2648,3.2447,3.2487,5.4629,5.4726,5.5039,5.4746,5.4095,5.4037,5.4037,5.4017,5.4056,5.4291,5.4687,5.4805,5.5058,5.5312,5.5469,5.5527,5.5508,5.5469,5.543,5.543,5.5527,5.541,5.5234,5.5039,5.4941,5.4629,5.4433,5.4232,5.4134,5.4232,5.4173,5.4056,5.3881,5.3744,5.3881,5.356,5.3111,5.2715,5.2573,5.2534,5.2495,5.2456,5.248,5.248,5.2461,5.2417,5.2397,5.2397,5.2397,5.2397,5.2417,5.2461,5.2456,5.2475,5.2197,5.1643,5.0296,4.8958,4.7449,4.294,4.0366,3.8951,3.8737,3.8678,3.855,3.8547,3.8532,3.8547,3.8517,3.8517,3.8517,3.8517,3.8517,3.8517,3.8517,3.8488,3.84,3.8368,3.8265,3.8207,3.7885,3.7603,3.75,3.7398,3.7212,3.6944,3.6579,3.616,3.5692,3.521,3.4563,3.4014,3.3739,3.3564,3.3464,3.3414,3.3389,3.3389,3.3415,3.3455,3.3455,3.3469,3.3455,3.3415,3.3389,3.3389,3.3389,3.3375,3.3309,3.3253,3.3133,3.2984,3.2743,3.2674,3.2757,5.4258,5.4258,5.4369,5.4271,5.4031,5.4355,5.4297,5.4095,5.4316,5.4551,5.4785,5.5215,5.5547,5.5735,5.5976,5.6074,5.6113,5.6152,5.6094,5.5716,5.5937,5.5918,5.5742,5.5527,5.5423,5.5364,5.5072,5.4805,5.4922,5.472,5.4609,5.4512,5.4095,5.3848,5.3658,5.3384,5.315,5.2793,5.2695,5.2695,5.2734,5.2754,5.2754,5.2773,5.2768,5.2793,5.2812,5.2832,5.2832,5.2807,5.2807,5.2787,5.2812,5.2812,5.2524,5.1979,5.0836,4.889,4.6467,4.3007,4.1226,3.9912,3.9102,3.9,3.8883,3.8813,3.8737,3.8561,3.8517,3.8517,3.8517,3.8517,3.8517,3.8517,3.8517,3.8517,3.8459,3.8444,3.8386,3.84,3.821,3.8002,3.7881,3.7603,3.7398,3.7051,3.6688,3.6366,3.5927,3.566,3.5174,3.4438,3.4014,3.3739,3.3577,3.3623,3.3574,3.3549,3.3576,3.3616,3.3616,3.3629,3.3576,3.3562,3.3469,3.3389,3.3482,3.3549,3.3415,3.3322,3.3307,3.3253,3.308,3.3066,3.3173,5.3972,5.3972,5.3972,5.3972,5.4037,5.4336,5.4252,5.4076,5.4336,5.4531,5.4765,5.5273,5.5638,5.5891,5.6184,5.6504,5.6589,5.6589,5.6348,5.6009,5.6387,5.6211,5.5989,5.5911,5.5794,5.5794,5.5521,5.5273,5.5195,5.5117,5.4785,5.4394,5.4154,5.39,5.3711,5.3594,5.3516,5.3275,5.3275,5.3236,5.3217,5.3197,5.3223,5.3197,5.3197,5.3178,5.3183,5.3164,5.3119,5.3119,5.3119,5.3119,5.3119,5.3089,5.2963,5.256,5.165,4.9471,4.6482,4.463,4.2633,4.0141,3.9724,3.9336,3.9073,3.8971,3.8781,3.862,3.8532,3.8517,3.8517,3.8517,3.8517,3.8517,3.8517,3.8517,3.8503,3.8474,3.8474,3.8503,3.8488,3.8339,3.8145,3.7881,3.7588,3.7208,3.6831,3.651,3.6247,3.6052,3.5842,3.5232,3.4636,3.4379,3.4142,3.3968,3.3879,3.3748,3.3814,3.3908,3.3909,3.3949,3.3829,3.3788,3.3789,3.3803,3.3762,3.3736,3.3736,3.3696,3.3629,3.3549,3.3429,3.3389,3.3389,5.3972,5.3972,5.3972,5.3972,5.3998,5.4037,5.4017,5.3972,5.4017,5.4252,5.4674,5.4687,5.5117,5.5716,5.5872,5.6067,5.6348,5.6433,5.6113,5.6035,5.6211,5.6048,5.5989,5.593,5.597,5.5794,5.5579,5.541,5.5293,5.4961,5.4551,5.4238,5.4095,5.3959,5.39,5.3881,5.3842,5.3764,5.3744,5.3724,5.3705,5.3822,5.3764,5.3764,5.3764,5.3764,5.3783,5.3783,5.3822,5.3861,5.39,5.3894,5.3933,5.3953,5.3998,5.3678,5.2897,5.036,4.7756,4.6131,4.3809,4.116,4.012,3.9545,3.9175,3.9088,3.8898,3.8664,3.8517,3.8517,3.8517,3.8517,3.8517,3.8517,3.8517,3.8517,3.8517,3.8503,3.8503,3.8517,3.8517,3.8382,3.8104,3.7867,3.7632,3.7241,3.6934,3.6894,3.6684,3.6698,3.6475,3.6216,3.5669,3.5197,3.4879,3.4491,3.4209,3.4052,3.4175,3.4282,3.427,3.4243,3.4163,3.4148,3.4216,3.4203,3.4056,3.4083,3.4176,3.4096,3.3909,3.3761,3.3601,3.3415,3.3389,5.3972,5.3972,5.3972,5.3972,5.3972,5.3972,5.3972,5.3972,5.3998,5.4095,5.4238,5.4551,5.4844,5.5058,5.5325,5.5547,5.5664,5.5625,5.5371,5.5488,5.5937,5.5755,5.5813,5.6035,5.6087,5.595,5.5755,5.5566,5.5273,5.4883,5.4668,5.4512,5.4193,5.4076,5.405,5.3992,5.4037,5.4017,5.4037,5.3972,5.3972,5.3972,5.3972,5.3972,5.3972,5.3972,5.3972,5.3972,5.3972,5.3972,5.3972,5.3972,5.3972,5.3972,5.3972,5.387,5.2852,5.1163,4.8806,4.7111,4.4972,4.2403,4.1148,4.0254,3.9716,3.9263,3.9058,3.8737,3.8532,3.8517,3.8517,3.8517,3.8517,3.8517,3.8517,3.8517,3.8517,3.8517,3.8517,3.8517,3.8517,3.8415,3.8134,3.7881,3.7632,3.7256,3.7065,3.7065,3.7114,3.7142,3.7081,3.6845,3.6567,3.6065,3.5429,3.4975,3.4641,3.4437,3.4548,3.4576,3.4482,3.4456,3.4469,3.4482,3.4509,3.4403,3.427,3.435,3.4509,3.4282,3.4082,3.3921,3.3773,3.3587,3.3402,5.3972,5.3972,5.3972,5.3972,5.3972,5.3972,5.3972,5.3972,5.3972,5.3972,5.4037,5.4297,5.4512,5.4752,5.4961,5.5176,5.5371,5.5586,5.5449,5.5351,5.5762,5.5794,5.5976,5.6152,5.6204,5.6048,5.5833,5.5657,5.5273,5.4902,5.4668,5.4648,5.4355,5.4408,5.4447,5.4427,5.4291,5.4213,5.4134,5.4037,5.3972,5.3972,5.3972,5.3972,5.3972,5.3972,5.3972,5.3972,5.3972,5.3972,5.3972,5.3972,5.3972,5.3972,5.3972,5.3845,5.323,5.1732,4.9826,4.836,4.5926,4.3684,4.228,4.1079,4.0092,3.9409,3.9044,3.8678,3.8591,3.8517,3.8517,3.8517,3.8517,3.8517,3.8517,3.8517,3.8517,3.8517,3.8517,3.8517,3.8474,3.8415,3.8221,3.7929,3.7749,3.7618,3.7431,3.7329,3.7442,3.7542,3.7542,3.7447,3.7234,3.6913,3.6245,3.5648,3.5329,3.5086,3.4947,3.4935,3.4736,3.4723,3.4803,3.4776,3.4723,3.467,3.4617,3.4696,3.475,3.4536,3.4389,3.4335,3.4094,3.3694,3.3561,5.3972,5.3972,5.3972,5.3972,5.3972,5.3972,5.3972,5.3972,5.3972,5.3972,5.4017,5.4017,5.4252,5.4512,5.4629,5.4779,5.5039,5.5306,5.5351,5.5293,5.5957,5.6074,5.5937,5.625,5.6009,5.5891,5.5677,5.5325,5.5117,5.4765,5.4551,5.4668,5.4648,5.4746,5.4974,5.4726,5.4551,5.4492,5.4213,5.3972,5.3972,5.3972,5.3972,5.3972,5.3972,5.3972,5.3972,5.3972,5.3972,5.3972,5.3972,5.3972,5.3972,5.3972,5.3972,5.3819,5.341,5.237,5.0911,4.9531,4.7173,4.5046,4.341,4.177,4.0529,3.9606,3.9146,3.8693,3.8532,3.8517,3.8517,3.8517,3.8517,3.8517,3.8517,3.8517,3.8517,3.8517,3.8517,3.8517,3.8503,3.8444,3.8386,3.8119,3.794,3.7925,3.7764,3.7548,3.7662,3.7808,3.7885,3.7881,3.7799,3.7581,3.7195,3.6621,3.6144,3.586,3.5532,3.5229,3.5029,3.507,3.5177,3.507,3.495,3.5044,3.507,3.5044,3.499,3.4963,3.483,3.4776,3.4468,3.4,3.3708,5.3972,5.3972,5.3972,5.3972,5.3972,5.3972,5.3972,5.3972,5.3972,5.3972,5.3972,5.4017,5.4056,5.4193,5.4213,5.433,5.4447,5.5,5.4922,5.5195,5.5801,5.6035,5.5638,5.5989,5.5723,5.5195,5.4922,5.4857,5.4564,5.4375,5.4394,5.4668,5.4726,5.4961,5.5371,5.5026,5.4772,5.4772,5.4271,5.3992,5.3972,5.3972,5.3972,5.3972,5.3972,5.3972,5.3972,5.3972,5.3972,5.3972,5.3972,5.3972,5.3972,5.3972,5.3972,5.3896,5.3518,5.2807,5.1913,5.0514,4.8281,4.6033,4.4114,4.2235,4.081,3.9979,3.9319,3.881,3.8561,3.8561,3.8576,3.8576,3.8547,3.8547,3.8532,3.8532,3.8532,3.8517,3.8517,3.8517,3.8517,3.8488,3.8444,3.8327,3.8148,3.7954,3.7749,3.7607,3.7739,3.7896,3.8057,3.8108,3.8298,3.8118,3.7826,3.7408,3.6873,3.6322,3.5901,3.5599,3.527,3.523,3.5204,3.5204,3.5164,3.5204,3.5204,3.5177,3.5151,3.5151,3.507,3.4923,3.4696,3.4269,3.4027,5.4173,5.3992,5.3972,5.3972,5.3972,5.3972,5.3972,5.3972,5.3972,5.3972,5.3972,5.3972,5.3972,5.3972,5.3972,5.3972,5.4115,5.4726,5.498,5.5254,5.5664,5.5879,5.5891,5.5891,5.5644,5.5182,5.4811,5.457,5.4297,5.4134,5.4271,5.4805,5.4961,5.5176,5.5605,5.5312,5.4948,5.4967,5.431,5.4031,5.3972,5.3972,5.3972,5.3972,5.3972,5.3972,5.3972,5.3972,5.3972,5.3972,5.3972,5.3972,5.3972,5.3972,5.3972,5.3947,5.3742,5.3416,5.2749,5.1492,4.94,4.7014,4.5233,4.3532,4.063,3.9787,3.9626,3.9175,3.9073,3.9058,3.9058,3.9058,3.8912,3.8854,3.8781,3.8737,3.862,3.8517,3.8517,3.8517,3.8517,3.8503,3.8474,3.8459,3.8324,3.8309,3.8046,3.7973,3.8046,3.8017,3.8148,3.8265,3.8415,3.8462,3.819,3.7826,3.7422,3.6873,3.6348,3.5796,3.5401,3.5283,3.5204,3.5204,3.5204,3.5204,3.5204,3.5204,3.5204,3.5177,3.5097,3.5016,3.4789,3.4602,3.4401,5.4512,5.4115,5.4037,5.3972,5.3972,5.3972,5.3972,5.3972,5.3972,5.3972,5.3972,5.3972,5.3972,5.3972,5.3972,5.3972,5.4232,5.4883,5.5176,5.5488,5.6152,5.5996,5.5996,5.6133,5.5742,5.5312,5.4909,5.4752,5.459,5.4336,5.4349,5.5052,5.539,5.5586,5.5957,5.5703,5.5098,5.4883,5.4447,5.4076,5.3972,5.3972,5.3972,5.3972,5.3972,5.3972,5.3972,5.3972,5.3972,5.3972,5.3972,5.3972,5.3972,5.3972,5.3972,5.3947,5.3947,5.3845,5.3589,5.2672,5.0209,4.7921,4.6458,4.4174,4.1175,3.9992,3.9831,3.9729,3.9626,3.9453,3.9453,3.9424,3.9263,3.9044,3.8956,3.8854,3.8678,3.8532,3.8532,3.8532,3.8517,3.8517,3.8503,3.8503,3.8503,3.8517,3.8517,3.8517,3.8459,3.8342,3.8353,3.8412,3.8459,3.8451,3.8425,3.819,3.78,3.7434,3.6873,3.6112,3.5507,3.5349,3.523,3.5204,3.5204,3.5204,3.5204,3.5204,3.5204,3.5204,3.5151,3.5097,3.503,3.4843,3.4776,5.4941,5.4557,5.4154,5.3998,5.3972,5.3972,5.3972,5.3972,5.3972,5.3972,5.3972,5.3972,5.3972,5.3972,5.3972,5.3992,5.4154,5.4876,5.5234,5.5449,5.6191,5.5996,5.5794,5.597,5.5716,5.541,5.5058,5.4765,5.4844,5.4433,5.4297,5.4902,5.4889,5.5104,5.539,5.5117,5.4844,5.4687,5.4408,5.3972,5.3972,5.3972,5.3972,5.3972,5.3972,5.3972,5.3972,5.3972,5.3972,5.3972,5.3972,5.3972,5.3972,5.3972,5.3972,5.3972,5.3972,5.3972,5.3666,5.2922,5.0599,4.7684,4.5979,4.4098,4.1764,4.0329,4.0212,4.018,3.9992,3.9643,3.9585,3.9585,3.9468,3.9146,3.8956,3.8824,3.8664,3.8605,3.8576,3.8561,3.8547,3.8532,3.8517,3.8503,3.8503,3.8517,3.8517,3.8517,3.8517,3.8517,3.8517,3.8517,3.8517,3.8517,3.8491,3.8451,3.8164,3.7826,3.7382,3.6597,3.5954,3.5428,3.5309,3.523,3.5204,3.5204,3.5204,3.5204,3.5204,3.5204,3.5204,3.5164,3.5124,3.5057,3.495]}]]